[[{"header":{"parameterUnit":"m.s-1","parameterCategory":1,"la1":30.6,"la2":29.2853,"lo1":-89.7004,"lo2":-87.6739,"dy":0.0162,"dx":0.0183,"nx":112,"ny":82,"refTime":"2024-05-06T12:00:00:Z","depth":0,"parameterNumber":2,"parameterNumberName":"U-component_of_WINDS"},"data":[0.0,0.0,0.0,0.0,0.0,0.0,0.0,0.0,0.0,0.0,0.0,0.0,0.0,0.0,0.0,0.0,0.0,0.0,0.0,0.0,0.0,0.0,0.0,0.0,0.0,0.0,0.0,0.0,0.0,0.0,0.0,0.0,0.0,0.0,0.0,0.0,0.0,0.0,0.0,0.0,0.0,0.0,0.0,0.0,0.0,0.0,0.0,0.0,0.0,0.0,0.0,0.0,0.0,0.0,0.0,0.0,0.0,0.0,0.0,0.0,0.0,0.0,0.0,0.0,0.0,0.0,0.0,0.0,0.0,0.0,0.0,0.0,0.0,0.0,0.0,0.0,0.0,0.0,0.0,0.0,0.0,0.0,0.0,0.0,0.0,0.0,0.0,0.0,0.0,0.0,3.8803,3.8762,3.8572,3.8382,3.8289,3.7464,3.657,3.5678,0.0,0.0,0.0,0.0,0.0,0.0,0.0,0.0,0.0,0.0,0.0,0.0,0.0,0.0,0.0,0.0,0.0,0.0,0.0,0.0,0.0,0.0,0.0,0.0,0.0,0.0,0.0,0.0,0.0,0.0,0.0,0.0,0.0,0.0,0.0,0.0,0.0,0.0,0.0,0.0,0.0,0.0,0.0,0.0,0.0,0.0,0.0,0.0,0.0,0.0,0.0,0.0,0.0,0.0,0.0,0.0,0.0,0.0,0.0,0.0,0.0,0.0,0.0,0.0,0.0,0.0,0.0,0.0,0.0,0.0,0.0,0.0,0.0,0.0,0.0,0.0,0.0,0.0,0.0,0.0,0.0,0.0,0.0,0.0,0.0,0.0,0.0,0.0,0.0,0.0,0.0,0.0,0.0,0.0,0.0,0.0,0.0,0.0,0.0,0.0,0.0,0.0,0.0,0.0,3.8541,3.8446,3.8267,3.8135,3.8153,3.728,3.6337,3.5413,0.0,0.0,0.0,0.0,0.0,0.0,0.0,0.0,0.0,0.0,0.0,0.0,0.0,0.0,0.0,0.0,0.0,0.0,0.0,0.0,0.0,0.0,0.0,0.0,0.0,0.0,0.0,0.0,0.0,0.0,0.0,0.0,0.0,0.0,0.0,0.0,0.0,0.0,0.0,0.0,0.0,0.0,0.0,0.0,0.0,0.0,0.0,0.0,0.0,0.0,0.0,0.0,0.0,0.0,0.0,0.0,0.0,0.0,0.0,0.0,0.0,0.0,0.0,0.0,0.0,0.0,0.0,0.0,0.0,0.0,0.0,0.0,0.0,0.0,0.0,0.0,0.0,0.0,0.0,0.0,0.0,0.0,0.0,0.0,0.0,0.0,0.0,0.0,0.0,0.0,0.0,0.0,0.0,0.0,0.0,0.0,0.0,0.0,0.0,0.0,0.0,0.0,0.0,3.851,3.8382,3.8234,3.8135,3.8086,3.8002,3.7504,3.6647,3.5363,3.4746,0.0,0.0,0.0,0.0,0.0,0.0,0.0,0.0,0.0,0.0,0.0,0.0,0.0,0.0,0.0,0.0,0.0,0.0,0.0,0.0,0.0,0.0,0.0,0.0,0.0,0.0,0.0,0.0,0.0,0.0,0.0,0.0,0.0,0.0,0.0,0.0,0.0,0.0,0.0,0.0,0.0,0.0,0.0,0.0,0.0,0.0,0.0,0.0,0.0,0.0,0.0,0.0,0.0,0.0,0.0,0.0,0.0,0.0,0.0,0.0,0.0,0.0,0.0,0.0,0.0,0.0,0.0,0.0,0.0,0.0,0.0,0.0,0.0,0.0,0.0,0.0,0.0,0.0,0.0,0.0,0.0,0.0,0.0,0.0,0.0,0.0,0.0,0.0,0.0,0.0,0.0,0.0,0.0,0.0,0.0,0.0,0.0,0.0,0.0,0.0,0.0,0.0,3.835,3.8267,3.8101,3.8034,3.7949,3.7828,3.7667,3.6952,3.5509,3.4976,0.0,0.0,0.0,0.0,0.0,0.0,0.0,0.0,0.0,0.0,0.0,0.0,0.0,0.0,0.0,0.0,0.0,0.0,0.0,0.0,0.0,0.0,0.0,0.0,0.0,0.0,0.0,0.0,0.0,0.0,0.0,0.0,0.0,0.0,0.0,0.0,0.0,0.0,0.0,0.0,0.0,0.0,0.0,0.0,0.0,0.0,0.0,0.0,0.0,0.0,0.0,0.0,0.0,0.0,0.0,0.0,0.0,0.0,0.0,0.0,0.0,0.0,0.0,0.0,0.0,0.0,0.0,0.0,0.0,0.0,0.0,0.0,0.0,0.0,0.0,0.0,0.0,0.0,0.0,0.0,0.0,0.0,0.0,0.0,0.0,0.0,0.0,0.0,0.0,0.0,0.0,0.0,0.0,0.0,0.0,0.0,0.0,0.0,0.0,0.0,0.0,0.0,3.8204,3.8068,3.8018,3.7845,3.7703,3.7631,3.7503,3.6945,3.5814,3.5074,0.0,0.0,0.0,0.0,0.0,0.0,0.0,0.0,0.0,0.0,0.0,0.0,0.0,0.0,0.0,0.0,0.0,0.0,0.0,0.0,0.0,0.0,0.0,0.0,0.0,0.0,0.0,0.0,0.0,0.0,0.0,0.0,0.0,0.0,0.0,0.0,0.0,0.0,0.0,0.0,0.0,0.0,0.0,0.0,0.0,0.0,0.0,0.0,0.0,0.0,0.0,0.0,0.0,0.0,0.0,0.0,0.0,0.0,0.0,0.0,0.0,0.0,0.0,0.0,0.0,0.0,0.0,0.0,0.0,0.0,0.0,0.0,0.0,0.0,0.0,0.0,0.0,0.0,0.0,0.0,0.0,0.0,0.0,0.0,0.0,0.0,0.0,0.0,0.0,0.0,0.0,0.0,0.0,0.0,0.0,0.0,0.0,0.0,0.0,0.0,0.0,0.0,3.8036,3.7933,3.781,3.7721,3.7577,3.7503,3.7279,3.6752,3.5864,0.0,0.0,0.0,0.0,0.0,0.0,0.0,0.0,0.0,0.0,0.0,0.0,0.0,0.0,0.0,0.0,0.0,0.0,0.0,0.0,0.0,0.0,0.0,0.0,0.0,0.0,0.0,0.0,0.0,0.0,0.0,0.0,0.0,0.0,0.0,0.0,0.0,0.0,0.0,0.0,0.0,0.0,0.0,0.0,0.0,0.0,0.0,0.0,0.0,0.0,0.0,0.0,0.0,0.0,0.0,0.0,0.0,0.0,0.0,0.0,0.0,0.0,0.0,0.0,0.0,0.0,0.0,0.0,0.0,0.0,0.0,0.0,0.0,0.0,0.0,0.0,0.0,0.0,0.0,0.0,0.0,0.0,0.0,0.0,0.0,0.0,0.0,0.0,0.0,0.0,0.0,0.0,0.0,0.0,0.0,0.0,0.0,0.0,0.0,0.0,0.0,0.0,3.7967,3.7881,3.7775,3.7685,3.7577,3.7429,3.7279,3.7087,3.672,3.6059,0.0,0.0,0.0,0.0,0.0,0.0,0.0,0.0,0.0,0.0,0.0,0.0,0.0,0.0,0.0,0.0,0.0,0.0,0.0,0.0,0.0,0.0,0.0,0.0,0.0,0.0,0.0,0.0,0.0,0.0,0.0,0.0,0.0,0.0,0.0,0.0,0.0,0.0,0.0,0.0,0.0,0.0,0.0,0.0,0.0,0.0,0.0,0.0,0.0,0.0,0.0,0.0,0.0,0.0,0.0,0.0,0.0,0.0,0.0,0.0,0.0,0.0,0.0,0.0,0.0,0.0,0.0,0.0,0.0,0.0,0.0,0.0,0.0,0.0,0.0,0.0,0.0,0.0,0.0,0.0,0.0,0.0,0.0,0.0,0.0,0.0,0.0,0.0,0.0,0.0,0.0,0.0,0.0,0.0,0.0,0.0,0.0,0.0,0.0,0.0,0.0,0.0,3.7899,3.7703,3.7594,3.7594,3.741,3.722,3.7027,3.6987,3.6869,0.0,0.0,0.0,0.0,0.0,0.0,0.0,0.0,0.0,0.0,0.0,0.0,0.0,0.0,0.0,0.0,0.0,0.0,0.0,0.0,0.0,0.0,0.0,0.0,0.0,0.0,0.0,0.0,0.0,0.0,0.0,0.0,0.0,0.0,0.0,0.0,0.0,0.0,0.0,0.0,0.0,0.0,0.0,0.0,0.0,0.0,0.0,0.0,0.0,0.0,0.0,0.0,0.0,0.0,0.0,0.0,0.0,0.0,0.0,0.0,0.0,0.0,0.0,0.0,0.0,0.0,0.0,0.0,0.0,0.0,0.0,0.0,0.0,0.0,0.0,0.0,0.0,0.0,0.0,0.0,0.0,0.0,0.0,0.0,0.0,0.0,0.0,0.0,0.0,0.0,0.0,0.0,0.0,0.0,0.0,0.0,0.0,0.0,0.0,0.0,0.0,0.0,0.0,3.7703,3.754,3.7429,3.741,3.722,3.7066,3.7027,3.6771,3.6568,3.6343,0.0,0.0,0.0,0.0,0.0,0.0,0.0,0.0,0.0,0.0,0.0,0.0,0.0,0.0,0.0,0.0,0.0,0.0,0.0,0.0,0.0,0.0,0.0,0.0,0.0,0.0,0.0,0.0,0.0,0.0,0.0,0.0,0.0,0.0,0.0,0.0,0.0,0.0,0.0,0.0,0.0,0.0,0.0,0.0,0.0,0.0,0.0,0.0,0.0,0.0,0.0,0.0,0.0,0.0,0.0,0.0,0.0,0.0,0.0,0.0,0.0,0.0,0.0,0.0,0.0,0.0,0.0,0.0,0.0,0.0,0.0,0.0,0.0,0.0,0.0,0.0,0.0,0.0,0.0,0.0,0.0,0.0,0.0,0.0,0.0,0.0,0.0,0.0,0.0,0.0,0.0,0.0,0.0,0.0,0.0,0.0,0.0,0.0,0.0,0.0,0.0,0.0,3.754,3.7374,3.7223,3.7182,3.7009,3.6908,3.6829,3.6568,3.636,3.6276,0.0,0.0,0.0,0.0,0.0,0.0,0.0,0.0,0.0,0.0,0.0,0.0,0.0,0.0,0.0,0.0,0.0,0.0,0.0,0.0,0.0,0.0,0.0,0.0,0.0,0.0,0.0,0.0,0.0,0.0,0.0,0.0,0.0,0.0,0.0,0.0,0.0,0.0,0.0,0.0,0.0,0.0,0.0,0.0,0.0,0.0,0.0,0.0,0.0,0.0,0.0,0.0,0.0,0.0,0.0,0.0,0.0,0.0,0.0,0.0,0.0,0.0,0.0,0.0,0.0,0.0,0.0,0.0,0.0,0.0,0.0,0.0,0.0,0.0,0.0,0.0,0.0,0.0,0.0,0.0,0.0,0.0,0.0,0.0,0.0,0.0,0.0,0.0,0.0,0.0,0.0,0.0,0.0,0.0,0.0,0.0,0.0,0.0,0.0,0.0,0.0,0.0,3.7392,3.7223,3.7069,3.697,3.6869,3.669,3.6502,3.6343,3.6233,3.6122,0.0,0.0,0.0,0.0,0.0,0.0,0.0,0.0,0.0,0.0,0.0,0.0,0.0,0.0,0.0,0.0,0.0,0.0,0.0,0.0,0.0,0.0,0.0,0.0,0.0,0.0,0.0,0.0,0.0,0.0,0.0,0.0,0.0,0.0,0.0,0.0,0.0,0.0,0.0,0.0,0.0,0.0,0.0,0.0,0.0,0.0,0.0,0.0,0.0,0.0,0.0,0.0,0.0,0.0,0.0,0.0,0.0,0.0,0.0,0.0,4.3796,4.3207,0.0,0.0,0.0,0.0,0.0,0.0,0.0,0.0,0.0,0.0,0.0,0.0,0.0,0.0,0.0,0.0,0.0,0.0,0.0,0.0,0.0,0.0,0.0,0.0,0.0,0.0,0.0,0.0,0.0,0.0,0.0,0.0,0.0,0.0,0.0,0.0,0.0,0.0,0.0,0.0,3.7185,3.7087,3.697,3.6869,3.6667,3.6485,3.636,3.6276,3.6079,3.5756,3.5667,0.0,0.0,0.0,0.0,0.0,0.0,0.0,0.0,0.0,0.0,0.0,0.0,0.0,0.0,0.0,0.0,0.0,0.0,0.0,0.0,0.0,0.0,0.0,0.0,0.0,0.0,0.0,0.0,0.0,0.0,0.0,0.0,0.0,0.0,0.0,0.0,0.0,0.0,0.0,0.0,0.0,0.0,0.0,0.0,0.0,0.0,0.0,0.0,0.0,0.0,0.0,0.0,0.0,0.0,0.0,0.0,0.0,0.0,0.0,4.4804,4.4388,0.0,0.0,0.0,0.0,0.0,0.0,0.0,0.0,0.0,0.0,0.0,0.0,0.0,0.0,0.0,0.0,0.0,0.0,0.0,0.0,0.0,0.0,0.0,0.0,0.0,0.0,0.0,0.0,0.0,0.0,0.0,0.0,0.0,0.0,0.0,0.0,0.0,0.0,0.0,0.0,3.7069,3.697,3.6829,3.6568,3.6485,3.636,3.6174,3.6019,3.58,3.5622,3.5396,0.0,0.0,0.0,0.0,0.0,0.0,0.0,0.0,0.0,0.0,0.0,0.0,0.0,0.0,0.0,0.0,0.0,0.0,0.0,0.0,0.0,0.0,0.0,0.0,0.0,0.0,0.0,0.0,0.0,0.0,0.0,0.0,0.0,0.0,0.0,0.0,0.0,0.0,0.0,0.0,0.0,0.0,0.0,0.0,0.0,0.0,0.0,0.0,0.0,0.0,0.0,0.0,0.0,4.6245,4.6245,4.6245,4.6245,4.6172,4.6012,4.5963,4.5835,4.5626,4.485,0.0,0.0,0.0,0.0,0.0,0.0,0.0,0.0,0.0,0.0,0.0,0.0,0.0,0.0,0.0,0.0,0.0,0.0,0.0,0.0,0.0,0.0,4.1089,4.0906,4.0823,4.0393,3.8964,0.0,0.0,0.0,0.0,0.0,0.0,0.0,0.0,0.0,0.0,0.0,3.7391,3.7231,3.7009,3.674,3.6534,3.6337,3.612,3.5779,3.5577,3.5487,3.5118,3.4851,0.0,0.0,0.0,0.0,0.0,0.0,0.0,0.0,0.0,0.0,0.0,0.0,0.0,0.0,0.0,0.0,0.0,0.0,0.0,0.0,0.0,0.0,0.0,0.0,0.0,0.0,0.0,0.0,0.0,0.0,0.0,0.0,4.2728,4.4364,0.0,0.0,0.0,0.0,0.0,0.0,0.0,0.0,0.0,0.0,0.0,0.0,0.0,4.6337,4.7029,4.7016,4.737,4.8063,4.8063,4.8063,4.8063,4.8063,4.7642,4.692,4.687,0.0,4.569,4.5505,0.0,0.0,0.0,0.0,0.0,0.0,0.0,0.0,0.0,0.0,0.0,0.0,0.0,0.0,0.0,0.0,0.0,0.0,0.0,0.0,0.0,0.0,4.0906,4.0842,4.0739,4.0598,4.0221,4.0113,4.0022,3.9837,3.9817,3.9741,0.0,0.0,0.0,0.0,0.0,0.0,3.8846,3.8565,3.8336,3.8274,3.7494,3.6904,3.6615,3.5994,3.5441,3.5041,3.4947,3.4739,3.4399,3.4201,0.0,0.0,0.0,0.0,0.0,0.0,0.0,0.0,0.0,0.0,0.0,0.0,0.0,0.0,0.0,0.0,0.0,0.0,0.0,0.0,0.0,0.0,0.0,0.0,0.0,0.0,0.0,0.0,0.0,4.2941,4.4033,4.4812,4.5319,4.5779,0.0,0.0,0.0,0.0,0.0,0.0,0.0,0.0,0.0,4.7408,4.7403,4.7572,4.7868,4.7859,4.8039,4.8392,4.8392,4.8392,4.8392,4.8392,4.8168,4.7777,4.7742,4.748,4.6968,4.6007,4.5586,4.5586,0.0,0.0,0.0,0.0,4.5048,4.4722,4.4614,4.4322,4.3977,4.3862,0.0,0.0,0.0,0.0,0.0,0.0,0.0,4.2664,4.2548,4.2415,4.2262,4.214,4.2014,4.1868,4.1699,4.1546,4.116,4.0188,3.9968,3.9889,3.9713,3.9651,0.0,0.0,0.0,3.9076,3.886,3.8701,3.8522,3.8277,3.7784,3.7411,3.7287,3.636,3.5752,3.5512,3.4922,3.4448,3.4201,3.4,3.3761,0.0,0.0,0.0,0.0,0.0,0.0,0.0,0.0,0.0,0.0,0.0,0.0,0.0,0.0,0.0,0.0,0.0,0.0,0.0,0.0,0.0,0.0,0.0,0.0,0.0,0.0,0.0,0.0,4.4117,4.4975,4.5202,4.5806,4.6162,0.0,0.0,0.0,0.0,0.0,0.0,4.7628,4.825,4.8557,4.849,4.8496,4.8573,4.8725,4.8735,4.8836,4.9049,4.9049,4.9049,4.9049,4.9049,4.8868,4.8593,4.8593,4.8407,4.8009,4.674,4.624,4.624,4.611,4.6071,4.6033,4.5721,4.5602,4.5543,4.5224,4.5103,4.508,4.4943,4.4796,4.4685,4.4632,0.0,0.0,0.0,0.0,4.3771,4.3566,4.3428,4.3305,4.3086,4.2956,4.2824,4.2552,4.2409,4.193,4.0713,4.0397,4.0294,4.0135,4.0052,0.0,3.9799,3.9669,3.9494,3.9198,3.9124,3.8905,3.8588,3.8244,3.7997,3.7818,3.6837,3.6208,3.6125,3.5135,3.4477,3.4325,3.3858,3.3503,3.3293,0.0,0.0,0.0,0.0,0.0,0.0,0.0,0.0,0.0,0.0,0.0,0.0,0.0,0.0,0.0,0.0,0.0,0.0,0.0,0.0,0.0,0.0,0.0,0.0,0.0,0.0,0.0,0.0,0.0,4.6047,4.6176,0.0,0.0,0.0,0.0,4.724,4.8036,4.8522,4.8522,4.858,4.8577,4.8503,4.8503,4.887,4.9629,4.9629,5.0016,5.077,5.077,5.077,5.077,5.077,5.0298,4.9442,4.9442,4.8927,4.8086,4.8009,4.7971,4.7971,4.7894,4.7873,4.7758,4.6791,4.6443,4.6307,4.5414,4.5103,4.508,4.4943,4.4796,4.4659,4.4401,4.4314,0.0,0.0,4.3851,4.3771,4.3566,4.3358,4.316,4.2975,4.2842,4.2706,4.2369,4.2328,4.2228,4.2056,4.1948,4.1796,4.1525,0.0,4.1393,4.1133,4.0938,4.0814,4.0767,4.0431,4.0186,4.0019,3.9261,3.8589,3.8216,3.7417,3.6783,3.6385,3.563,3.5069,3.4965,3.3905,3.3293,3.3309,3.2742,0.0,0.0,0.0,0.0,0.0,0.0,0.0,0.0,0.0,0.0,0.0,0.0,0.0,0.0,0.0,0.0,0.0,0.0,0.0,0.0,0.0,0.0,0.0,0.0,0.0,0.0,0.0,0.0,4.6164,4.6702,0.0,4.693,4.7728,4.8205,4.8133,4.893,4.9435,4.9435,4.9978,5.0234,5.0189,5.017,5.0264,5.048,5.048,5.0616,5.0906,5.0906,5.0906,5.0906,5.0906,5.0684,5.033,5.033,5.0122,4.976,4.976,4.9106,4.8087,4.8029,4.7988,4.795,4.7499,4.7341,4.728,4.6862,4.672,4.6678,4.6455,4.6288,4.6026,4.5298,4.499,4.4736,4.4031,4.3719,4.3566,4.3358,4.316,4.2975,4.2842,4.2649,4.245,4.2328,4.2121,4.1952,4.1805,4.1736,4.171,4.1515,4.1408,4.1272,4.1041,4.0965,4.084,4.0551,4.0288,4.0138,3.9986,3.946,3.9049,3.8927,3.788,3.7134,3.6988,3.6093,3.5476,3.5188,3.4786,3.4384,3.3991,3.382,3.3517,0.0,0.0,0.0,0.0,0.0,0.0,0.0,0.0,0.0,0.0,0.0,0.0,0.0,0.0,0.0,0.0,0.0,0.0,0.0,0.0,0.0,0.0,0.0,0.0,0.0,4.5844,4.63,4.6592,4.715,4.7584,4.7825,4.8642,4.9109,4.9038,4.9843,5.0328,5.0328,5.0891,5.1166,5.1101,5.1101,5.1039,5.0906,5.0906,5.0906,5.0906,5.0906,5.0906,5.0906,5.0909,5.0861,5.0793,5.0775,5.074,5.0702,5.0702,5.001,4.8933,4.8873,4.8832,4.8794,4.8398,4.8216,4.8155,4.7691,4.7542,4.7467,4.7265,4.709,4.6869,4.6139,4.5767,4.5496,4.4779,4.4462,4.4234,4.3999,4.3812,4.3604,4.3156,4.2862,4.2567,4.2174,4.1909,4.1692,4.1498,4.1498,4.1471,4.129,4.1134,4.1041,4.0776,4.068,4.0534,4.0288,4.0087,3.9884,3.9746,3.9484,3.9218,3.9002,3.8176,3.7623,3.7512,3.6558,3.5879,3.5695,3.5231,3.482,3.4414,3.4178,3.3894,3.3469,0.0,0.0,0.0,0.0,0.0,0.0,0.0,0.0,0.0,0.0,0.0,0.0,0.0,0.0,0.0,0.0,0.0,0.0,0.0,0.0,0.0,0.0,0.0,4.6211,4.6226,4.6546,4.7411,4.754,4.7876,4.8662,4.9537,5.0004,4.9951,5.0717,5.1202,5.1202,5.1202,5.1166,5.1101,5.1101,5.1039,5.0906,5.0906,5.0906,5.0906,5.0906,5.0906,5.0906,5.0897,5.0863,5.0793,5.072,5.0702,5.0702,5.0702,5.0663,5.0603,5.0521,5.05,5.0383,4.9468,4.909,4.8886,4.7908,4.7491,4.7359,4.7286,4.7165,4.7038,4.68,4.6643,4.6498,4.6239,4.6064,4.581,4.549,4.5352,4.4989,4.3805,4.35,4.3159,4.1921,4.1674,4.1568,4.129,4.1353,4.1324,4.0982,4.0871,4.0776,4.0534,4.0288,0.0,4.007,3.9867,3.9573,3.9325,3.9272,3.9056,3.8448,3.8408,3.8221,3.7934,3.6949,3.6395,3.6395,3.514,3.4475,3.4417,3.3834,3.3374,3.3063,0.0,0.0,0.0,0.0,0.0,0.0,0.0,0.0,0.0,0.0,0.0,0.0,0.0,0.0,0.0,0.0,0.0,0.0,0.0,0.0,0.0,4.6144,4.6273,4.6211,4.6733,4.7228,4.7469,4.8573,4.9395,4.9615,5.0393,5.086,5.0833,5.1066,5.1202,5.1202,5.1202,5.1166,5.1101,5.1101,5.1039,5.0906,5.0906,5.0906,5.0906,5.0906,5.0906,5.0906,5.0897,5.0863,5.0793,5.072,5.0702,5.0702,5.0702,5.0663,5.0603,5.0521,5.0478,5.0374,5.0077,4.9907,4.9746,4.9371,4.9162,4.9013,4.8859,4.8677,4.8445,4.7667,4.7315,4.6979,4.6194,4.5847,4.5641,4.5409,4.5129,4.4827,4.44,4.4059,4.3691,4.3342,4.3086,4.2723,4.1929,4.1825,4.1652,4.1022,4.0728,4.0534,4.0221,4.0138,4.002,3.9816,3.9573,3.9379,3.9325,3.8892,3.856,3.8391,3.8107,3.7801,3.7551,3.72,3.6808,3.6521,3.6152,3.5676,3.519,3.4872,3.4484,0.0,0.0,0.0,0.0,0.0,0.0,0.0,0.0,0.0,0.0,0.0,0.0,0.0,0.0,0.0,0.0,0.0,0.0,0.0,0.0,0.0,0.0,4.6612,4.6819,4.6743,4.7187,4.7774,4.849,4.9418,5.0135,5.0509,5.0948,5.119,5.1206,5.1214,5.1202,5.1202,5.1202,5.1166,5.1101,5.1101,5.1039,5.0906,5.0906,5.0906,5.0906,5.0906,5.089,5.0893,5.088,5.081,5.0757,5.072,5.0702,5.0702,5.0663,5.0623,5.0542,0.0,0.0,0.0,0.0,5.0158,5.0031,4.9898,4.9807,4.9663,4.9476,4.9289,4.9071,4.842,4.8029,4.7721,4.7095,4.6702,4.6466,4.6264,4.5953,4.5579,4.5036,4.4647,4.423,4.3707,4.3426,4.3141,4.2444,4.2208,0.0,4.156,4.0846,4.0221,3.9969,3.9833,3.9729,3.952,3.9255,3.904,3.8947,3.8616,3.8335,3.8107,3.7801,0.0,0.0,0.0,3.6646,3.6226,3.6115,0.0,0.0,0.0,3.4683,3.4414,3.4142,0.0,0.0,3.3282,3.3325,0.0,0.0,0.0,0.0,0.0,0.0,0.0,0.0,0.0,0.0,0.0,0.0,0.0,0.0,0.0,0.0,4.7022,4.7604,4.7635,4.7738,4.8365,4.9926,5.0119,5.0455,5.1217,5.1249,5.1201,5.1189,5.1206,5.1202,5.1202,5.1202,0.0,0.0,0.0,5.1039,5.0906,5.0906,5.0906,5.0906,5.0906,5.0893,5.0899,5.0846,5.0756,5.0701,5.0702,5.0702,5.0683,5.0623,5.0562,5.05,5.0478,5.0435,5.0348,5.0158,5.0057,4.9978,4.9835,0.0,0.0,4.9446,4.9257,4.9113,4.8943,4.8697,4.8457,4.8267,4.797,4.7657,4.7468,4.7205,4.6682,4.5664,4.5268,4.4834,4.3644,4.3338,4.3219,4.286,4.2545,4.2385,4.223,4.1101,4.0104,3.9795,3.9481,3.9272,3.9218,3.8931,3.8655,3.8391,3.8335,0.0,3.77,3.7492,3.7298,3.7134,3.6646,3.6163,3.5703,3.5539,3.5359,3.5082,3.4616,3.4346,3.4278,3.3884,3.3564,3.3353,3.3353,3.3434,0.0,0.0,0.0,0.0,0.0,0.0,0.0,0.0,0.0,0.0,0.0,0.0,0.0,0.0,0.0,4.6262,4.7032,4.7822,4.8463,4.9157,4.9722,5.0063,5.0665,5.1117,5.1276,5.1249,5.1201,5.1189,5.1206,5.1202,5.1202,5.1202,5.1159,5.1102,5.1095,5.1053,5.0971,5.0941,5.0906,5.0906,5.0906,0.0,5.0899,5.0846,5.0756,5.0701,5.0702,5.0702,5.0683,5.0623,5.054,5.0412,5.0348,5.0302,5.0231,5.0133,5.0031,4.9898,4.9778,4.9615,4.9415,4.9276,4.9113,4.8943,4.8714,4.8495,0.0,4.7955,4.7788,4.7615,4.7205,4.6888,4.6554,4.6108,4.5678,4.5286,4.5027,4.4694,4.4218,4.3427,4.3162,4.2702,4.1749,4.1097,4.0565,4.0209,3.969,3.9164,3.8805,3.86,3.8375,3.8173,3.7828,3.7535,3.7492,3.721,3.6923,3.6662,3.6148,3.5782,3.5554,3.5359,3.5016,3.4549,3.4481,3.421,3.3744,3.3959,3.3984,3.3768,3.3623,3.3399,0.0,0.0,0.0,0.0,0.0,0.0,0.0,0.0,0.0,0.0,0.0,4.5644,4.5644,0.0,4.6445,4.6874,4.7681,4.8525,4.9345,5.0196,5.0747,5.0738,5.1076,5.1308,5.1304,5.1267,5.124,5.119,5.1208,5.1194,5.1202,5.1202,5.1171,5.1095,5.1095,5.1067,5.1005,5.0921,5.0906,5.0906,5.0893,5.0897,5.0846,5.0775,5.0739,5.0702,5.0702,5.0663,5.0643,5.0521,5.0435,5.0302,5.0278,5.0207,5.0158,5.0082,4.9978,4.9843,4.975,4.9555,4.9384,4.9244,4.9046,4.8874,4.8624,4.8401,4.8169,4.7829,4.7597,4.7399,4.7088,4.6684,4.6332,4.6087,4.5684,4.5336,4.4998,4.4797,4.4418,4.3765,4.3471,4.3198,4.2526,4.1807,4.1139,4.0736,4.0205,3.9658,3.9097,3.8795,3.8434,3.7801,3.7535,3.7373,3.721,3.6923,3.6569,3.6067,3.5733,3.5474,3.5213,3.4949,3.4683,3.4414,3.4142,3.3956,3.3917,3.4012,3.4029,3.4024,3.419,3.4099,0.0,0.0,0.0,0.0,0.0,0.0,0.0,4.4504,4.5051,4.5226,4.5811,4.6308,4.6308,4.6445,4.6777,4.748,4.8471,4.9375,5.0012,5.084,5.1396,5.14,5.1343,5.1303,5.1308,5.1304,5.1278,5.122,5.121,5.1197,5.1194,5.1202,5.1171,5.1127,5.1108,5.1067,5.102,5.0941,5.0906,5.0906,5.0897,5.0863,5.0793,5.072,5.0702,5.0702,5.0702,5.0623,5.0562,5.0435,5.0302,5.0188,5.0163,5.0114,5.0057,5.0005,4.9898,4.9778,4.9673,4.9525,4.9321,4.9179,4.9012,4.8768,4.8532,4.8304,4.8028,4.7699,4.7399,4.7088,4.6888,4.6495,4.6038,4.5786,4.5477,4.5106,4.4614,4.439,4.4219,4.3831,4.3611,4.3432,4.3251,4.2533,4.1776,4.121,4.0745,4.0183,3.9527,3.9241,3.867,3.7642,3.7443,3.7275,3.6816,3.6492,3.6067,3.5504,3.5439,3.5228,3.4802,3.4534,3.4346,3.4278,3.3927,3.3889,3.4167,3.4112,3.4176,3.4366,3.4733,3.4857,4.1091,4.1679,4.2454,4.3333,4.3548,4.3782,0.0,4.4933,4.5226,4.5987,4.6225,4.6295,4.6308,4.6933,4.748,4.7578,4.8984,5.0075,5.0094,5.0848,5.141,5.1396,5.133,5.1291,5.131,5.1292,5.1306,5.1287,5.122,5.1189,5.1208,5.1194,5.1202,5.119,5.1127,5.1101,5.1087,5.0956,5.0906,5.0906,5.0897,5.0863,5.0793,5.072,5.0702,5.0702,5.0623,5.054,5.0412,5.0325,5.0278,5.0188,5.0082,4.9978,4.9906,4.9906,4.9816,4.9692,4.9506,4.9321,4.9179,4.9012,4.8768,4.8532,4.8363,4.805,4.7699,4.7407,4.7205,4.6888,4.6447,4.6087,4.5786,4.5529,4.4998,4.4558,4.4502,4.4064,4.3687,4.3611,4.3372,4.3052,4.2743,4.2569,4.2278,4.1626,4.078,4.0027,3.9548,3.9486,3.9046,3.8044,3.7638,3.7138,3.6209,3.5812,3.5569,3.5504,3.5148,3.4802,3.4481,3.4414,3.421,3.3675,3.4002,3.4096,3.3949,3.4644,3.4899,3.4746,3.5183,3.4942,4.2616,4.2877,4.3372,4.4231,4.4465,4.468,4.5558,4.5753,4.5851,4.6222,4.63,4.644,4.6961,4.7342,4.793,4.8945,4.9726,5.0351,5.0796,5.1174,5.1394,5.141,5.1372,5.1336,5.1297,5.1296,5.13,5.1295,5.1269,5.1249,5.1189,5.1197,5.1206,5.1202,5.1134,5.1108,5.1101,5.1005,5.0941,5.0913,5.0863,5.0793,5.0738,5.0664,5.0624,5.0563,5.05,5.0435,5.0325,5.0278,5.0182,5.0082,5.0031,4.9925,4.9843,4.9843,4.975,4.9604,4.9446,4.9257,4.9061,4.8943,4.866,4.8363,4.819,4.7929,4.7615,4.7249,4.6962,4.6684,4.6284,4.5887,4.5477,4.523,4.4852,4.439,4.4064,4.3789,4.3492,4.3068,4.2867,4.268,4.2365,4.2174,4.1949,4.1646,4.1295,4.0769,4.0214,3.9959,3.9263,3.7886,3.7379,3.6797,3.5793,3.5569,3.5374,3.503,3.475,3.4467,3.4264,3.4005,3.39,3.3917,3.4026,3.4224,3.463,3.4817,3.5004,3.5117,3.5047,3.4788,4.3989,4.4055,4.427,4.5148,4.5363,4.5519,4.6163,4.63,4.63,4.63,4.63,4.6573,4.7432,4.7801,4.8456,4.9961,5.0391,5.0723,5.1328,5.1396,5.1394,5.1394,5.1406,5.1377,5.133,5.1317,5.1303,5.1292,5.1295,5.1278,5.124,5.12,5.1197,5.1194,5.1139,5.1102,5.1101,5.102,5.096,5.0899,5.0846,5.0757,5.0682,5.0604,5.054,5.0478,5.0412,5.0325,5.0278,5.0163,5.0082,4.9978,4.9952,4.9843,4.975,4.9702,4.9615,4.9544,4.9384,4.9193,4.8959,4.8839,4.855,4.8247,4.801,4.7765,4.7486,4.7025,4.6684,4.6381,4.6087,4.5632,4.523,4.4906,4.4575,4.4121,4.3671,4.3432,4.319,4.2696,4.2508,4.2365,4.2045,4.1785,4.1588,4.1472,4.139,4.115,4.0598,4.01,3.9272,3.7973,3.7218,3.6547,3.5753,3.5413,3.5096,3.4631,3.4414,3.421,3.3991,3.3831,3.386,3.408,3.4196,3.4506,3.4985,3.4991,3.5063,3.5236,3.4825,3.4577,4.4738,4.4965,4.5168,4.6046,4.6261,4.6261,4.628,4.63,4.63,4.63,4.63,4.6573,4.7432,4.8291,4.9143,5.0058,5.0859,5.1367,5.1406,5.1396,5.1394,5.1394,5.1394,5.141,5.1396,5.133,5.1291,5.1291,5.1292,5.1306,5.1306,5.124,5.1189,5.1189,5.1132,5.1102,5.1101,5.102,5.096,5.0899,5.0846,5.0738,5.0606,5.0544,5.0478,5.0412,5.0325,5.0259,5.0188,5.0038,4.9978,4.9898,4.9816,4.9721,4.9574,4.9446,4.9415,4.9384,4.9244,4.9079,4.8874,4.8606,4.8381,4.8148,4.7824,4.7486,4.7133,4.6749,4.6429,4.6087,4.558,4.523,4.4923,4.4558,4.4064,4.3628,4.3628,4.3068,4.2618,4.2634,4.2302,4.198,4.1654,4.1588,4.1472,4.1169,4.0814,4.0524,4.0509,3.9665,3.8925,3.8711,3.7346,3.6365,3.6164,3.5251,3.4631,3.4414,3.4196,3.3937,3.3605,3.3959,3.408,3.3949,3.4651,3.4958,3.4828,3.517,3.5223,3.4839,3.4577,3.4314,4.5724,4.5806,4.587,4.6162,4.6221,4.6221,4.6221,4.6221,4.624,4.6288,4.6718,4.7366,4.8232,4.9111,4.9973,5.0845,5.1223,5.1404,5.1406,5.1405,5.1398,5.1398,5.1394,5.1394,5.141,5.1377,5.1361,5.1369,5.133,5.1308,5.1292,5.1278,5.1249,5.1189,5.1178,5.1139,5.1101,5.102,5.0941,5.0846,5.0721,5.0604,5.0481,5.0393,5.0325,5.0278,5.0207,5.0133,5.0038,4.9978,4.9898,4.9835,4.975,4.9615,4.9464,4.9415,4.9257,4.9061,4.9012,4.8909,4.8768,4.8476,4.819,4.7852,4.7536,4.7249,4.6934,4.6477,4.6137,4.5837,4.5477,4.5069,4.4575,4.431,4.3906,4.3509,4.3007,4.2759,4.2508,4.2206,4.1931,4.172,4.1456,4.1189,4.0935,4.0624,4.0539,4.0401,4.0207,3.9798,3.9184,3.8592,3.7933,3.7045,3.5898,3.5429,3.4864,3.4225,3.3937,3.3859,3.3987,3.3982,3.4251,3.4678,3.4936,3.5097,3.5184,3.5224,3.5086,3.4756,3.441,3.4076,4.6195,4.6201,4.6206,4.6206,4.6206,4.6206,4.6206,4.6206,4.6309,4.6665,4.7133,4.786,4.9059,4.9727,5.0395,5.1258,5.1405,5.1394,5.1402,5.1406,5.1405,5.1396,5.1402,5.1398,5.1405,5.1394,5.1401,5.1405,5.1369,5.1336,5.1342,5.1312,5.1287,5.124,5.121,5.1175,5.1095,5.1034,5.0909,5.072,5.0565,5.0457,5.0348,5.0278,5.0207,5.0158,5.0082,4.9986,4.9952,4.9871,4.9807,4.9721,4.9634,4.9495,4.9352,4.9308,4.9146,4.8909,4.8909,4.8768,4.8587,4.8267,4.7992,4.7687,4.732,4.7025,4.6749,4.6186,4.5887,4.558,4.5159,4.4725,4.4293,4.3981,4.3552,4.3129,4.2696,4.2445,4.227,4.1882,4.1604,4.139,4.1055,4.073,4.0401,4.0121,4.0121,4.0051,3.9783,3.9625,3.923,3.8639,3.8186,3.7443,3.6324,3.5822,3.522,3.4309,3.427,3.4199,3.408,3.4279,3.4665,3.5128,3.5189,3.5263,3.5318,3.5086,3.4839,3.4507,3.416,3.381,4.6203,4.6195,4.6206,4.6206,4.6206,4.6206,4.6206,4.6206,4.646,4.7318,4.7532,4.8098,4.9795,5.0137,5.0445,5.1273,5.1394,5.1394,5.1394,5.14,5.1406,5.1406,5.1396,5.1405,5.1398,5.1408,5.1394,5.1401,5.1405,5.1394,5.1394,5.1342,5.13,5.13,5.124,5.1167,5.1095,5.1015,5.0841,5.0567,5.0396,5.0302,5.0278,5.0158,5.0082,5.0082,4.9952,4.9898,4.9898,4.975,4.9634,4.9574,4.9446,4.9352,4.9276,4.915,4.8996,4.8874,4.8874,4.8605,4.8267,4.8072,4.7847,4.7572,4.7116,4.6795,4.6495,4.5938,4.558,4.5213,4.4669,4.431,4.3981,4.3687,4.3068,4.2571,4.2571,4.2206,4.1833,4.1588,4.139,4.1122,4.0593,4.0191,3.9925,3.9681,3.9481,3.9352,3.9352,3.9192,3.9017,3.8797,3.8106,3.7536,3.7302,3.649,3.5583,3.4611,3.5048,3.4973,3.3987,3.492,3.5311,3.5104,3.5264,3.5318,3.5086,3.4839,3.459,3.4076,3.381,3.3556,4.6203,4.6209,4.619,4.619,4.619,4.619,4.619,4.619,4.645,4.732,4.8022,4.8808,4.9892,5.0639,5.1132,5.1362,5.1401,5.1406,5.1394,5.1402,5.1394,5.1402,5.1404,5.1406,5.1406,5.1405,5.1402,5.1391,5.1398,5.1406,5.1406,5.1386,5.1356,5.13,5.1287,5.12,5.1037,5.0769,5.0527,5.0374,5.0259,5.0163,5.0063,5.0005,4.9925,4.9871,4.9807,4.975,4.975,4.9537,4.9476,4.9434,4.9308,4.9197,4.915,4.8996,4.882,4.8678,4.8476,4.8382,4.8229,4.7888,4.7597,4.732,4.6962,4.659,4.6186,4.5786,4.5389,4.5015,4.4614,4.4121,4.3687,4.3509,4.3007,4.2508,4.2302,4.1916,4.1604,4.139,4.0987,4.0662,4.0401,4.0051,3.9696,3.9481,3.9337,3.9177,3.9177,3.9017,3.8797,3.859,3.8295,3.7781,3.7111,3.6613,3.5946,3.519,3.5068,3.498,3.5059,3.5132,3.5189,3.5318,3.54,3.5236,3.4839,3.466,3.4327,3.4076,3.3654,3.3484,4.6196,4.6196,4.6196,4.6196,4.6196,4.6196,4.6196,4.6507,4.7021,4.7885,4.8743,4.9588,5.0472,5.1031,5.1369,5.1361,5.1386,5.1391,5.1406,5.139,5.1398,5.1408,5.1408,5.1394,5.14,5.1403,5.1406,5.1406,5.1398,5.1405,5.1405,5.139,5.1372,5.1349,5.1328,5.118,5.0913,5.0587,5.0333,5.0207,5.0063,4.9978,4.9898,4.9843,4.9778,4.9692,4.9615,4.9555,4.9495,4.9352,4.9289,4.9308,4.9146,4.9064,4.8996,4.8839,4.8642,4.8458,4.8324,4.8169,4.801,4.7681,4.7425,4.7098,4.6731,4.6332,4.5938,4.5529,4.5106,4.4686,4.4293,4.3831,4.3432,4.3129,4.2696,4.2302,4.198,4.1654,4.139,4.0987,4.0593,4.0261,4.0051,3.9681,3.9394,3.9265,3.9031,3.8811,3.8811,3.8738,3.8575,3.8306,3.8142,3.7846,3.72,3.6945,3.6448,3.5616,3.5599,3.5537,3.5297,3.5401,3.5464,3.5399,3.5318,3.5086,3.4756,3.441,3.416,3.3907,3.3556,3.3313,4.6196,4.6196,4.6196,4.6196,4.6196,4.6196,4.6196,4.687,4.7727,4.8604,4.9422,5.026,5.1137,5.1289,5.1303,5.131,5.1343,5.1394,5.1391,5.1406,5.141,5.141,5.141,5.139,5.1394,5.1408,5.1394,5.1394,5.1406,5.1404,5.1402,5.1391,5.1405,5.1382,5.1245,5.102,5.0742,5.0363,5.0114,5.0012,4.9843,4.9731,4.9731,4.9663,4.9604,4.9544,4.9415,4.9321,4.9276,4.9179,4.9146,4.9146,4.8943,4.8874,4.882,4.8623,4.8439,4.8267,4.8187,4.7947,4.7657,4.7529,4.7249,4.6888,4.6495,4.6087,4.5684,4.5283,4.4852,4.4423,4.4006,4.3618,4.3223,4.281,4.2366,4.198,4.1654,4.139,4.1055,4.0593,4.0207,3.9925,3.9768,3.9394,3.9104,3.9031,3.8738,3.8516,3.8441,3.8441,3.8292,3.7929,3.7853,3.7701,3.7303,3.7303,3.6859,3.5955,3.635,3.6235,3.5292,3.5705,3.5831,3.5399,3.5154,3.4921,3.4756,3.4243,3.3894,3.3713,3.3471,3.3142,4.6196,4.6196,4.6196,4.6196,4.6208,4.6193,4.6193,4.6839,4.7659,4.8535,4.9391,5.0247,5.1064,5.1267,5.1304,5.13,5.1303,5.1343,5.1394,5.14,5.14,5.14,5.14,5.1391,5.1394,5.1406,5.1396,5.1391,5.1396,5.1402,5.1404,5.1406,5.1367,5.1327,5.0773,5.0468,5.0468,4.9815,4.9502,4.9617,4.9518,4.9446,4.9402,4.9352,4.934,4.9262,4.9244,4.9211,4.9211,4.9012,4.8943,4.8943,4.875,4.866,4.8623,4.842,4.8344,4.8267,4.7907,4.7699,4.7511,4.7312,4.698,4.6637,4.6332,4.5887,4.5441,4.514,4.4703,4.4387,4.4494,4.3772,4.3046,4.3442,4.2606,4.1654,4.1588,4.1122,4.0593,4.0401,4.0051,3.9768,3.9681,3.9394,3.9031,3.887,3.8664,3.8441,3.8277,3.8277,3.8142,3.7944,3.7777,3.7534,3.7303,3.7148,3.6872,3.6568,3.6508,3.627,3.5922,3.5683,3.5399,3.5154,3.4921,3.4756,3.4481,3.3979,3.3725,3.3713,3.3313,3.2982,4.6208,4.6201,4.6181,4.6154,4.6158,4.6149,4.6149,4.7153,4.8195,4.8623,4.9732,5.0744,5.1133,5.122,5.1249,5.1248,5.1284,5.1308,5.1342,5.1356,5.1369,5.1394,5.1394,5.14,5.1396,5.1405,5.14,5.1394,5.1394,5.1411,5.1398,5.1367,5.1332,5.1294,5.0547,5.0152,5.0182,4.9432,4.9099,4.9206,4.916,4.9127,4.9094,4.9094,4.9046,4.8996,4.8996,4.8943,4.889,4.8785,4.875,4.875,4.8624,4.8513,4.842,4.8286,4.813,4.797,4.7783,4.7486,4.7205,4.698,4.6684,4.6429,4.6087,4.5684,4.5316,4.5329,4.498,4.4699,4.5007,4.4505,4.388,4.391,4.29,4.1857,4.1737,4.1047,4.0347,4.0207,3.991,3.9696,3.9553,3.9177,3.8943,3.8782,3.8575,3.8277,3.8202,3.8142,3.8005,3.7777,3.7534,3.738,3.7148,3.6915,3.6786,3.6563,3.6325,3.6152,3.5898,3.5562,3.5318,3.5086,3.4921,3.459,3.4243,3.3894,3.3641,3.3556,3.3056,3.2872,4.6185,4.6177,4.6177,4.6102,4.6093,4.6104,4.6104,4.7446,4.8682,4.8682,5.0024,5.119,5.119,5.1201,5.1201,5.1201,5.124,5.1287,5.1284,5.1281,5.1296,5.1349,5.1349,5.1356,5.1375,5.1375,5.1356,5.1375,5.1375,5.1356,5.1388,5.1316,5.1269,5.1258,5.0345,4.9867,4.9868,4.9173,4.8806,4.875,4.897,4.897,4.8804,4.882,4.8804,4.8751,4.8751,4.8697,4.8587,4.8587,4.8569,4.8514,4.8457,4.8324,4.8229,4.8148,4.7907,4.7675,4.7572,4.7312,4.6952,4.6637,4.6429,4.6235,4.5837,4.5545,4.5374,4.5523,4.5345,4.5164,4.5563,4.5179,4.454,4.407,4.311,4.2163,4.1968,4.1162,4.042,4.0208,3.9873,3.9553,3.9337,3.9031,3.8797,3.8723,3.8427,3.8202,3.8202,3.7991,3.7777,3.7625,3.738,3.7226,3.6978,3.6786,3.6642,3.6405,3.6246,3.5992,3.571,3.548,3.5236,3.5086,3.4839,3.4494,3.4076,3.381,3.3641,3.3398,3.2884,3.2846,4.6122,4.6122,4.6122,4.6093,4.6104,4.6105,4.6105,4.7407,4.861,4.861,4.999,5.1214,5.1214,5.1197,5.12,5.12,5.122,5.1211,5.122,5.122,5.1201,5.122,5.122,5.123,5.1295,5.1258,5.123,5.1295,5.1258,5.1237,5.131,5.1261,5.1181,5.1109,4.9983,4.9386,4.9453,4.9139,4.8707,4.8192,4.9174,4.925,4.8532,4.8605,4.8623,4.8623,4.8623,4.8587,4.8587,4.8513,4.8457,4.8306,4.8247,4.8148,4.7992,4.7824,4.7717,4.7615,4.7223,4.7043,4.6934,4.6381,4.6137,4.5938,4.558,4.5586,4.5705,4.5445,4.5567,4.5772,4.6012,4.5323,4.4305,4.3396,4.2996,4.2664,4.2318,4.1595,4.0906,4.0658,3.9959,3.9337,3.9177,3.8943,3.8723,3.859,3.8366,3.8202,3.8202,3.7839,3.7625,3.7625,3.738,3.7226,3.6978,3.6786,3.6642,3.6405,3.6246,3.5992,3.571,3.5318,3.5086,3.5086,3.466,3.4327,3.4076,3.381,3.3641,3.3398,3.2884,3.2846,4.6095,4.6095,4.6095,4.6056,4.6047,4.6173,4.6697,4.7736,4.8735,4.9217,5.0305,5.1146,5.114,5.1127,5.1132,5.1132,5.1178,5.121,5.121,5.1201,5.1211,5.1211,5.1211,5.1211,5.124,5.122,5.1211,5.1249,5.118,5.115,5.1191,5.1152,5.1117,5.1037,5.0136,4.9759,4.9937,4.9565,4.9325,4.9283,4.9368,4.9252,4.8922,4.8449,4.8249,4.8249,4.8249,4.8249,4.8249,4.819,4.8169,4.8111,4.809,4.797,4.7824,4.7741,4.7572,4.7356,4.7088,4.6842,4.659,4.6186,4.6201,4.6273,4.6025,4.5849,4.5747,4.6301,4.6337,4.6305,4.6548,4.5918,4.5096,4.4523,4.392,4.3333,4.295,4.2208,4.1395,4.0825,4.0319,3.9873,3.9324,3.9017,3.8782,3.8723,3.8427,3.8202,3.8202,3.7839,3.7625,3.7625,3.7303,3.707,3.6978,3.6693,3.6484,3.6405,3.6058,3.5804,3.571,3.5318,3.5086,3.5086,3.466,3.423,3.3894,3.3713,3.3556,3.324,3.2723,3.2943,4.6076,4.6066,4.6066,4.6007,4.5997,4.6238,4.7112,4.7955,4.8798,4.9627,5.05,5.1089,5.1101,5.1095,5.1102,5.1102,5.1139,5.1175,5.1167,5.1159,5.118,5.12,5.12,5.12,5.12,5.118,5.1169,5.1178,5.1144,5.1088,5.1056,5.1043,5.1023,5.0975,5.0263,5.0,5.0206,4.9988,4.9899,4.9956,4.964,4.9367,4.9136,4.8375,4.7992,4.7992,4.7992,4.7992,4.7992,4.7992,4.801,4.797,4.7929,4.7806,4.7615,4.7572,4.7356,4.7133,4.6934,4.6637,4.6284,4.5988,4.6152,4.6416,4.64,4.6282,4.6338,4.6891,4.683,4.6633,4.6678,4.6207,4.5515,4.5294,4.4623,4.3969,4.3578,4.2909,4.2076,4.1354,4.074,4.0247,3.971,3.915,3.8797,3.8723,3.8427,3.8202,3.8202,3.7915,3.7701,3.7625,3.7303,3.707,3.6978,3.6615,3.6405,3.6405,3.5978,3.5629,3.5642,3.5318,3.5086,3.5003,3.4577,3.4147,3.3713,3.3713,3.3471,3.2995,3.2723,3.3122,4.5997,4.5997,4.5997,4.5997,4.5994,4.6224,4.7098,4.7927,4.8755,4.9627,5.05,5.1101,5.1101,5.1101,5.1101,5.1101,5.1101,5.1095,5.1095,5.1095,5.1127,5.1202,5.1202,5.1202,5.1202,5.1139,5.1102,5.1101,5.1101,5.1067,5.0986,5.0941,5.0909,5.0899,5.0258,4.9934,4.9993,5.0342,5.0229,4.9711,4.9956,4.9735,4.9065,4.8334,4.7992,4.7992,4.7992,4.7992,4.7992,4.7992,4.7947,4.7902,4.7759,4.7615,4.7468,4.7267,4.7133,4.6934,4.6684,4.6429,4.6137,4.5735,4.5906,4.6353,4.6615,4.7123,4.7485,4.7018,4.6731,4.6582,4.6333,4.5776,4.522,4.522,4.4889,4.4496,4.405,4.3441,4.2895,4.2496,4.1294,4.0308,4.0144,3.9373,3.8723,3.8516,3.8366,3.8202,3.8202,3.7991,3.7853,3.7625,3.738,3.7226,3.6978,3.6615,3.6405,3.6405,3.5978,3.5642,3.5399,3.5236,3.5003,3.4839,3.4577,3.4147,3.3713,3.3713,3.3386,3.2723,3.303,3.3411,4.5994,4.5994,4.5983,4.5941,4.5929,4.6162,4.7023,4.7882,4.8722,4.9561,5.0419,5.102,5.0971,5.1005,5.102,5.102,5.1067,5.1101,5.1095,5.1095,5.1095,5.1127,5.1127,5.1127,5.1127,5.1108,5.1095,5.1101,5.1053,5.1005,5.0941,5.0909,5.088,5.0827,5.0579,5.0293,4.9993,5.0736,5.0572,4.9554,4.9757,4.9496,4.8815,4.8001,4.7723,4.7783,4.7783,4.7783,4.7783,4.7783,4.7741,4.7615,4.7572,4.7425,4.7267,4.7133,4.698,4.6795,4.6447,4.6186,4.6075,4.6204,4.6519,4.6954,4.7216,4.7379,4.7433,4.7161,4.6783,4.6333,4.6223,4.5646,4.522,4.522,4.4889,4.4511,4.4065,4.3821,4.3455,4.2602,4.2028,4.1459,4.0472,3.9847,3.9327,3.8797,3.8427,3.8202,3.8202,3.7991,3.7853,3.7625,3.738,3.7226,3.6978,3.6615,3.6405,3.6405,3.5978,3.5629,3.5642,3.5318,3.5086,3.5003,3.4577,3.4147,3.3713,3.3713,3.3503,3.3042,3.3313,3.3579,4.596,4.596,4.5949,4.5917,4.5905,4.6125,4.6997,4.7856,4.8701,4.9538,5.0371,5.0956,5.0906,5.0921,5.0956,5.0956,5.1005,5.102,5.1053,5.1053,5.1067,5.1101,5.1101,5.1087,5.1053,5.1053,5.1053,5.1044,5.0995,5.0925,5.0877,5.0827,5.0812,5.0756,5.072,5.0474,5.0007,5.0574,5.0393,4.9489,4.9295,4.8992,4.8578,4.7767,4.7511,4.7615,4.7554,4.7572,0.0,4.7554,4.7511,4.7407,4.7381,4.7312,4.7196,4.698,4.6842,4.6684,4.6332,4.6087,4.5976,4.6339,4.6789,4.731,4.7642,4.7625,4.7404,4.7188,4.6684,4.6278,4.6096,4.5662,4.522,4.522,4.4889,4.4511,4.4205,4.4065,4.3789,4.3055,4.2614,4.2013,4.095,4.0338,3.9638,3.8885,3.8501,3.8277,3.8202,3.8066,3.7915,3.7625,3.7457,3.7303,3.6978,3.6693,3.6484,3.6405,3.6058,3.5804,3.5562,3.5236,3.5086,3.5003,3.4564,3.4147,3.3713,3.3601,3.3483,3.3519,3.3679,3.3755,0.0,4.5905,4.5905,4.5886,4.5899,4.6106,4.6919,4.7763,0.0,4.9436,5.0306,5.0906,5.0906,5.0906,5.0906,5.0906,5.0906,5.0921,5.0971,5.0986,5.102,5.1087,5.1087,5.1053,5.1005,5.099,5.096,5.0899,5.0899,5.0863,5.0793,5.072,5.0701,5.0701,5.0702,5.0447,4.993,4.9974,4.9784,4.931,4.8629,4.8335,4.8398,4.7643,4.7363,4.7468,4.7363,4.7363,4.7468,4.7363,4.732,4.7276,4.7223,4.7196,4.7133,4.6888,4.6684,4.6525,4.6235,4.604,4.5892,4.6278,4.6903,4.755,4.7867,4.7737,4.7403,4.703,4.6615,4.6278,4.6096,4.5662,4.522,4.522,4.4889,4.4572,4.4358,4.4127,4.391,4.3769,4.3022,4.2222,4.1564,4.074,3.9847,3.9033,3.8679,3.8441,3.8277,3.8202,3.8052,3.7687,3.7625,3.7457,3.707,3.685,3.6642,3.6405,3.6246,3.5912,3.548,3.5236,3.5003,3.4839,3.4494,3.416,3.3777,3.337,3.3506,3.4084,3.4002,3.4042,4.5808,0.0,4.5887,4.5841,4.5827,4.5872,0.0,4.7323,4.8469,4.8662,4.9881,5.0906,5.0906,5.0906,5.0906,5.0906,5.0906,5.0906,5.0921,5.0921,5.0941,5.0941,5.0945,5.0948,5.0932,5.088,5.0844,5.081,5.081,5.0793,5.072,5.0701,5.0702,5.0702,5.0644,5.013,4.9084,4.9697,4.9194,4.7579,4.8007,4.7992,4.7492,4.7313,4.7249,4.7363,4.7302,4.7302,4.7345,4.7302,4.7276,4.7223,4.7196,4.7088,4.6888,4.6684,4.6495,4.6253,4.6005,4.61,4.6493,4.7231,4.7865,4.8202,4.7852,4.7654,4.7403,4.6807,4.6458,4.6207,4.5952,4.5515,4.522,4.522,4.4889,4.4572,4.4358,4.4127,4.391,4.3769,4.3382,4.2895,4.2237,4.1441,4.0634,3.9862,3.9047,3.8441,3.8441,3.8277,3.8127,3.7853,3.7701,3.7457,3.7226,3.6929,3.6642,3.6405,3.6246,3.5992,3.5642,3.5318,3.5086,3.5003,3.423,3.4028,3.4392,3.357,3.3691,3.4625,3.4171,3.4042,4.58,4.5833,4.5847,4.5814,4.58,4.58,4.58,4.7154,4.8392,4.8392,4.9726,5.089,5.0893,5.0893,5.0893,5.0861,5.0841,5.0841,5.0841,5.0841,5.0841,5.0841,5.0844,5.0846,5.0846,5.081,5.0793,5.0757,5.0738,5.0739,5.0683,5.0702,5.0683,5.0643,5.0623,5.0157,4.9226,4.9332,4.8731,4.7351,4.7551,4.7454,4.7088,4.7088,4.7178,4.7249,4.7187,4.7205,4.7249,4.7205,4.716,4.7088,4.7043,4.6934,4.6795,4.659,4.6398,4.6137,4.5922,4.6237,4.6918,4.7573,4.8085,4.842,4.7787,4.7537,4.7335,4.6684,4.6404,4.6191,4.588,4.5515,4.522,4.522,4.4889,4.4572,4.4435,4.4281,4.4065,4.391,4.3675,4.3214,4.2554,4.1995,4.1352,4.0218,3.9624,3.9076,3.8559,3.8366,3.8217,3.7929,3.7777,3.7625,3.7303,3.7084,3.6786,3.6391,3.6325,3.6072,3.571,3.5318,3.499,3.4825,3.4322,3.4276,3.4597,3.4143,3.4244,3.4821,3.4485,3.428,4.5786,4.5786,4.5786,4.58,4.58,4.58,4.58,4.7038,4.8237,4.8372,4.9614,5.0739,5.0861,5.0863,5.0863,5.081,5.0793,5.0793,5.0793,5.0793,5.0793,5.0793,5.0793,5.0793,5.0793,5.0775,5.0757,5.0701,5.0702,5.0683,5.0683,5.0683,5.0643,5.0603,5.0582,5.032,4.9815,4.9067,4.839,4.7806,4.7256,4.6998,4.6998,4.6998,4.7043,4.7133,4.7043,4.7043,4.7133,4.7043,4.6998,4.6934,4.6842,4.6778,4.6684,4.6447,4.6284,4.6122,4.603,4.6525,4.7237,4.7629,4.809,4.8356,4.7721,4.7486,4.7335,4.6561,4.6262,4.6191,4.588,4.5515,4.522,4.522,4.4889,4.4572,4.4572,4.4435,4.4281,4.405,4.3832,4.3509,4.2704,4.2509,4.1983,4.062,4.0278,3.9728,3.881,3.8574,3.8366,3.8005,3.7929,3.7777,3.738,3.7303,3.7084,3.647,3.6405,3.6152,3.5642,3.5318,3.4948,3.4528,3.4611,3.4686,3.4853,3.4815,3.4858,3.4944,3.4824,3.4543,4.5731,4.5731,4.5727,4.5786,4.58,4.58,4.58,4.6573,4.7502,4.8172,4.9119,5.0011,5.0675,5.0829,5.081,5.0793,5.0793,5.0793,5.0793,5.0793,5.0793,5.0793,5.0757,5.072,5.072,5.0721,5.0702,5.0702,5.0702,5.0702,5.0702,5.0643,5.0603,5.0603,5.0478,5.0385,5.0298,4.9232,4.839,4.7806,4.7256,4.6998,4.6998,4.6998,4.6998,4.7043,4.6998,4.6998,4.7043,4.6998,4.6934,4.6842,4.6795,4.6637,4.6429,4.6284,4.6055,4.5943,4.6708,4.7085,4.7323,4.8113,4.8446,4.8356,4.7721,4.7486,4.7335,4.6561,4.6262,4.6191,4.588,4.5515,4.522,4.522,4.4889,4.4572,4.4572,4.4435,4.4281,4.4281,4.3988,4.366,4.3539,4.2902,4.2297,4.2087,4.0949,3.9965,3.9666,3.8942,3.8441,3.8217,3.7991,3.7777,3.7548,3.738,3.7162,3.6707,3.6484,3.6072,3.5249,3.5168,3.516,3.5155,3.4818,3.5058,3.6019,3.5189,3.5043,3.5498,3.4981,3.4543,4.57,4.57,4.5715,4.5727,4.5742,4.5742,4.5742,4.6418,4.7287,4.8125,4.8955,4.9787,5.0583,5.0757,5.0757,5.074,5.074,5.074,5.074,5.074,5.074,5.074,5.0721,5.0702,5.0702,5.0702,5.0702,5.0702,5.0682,5.0643,5.0643,5.0582,5.0521,5.0478,5.0435,5.039,5.0348,4.9258,4.8551,4.8279,4.7408,4.6998,4.6998,4.6998,4.6998,4.6998,4.6998,4.6998,4.698,4.6934,4.6842,4.6795,4.6637,4.6495,4.6398,4.6105,4.5803,4.5718,4.6799,4.7158,4.724,4.8186,4.8483,4.8356,4.7721,4.7486,4.7335,4.6684,4.6404,4.6191,4.588,4.5589,4.5368,4.522,4.498,4.4723,4.4648,4.4511,4.4435,4.4358,4.4127,4.3988,4.3769,4.3356,4.2932,4.2494,4.1771,4.1039,4.0099,3.9534,3.8986,3.8396,3.8217,3.7915,3.7625,3.7534,3.724,3.6563,3.6325,3.5912,3.5168,3.5379,3.5434,3.5299,3.5463,3.575,3.6275,3.5563,3.5375,3.562,3.503,3.4543,4.5684,4.5684,4.5684,4.5684,4.5684,4.57,4.57,4.6221,4.6992,4.8056,4.8769,4.9485,5.0528,5.0702,5.0683,5.0702,5.0702,5.0702,5.0702,5.0702,5.0702,5.0702,5.0702,5.0683,5.0663,5.0682,5.0663,5.0643,5.0603,5.0582,5.0582,5.05,5.0457,5.0412,5.0371,5.0287,5.0106,4.9178,4.8696,4.8685,4.7562,4.6998,4.6998,4.6998,4.6998,4.6998,4.6998,4.6998,4.6998,4.6842,4.6795,4.6731,4.6495,4.6332,4.6204,4.5922,4.5719,4.5731,4.6811,4.7237,4.7361,4.8253,4.8483,4.8356,4.7721,4.7486,4.7403,4.6738,4.6458,4.6207,4.5952,4.5662,4.5442,4.5294,4.5039,4.4874,4.4723,4.4648,4.4572,4.4435,4.4358,4.4205,4.391,4.3769,4.3509,4.2827,4.2539,4.1998,4.0754,4.0275,3.9784,3.8808,3.8585,3.8225,3.7625,3.7676,3.7452,3.6692,3.6452,3.6116,3.545,3.5845,3.5976,3.5791,3.6109,3.6339,3.6468,3.5874,3.562,3.562,3.503,3.4543,4.5603,4.5603,4.5603,4.5603,4.5651,4.57,4.57,4.5738,4.6259,4.7868,4.8255,4.8776,5.0394,5.0702,5.0702,5.0702,5.0702,5.0702,5.0702,5.0702,5.0702,5.0702,5.0702,5.0682,5.0603,5.0603,5.0582,5.0521,5.0521,5.05,5.05,5.0457,5.0412,5.0412,5.0325,5.0084,4.9547,4.8991,4.8696,4.8685,4.7562,4.6998,4.6998,4.6998,4.6998,4.6998,4.6998,4.6998,4.6998,4.6842,4.6749,4.659,4.6447,4.6154,4.5821,4.5821,4.596,4.6361,4.6999,4.7578,4.8056,4.8421,4.8483,4.8356,4.7721,4.7486,4.7403,4.6738,4.6458,4.6278,4.6096,4.5807,4.5515,4.5515,4.5188,4.4874,4.4874,4.4723,4.4587,4.4587,4.4435,4.4281,4.4281,4.391,4.3675,4.363,4.2917,4.2249,4.2019,4.1406,4.0615,3.9557,3.9408,3.8946,3.7667,3.7905,3.7929,3.7234,3.7234,3.6893,3.6206,3.6529,3.6944,3.725,3.6599,3.6532,3.7044,3.6061,3.562,3.562,3.503,3.4543,4.5451,4.5586,4.5586,4.5586,4.562,4.5637,4.5637,4.5637,4.5965,4.716,4.7777,4.8663,5.0375,5.0702,5.0702,5.0702,5.0682,5.0643,5.0643,5.0603,5.0582,5.0582,5.0582,5.0582,5.0542,5.0542,5.0521,5.05,5.0457,5.0435,5.0435,5.0371,5.0325,5.0325,5.0302,5.0044,4.951,4.8962,4.8522,4.8127,4.7387,4.6998,4.6998,4.6998,4.6998,4.6998,4.6998,4.6934,4.6888,4.6731,4.659,4.6447,4.6253,4.6023,4.577,4.5736,4.5889,4.6264,4.6959,4.7554,4.802,4.8375,4.8483,4.8356,4.7721,4.7486,4.7403,4.6945,4.6668,4.6404,4.6168,4.588,4.5662,4.5515,4.5352,4.5188,4.4949,4.4874,4.4723,4.4648,4.4511,4.4435,4.4358,4.4205,4.3988,4.3769,4.3386,4.2992,4.2354,4.193,4.1374,4.0386,3.9926,3.9434,3.8796,3.8771,3.851,3.7855,3.7855,3.7523,3.6851,3.7157,3.7321,3.7382,3.6988,3.6903,3.7108,3.6086,3.562,3.562,3.4932,3.4347,4.5012,4.5339,4.5531,4.5568,4.5568,4.5568,4.5568,4.5586,4.5836,4.6721,4.7759,4.8952,5.0394,5.0663,5.0663,5.0643,5.0603,5.0582,5.0582,5.0521,5.05,5.05,5.05,5.05,5.0478,5.0478,5.0457,5.0457,5.0393,5.0367,5.0367,5.0325,5.0302,5.0302,5.0144,4.9795,4.9257,4.8699,4.8124,4.7537,4.7168,4.6998,4.6998,4.6998,4.6998,4.6998,4.6952,4.6888,4.6795,4.659,4.6447,4.6301,4.6073,4.5922,4.5804,4.5962,4.6161,4.6584,4.7335,4.7852,4.8281,4.8442,4.8483,4.8356,4.7721,4.7537,4.7403,4.7098,4.6807,4.6528,4.6223,4.6024,4.5807,4.5662,4.5515,4.5426,4.5114,4.4964,4.4874,4.4723,4.4648,4.4587,4.4435,4.4358,4.4205,4.3847,4.3769,4.3431,4.2809,4.2593,4.2119,4.1218,4.0406,3.9801,3.9482,3.952,3.9224,3.8574,3.8656,3.843,3.7655,3.7872,3.7927,3.7748,3.7298,3.7108,3.7108,3.6086,3.562,3.562,3.4726,3.4331,4.4192,4.4787,4.5419,4.5495,4.5495,4.5495,4.5495,4.555,4.5855,4.674,4.824,4.9644,5.0449,5.0603,5.0582,5.0521,5.05,5.05,5.05,5.05,5.05,5.05,5.05,5.0478,5.0412,5.0412,5.0371,5.0302,5.0302,5.0302,5.0302,5.0302,5.0302,5.0302,4.9788,4.9238,4.8708,4.8102,4.7522,4.6998,4.6998,4.6998,4.6998,4.6998,4.6998,4.698,4.6842,4.6795,4.6795,4.6495,4.6301,4.6189,4.6023,4.5922,4.5874,4.6569,4.699,4.7335,4.8121,4.8694,4.894,4.861,4.8483,4.842,4.7836,4.7588,4.747,4.7251,4.6876,4.6598,4.6333,4.6223,4.6024,4.5823,4.5662,4.5515,4.5515,4.5204,4.4874,4.4874,4.4723,4.4572,4.4572,4.4435,4.4205,4.4065,4.3832,4.3596,4.3329,4.3329,4.2932,4.1804,4.0748,3.996,3.9576,4.0067,4.0011,3.9197,3.9664,3.9559,3.845,3.855,3.8602,3.8602,3.7572,3.7108,3.7108,3.6086,3.562,3.562,3.4738,3.4521,4.4039,4.4787,4.54,4.5419,4.5419,4.5419,4.5419,4.5495,4.5936,4.7377,4.8087,4.8835,5.0253,5.0521,5.0521,5.05,5.0457,5.0435,5.0435,5.0371,5.0348,5.0348,5.0348,5.0348,5.0325,5.0325,5.0325,5.0302,5.0302,5.0302,5.0302,5.0302,5.0302,5.0302,4.9788,4.9238,4.8708,4.8102,4.7522,4.6998,4.6998,4.6998,4.6998,4.6998,4.6998,4.698,4.6842,4.6749,4.6637,4.635,4.6221,4.6172,4.5922,4.6169,4.6639,4.6688,4.7241,4.807,4.8309,4.8694,4.894,4.861,4.8483,4.842,4.7836,4.7588,4.747,4.7251,4.703,4.6738,4.6598,4.6404,4.6152,4.588,4.5735,4.5662,4.5515,4.5294,4.5055,4.4949,4.4723,4.4572,4.4572,4.4587,4.4435,4.4205,4.4065,4.3738,4.3329,4.301,4.2776,4.2423,4.1843,4.1334,4.0824,4.0996,4.0675,3.982,3.9899,3.9752,3.9047,3.8778,3.8602,3.8602,3.7572,3.7108,3.7108,3.6086,3.562,3.5633,3.5011,3.4763,4.3408,4.4231,4.492,4.5304,4.54,4.54,4.54,4.5438,4.5841,4.7183,4.7758,4.841,4.9712,5.0227,5.0457,5.0416,5.039,5.0348,5.0348,5.0325,5.0302,5.0302,5.0302,5.0302,5.0302,5.0302,5.0302,5.0302,5.0302,5.0302,5.0302,5.0302,5.0193,4.9994,4.9455,4.8919,4.8352,4.7765,4.7327,4.6998,4.6998,4.6998,4.6998,4.6998,4.698,4.6888,4.6731,4.6542,4.6416,4.627,4.6172,4.6073,4.5871,4.6256,4.6951,4.6995,4.7597,4.8429,4.8719,4.8933,4.894,4.861,4.8483,4.842,4.7984,4.7671,4.747,4.7335,4.7115,4.6876,4.6652,4.6458,4.6207,4.5952,4.588,4.5735,4.5662,4.5442,4.5294,4.5055,4.4889,4.4723,4.4572,4.4572,4.4496,4.4358,4.4065,4.3754,4.3329,4.293,4.2688,4.2688,4.2325,4.1926,4.1396,4.1396,4.0958,4.0083,3.9996,3.9733,3.9189,3.8769,3.8512,3.833,3.7492,3.7015,3.6909,3.6086,3.5731,3.5952,3.5163,3.5039,4.2545,4.3366,4.4227,4.5148,4.5359,4.5359,4.5359,4.5361,4.563,4.6492,4.7374,4.8217,4.8958,4.9797,5.0367,5.0302,5.0302,5.0278,5.0278,5.0278,5.0278,5.0278,5.0278,5.0278,5.0302,5.0302,5.0302,5.0302,5.0302,5.0302,5.0302,5.0259,4.9999,4.9523,4.8925,4.8351,4.7815,4.7259,4.6998,4.6998,4.6998,4.6998,4.6998,4.6998,4.6934,4.6795,4.6495,4.6301,4.6172,4.6172,4.6122,4.5972,4.5908,4.6326,4.6948,4.76,4.8077,4.8582,4.9248,4.9307,4.894,4.861,4.8483,4.842,4.8131,4.7737,4.7554,4.747,4.7251,4.6876,4.6652,4.6458,4.6262,4.6168,4.5968,4.5807,4.5807,4.5662,4.5442,4.522,4.5039,4.4799,4.4648,4.4572,4.4511,4.4281,4.3988,4.3596,4.3329,4.293,4.2688,4.2688,4.231,4.1912,4.1396,4.1396,4.0958,4.0083,3.9996,3.9645,3.8908,3.8679,3.8421,3.7939,3.7387,3.6922,3.6722,3.5978,3.5891,3.6321,3.5365,3.5427,4.2423,4.3262,4.4119,4.496,4.517,4.517,4.517,4.5151,4.5442,4.635,4.725,4.8089,4.893,4.9771,5.0302,5.0212,5.0212,5.0188,5.0158,5.0133,5.0133,5.0133,5.0133,5.0158,5.0231,5.0212,5.0236,5.0302,5.0302,5.0302,5.0302,4.9892,4.9623,4.951,4.8526,4.7934,4.7787,4.7259,4.6998,4.6998,4.6998,4.6998,4.6998,4.6998,4.6888,4.6637,4.6495,4.6301,4.6172,4.6172,4.6122,4.6042,4.6568,4.7125,4.7726,4.8359,4.8833,4.9266,4.9419,4.9307,4.894,4.861,4.8483,4.842,4.8131,4.7853,4.7654,4.7537,4.7319,4.7098,4.6892,4.6668,4.6458,4.6278,4.6008,4.5807,4.5807,4.5662,4.5442,4.522,4.5039,4.4799,4.4648,4.4572,4.4511,4.4127,4.3988,4.3738,4.3329,4.293,4.2688,4.2688,4.2117,4.1717,4.1396,4.1043,4.0616,3.9996,3.9645,3.9216,3.8679,3.8602,3.8421,3.7939,3.7387,3.6922,3.6452,3.5895,3.5697,3.5728,3.5556,3.5468,4.1791,4.2629,4.3561,4.4779,4.5103,4.5103,4.5103,4.5103,4.5239,4.5745,4.6832,4.7842,4.83,4.9368,5.0207,5.0158,5.0158,5.0158,5.0108,5.0108,5.0108,5.0108,5.0108,5.0108,5.0158,5.0158,5.0182,5.0207,5.0231,5.0155,4.9888,4.9635,4.9256,4.8711,4.8108,4.7666,4.7408,4.7132,4.6998,4.6998,4.6998,4.6998,4.6888,4.6842,4.6684,4.6495,4.635,4.6253,4.6172,4.6172,4.63,4.6481,4.6847,4.754,4.8342,4.8683,4.9073,4.9488,4.9488,4.9307,4.894,4.869,4.8564,4.842,4.8179,4.7919,4.7638,4.7537,4.7335,4.7167,4.6961,4.6738,4.6528,4.6333,4.6152,4.588,4.5807,4.5735,4.5589,4.5294,4.5129,4.4964,4.4663,4.4511,4.4358,4.4065,4.391,4.3675,4.325,4.293,4.2688,4.2541,4.2034,4.1619,4.1396,4.0958,4.053,3.9996,3.9557,3.9127,3.8602,3.8408,3.8044,3.7479,3.7015,3.6546,3.6181,3.5963,3.588,3.6014,3.5951,3.5946,4.1102,4.2034,4.3137,4.4634,4.5014,4.5014,4.5014,4.5014,4.5014,4.5014,4.6297,4.7443,4.7577,4.8871,4.9936,5.0063,5.0082,5.0082,5.0082,5.0057,5.0057,5.0057,5.0057,5.0082,5.0082,5.0082,5.0082,5.0108,5.0096,4.9886,4.941,4.9299,4.8805,4.7834,4.7702,4.7462,4.7025,4.6998,4.6998,4.6998,4.6998,4.6934,4.6731,4.6637,4.6542,4.6381,4.627,4.6172,4.6239,4.6379,4.6617,4.7056,4.73,4.7954,4.8838,4.8976,4.9234,4.9547,4.9488,4.9307,4.9001,4.8832,4.8627,4.8483,4.8292,4.7968,4.7721,4.7604,4.7403,4.7183,4.703,4.6807,4.6598,4.6333,4.6223,4.6096,4.588,4.5807,4.5662,4.5294,4.5145,4.498,4.4663,4.4435,4.4205,4.4065,4.3754,4.3503,4.3076,4.2754,4.2541,4.2392,4.1966,4.1535,4.1311,4.0873,4.0343,3.9908,3.9482,3.8948,3.8512,3.8044,3.7492,3.7015,3.664,3.6275,3.592,3.5966,3.6094,3.6219,3.6249,3.6235,4.0816,4.2176,4.3593,4.4518,4.4745,4.4745,4.4745,4.4745,4.4745,4.4745,4.5721,4.6777,4.7481,4.8395,4.9264,4.9917,5.0005,5.0005,4.9933,4.9925,4.9925,4.9925,4.9925,4.9952,5.0005,5.0005,5.0031,5.0108,4.985,4.9605,4.9406,4.8631,4.808,4.7815,4.7349,4.7052,4.698,4.6998,4.6998,4.6998,4.6998,4.6888,4.6637,4.659,4.6542,4.6381,4.627,4.6172,4.6274,4.6958,4.7157,4.7143,4.8466,4.8927,4.8907,4.9597,4.9774,4.9649,4.9547,4.935,4.9107,4.8894,4.8627,4.8483,4.8292,4.8115,4.7935,4.7721,4.7588,4.7403,4.7183,4.703,4.6754,4.6404,4.6278,4.6207,4.588,4.5807,4.5662,4.5294,4.4905,4.4663,4.4572,4.4435,4.4205,4.4065,4.366,4.325,4.3076,4.2688,4.231,4.2049,4.1731,4.1213,4.0873,4.0343,3.9908,3.9394,3.8948,3.8498,3.8031,3.7479,3.7015,3.6546,3.6452,3.6181,3.562,3.566,3.5705,3.5742,3.5607,3.558,4.0769,4.1863,4.2957,4.3806,4.4372,4.4712,4.4712,4.4712,4.4712,4.4712,4.5117,4.5836,4.7143,4.8124,4.8996,4.9765,4.9925,4.9933,4.9906,4.9898,4.9898,4.9898,4.9898,4.9906,4.9952,4.9933,4.9887,4.9712,4.9598,4.9263,4.858,4.8187,4.7803,4.7351,4.7144,4.6998,4.6998,4.6998,4.6998,4.6998,4.6998,4.6842,4.659,4.659,4.6495,4.6253,4.6221,4.6484,4.6906,4.7239,4.7821,4.8468,4.9077,4.9434,4.9625,4.9873,4.986,4.9708,4.9547,4.935,4.9168,4.894,4.8832,4.8627,4.842,4.8227,4.8049,4.777,4.7588,4.747,4.7251,4.703,4.6823,4.6404,4.6262,4.6207,4.588,4.5807,4.5662,4.5294,4.4905,4.4572,4.4435,4.4281,4.4065,4.3832,4.3409,4.3076,4.2835,4.2444,4.2131,4.1868,4.1381,4.0958,4.0702,3.9996,3.9571,3.9305,3.8589,3.8044,3.7677,3.7015,3.6452,3.5966,3.5978,3.5704,3.5126,3.5553,3.5573,3.5109,3.5684,3.5516,4.0672,4.1349,4.2046,4.31,4.3815,4.4323,4.4549,4.4605,4.4605,4.4632,4.4613,4.5065,4.6543,4.7588,4.8493,4.9306,4.9683,4.9843,4.9843,4.9871,4.9871,4.9871,4.9898,4.9898,4.9898,4.982,4.9663,4.942,4.9263,4.8826,4.796,4.7838,4.7554,4.7007,4.6998,4.6998,4.6998,4.6998,4.6998,4.6998,4.6998,4.6842,4.659,4.659,4.657,4.652,4.652,4.6853,4.7415,4.7819,4.8557,4.9536,4.9565,4.9799,5.0189,5.0051,4.9935,4.9784,4.9607,4.9411,4.9229,4.9124,4.8956,4.8769,4.8547,4.8356,4.8163,4.7853,4.7654,4.7486,4.7335,4.7098,4.6823,4.6404,4.6262,4.6207,4.588,4.5735,4.5589,4.5294,4.4814,4.4511,4.4358,4.4065,4.3832,4.3596,4.317,4.2835,4.2526,4.2199,4.1785,4.1451,4.1029,4.0616,4.0343,3.9645,3.9114,3.8935,3.8122,3.7572,3.7214,3.6546,3.5966,3.5391,3.5211,3.503,3.464,3.5277,3.5282,3.4587,3.5483,3.54,4.0408,4.0651,4.1062,4.2632,4.3044,4.3287,4.4128,4.4314,4.4344,4.4383,4.4411,4.4702,4.5604,4.6591,4.755,4.8334,4.9164,4.9721,4.9721,4.9778,4.9807,4.9807,4.9871,4.9898,4.9898,4.9616,4.942,4.9401,4.8768,4.8229,4.7912,4.7537,4.7248,4.698,4.6998,4.6998,4.6998,4.6998,4.6998,4.6998,4.6998,4.6842,4.659,4.659,4.6852,4.7327,4.7327,4.7345,4.7503,4.896,4.9574,4.9588,5.0122,5.0268,5.0189,5.0051,5.0011,4.9935,4.9784,4.959,4.9488,4.9229,4.9001,4.8769,4.8547,4.8356,4.8163,4.8001,4.7737,4.7486,4.7486,4.7183,4.6823,4.6404,4.6262,4.6207,4.588,4.5515,4.522,4.522,4.4739,4.4281,4.4281,4.3988,4.3596,4.3344,4.301,4.2526,4.2117,4.1868,4.1451,4.0787,4.0702,4.0343,3.9482,3.91,3.8652,3.8031,3.7479,3.6922,3.6465,3.5966,3.5391,3.4823,3.4335,3.404,3.404,3.4576,3.4657,3.4377,3.4504,3.4524,3.9746,4.0195,4.0736,4.1315,4.223,4.3071,4.337,4.3893,4.4314,4.4344,4.4344,4.4418,4.4747,4.6083,4.741,4.8192,4.9097,4.9692,4.9692,4.9721,4.975,4.9807,4.9835,4.9777,4.9611,4.9465,4.9208,4.8735,4.8451,4.8051,4.7537,4.7397,4.7187,4.6998,4.6998,4.6998,4.6998,4.6998,4.6998,4.6998,4.6998,4.6842,4.6607,4.7121,4.7382,4.745,4.8433,4.8872,4.8907,4.9451,4.9995,5.0396,5.0515,5.0453,5.0302,5.0206,5.0051,4.9935,4.9784,4.959,4.9488,4.929,4.9063,4.8894,4.8769,4.8564,4.8356,4.8179,4.7787,4.7486,4.7486,4.7183,4.6823,4.6404,4.6136,4.5936,4.5662,4.5368,4.5145,4.5039,4.4663,4.4281,4.4143,4.3738,4.3344,4.3155,4.2607,4.2199,4.2049,4.1451,4.0944,4.0488,4.0083,3.9571,3.8859,3.8485,3.8018,3.7387,3.6922,3.6358,3.5704,3.5102,3.4531,3.3866,3.3235,3.3135,3.3568,3.3652,3.3619,3.352,3.3508,3.3418,3.9239,3.963,4.0095,4.0375,4.1231,4.2162,4.2739,4.3327,4.386,4.4121,4.4226,4.4255,4.4285,4.5536,4.6853,4.768,4.8614,4.9284,4.9585,4.9653,4.9626,4.9572,4.9564,4.9485,4.922,4.9101,4.8822,4.8357,4.8155,4.7856,4.7335,4.7302,4.7187,4.6998,4.6998,4.6998,4.6998,4.6998,4.6998,4.6998,4.6998,4.6984,4.7015,4.7563,4.7929,4.8222,4.924,4.9679,4.9697,4.9978,5.0399,5.0891,5.0675,5.0492,5.0397,5.0246,5.0092,5.0011,4.986,4.9725,4.9547,4.935,4.9168,4.9063,4.8832,4.8627,4.8483,4.8227,4.7853,4.7486,4.7486,4.7115,4.6615,4.6333,4.6008,4.5662,4.5442,4.5294,4.5129,4.4874,4.4511,4.4127,4.3817,4.3409,4.309,4.2754,4.2199,4.1785,4.1619,4.0944,4.0343,3.9968,3.9469,3.8859,3.8239,3.7756,3.7188,3.6628,3.6156,3.55,3.4835,3.4347,3.3755,3.2958,3.2432,3.2229,3.2454,3.2524,3.2601,3.2556,3.2568,3.2353,0.0,0.0,0.0,3.9871,4.0074,4.0517,4.2174,4.2625,4.2928,4.3769,4.4085,4.4214,4.4285,4.4939,4.5772,4.6693,4.7609,4.8495,4.934,4.9537,4.948,4.9143,4.9165,4.9098,4.8808,4.8488,4.8308,4.8283,4.7921,4.7572,4.7302,4.7302,4.7187,4.6998,4.6998,4.6998,4.6998,4.6998,4.6998,4.6998,4.7015,4.7304,4.7811,4.7847,4.8529,4.9697,4.9714,4.9732,4.9785,5.0575,5.0891,5.0891,5.0675,5.0547,5.0415,5.0246,5.0092,5.0011,5.0011,4.986,4.9708,4.953,4.935,4.9168,4.8894,4.8627,4.8483,4.8292,4.7853,4.7486,4.747,4.6909,4.6262,4.6262,4.5848,4.5442,4.522,4.522,4.507,4.4663,4.4281,4.3817,4.3409,4.3076,4.2754,4.2117,4.1785,4.1451,4.0773,4.0257,3.9821,3.9305,3.8859,3.8239,3.7505,3.7015,3.6332,3.5571,3.5102,3.4531,3.3941,3.3469,3.2958,3.2308,3.1823,3.1311,3.0785,3.1253,3.1518,3.1787,3.1583,3.1231,3.8803,0.0,0.0,0.0,0.0,0.0,4.0683,4.173,4.2704,4.2958,4.354,4.3979,4.4011,4.4321,4.4841,4.568,4.7112,4.8227,4.8532,4.8995,4.9302,4.9253,4.9098,4.8853,4.8545,4.8391,4.8183,4.7868,4.767,4.7468,4.7302,4.7143,4.707,4.6998,4.6998,4.6998,4.6998,4.6998,4.6998,4.6998,4.7568,4.7867,4.7992,4.9011,4.9604,4.9872,5.0365,5.0557,5.0575,5.0803,5.0891,5.0891,5.0819,5.0692,5.0547,5.0397,5.0246,5.0149,5.0051,4.986,4.9708,4.953,4.935,4.9168,4.9001,4.8753,4.8483,4.842,4.7984,4.7403,4.6961,4.6615,4.6278,4.6008,4.5735,4.5368,4.4889,4.4739,4.4663,4.4435,4.3879,4.3423,4.3329,4.2769,4.2184,4.1868,4.1283,4.0773,4.0257,3.9631,3.8997,3.8562,3.7939,3.7294,3.6747,3.625,3.5571,3.4811,3.4433,3.3831,3.2924,3.2533,3.2026,3.13,3.0703,3.0183,2.9544,3.0108,3.0408,3.0333,3.0079,2.9575,3.8621,3.8621,3.8652,3.8683,0.0,0.0,3.9884,4.0775,4.1704,4.2387,4.2968,4.3476,4.3841,4.399,4.4259,4.4819,4.6065,4.7223,4.7945,4.8347,4.8664,4.8942,4.8775,4.8524,4.8206,4.8103,4.7951,4.7728,4.7572,4.7425,4.7249,4.707,4.6998,4.6998,4.6998,4.6998,4.6998,4.7319,4.7479,4.7497,4.8282,4.877,4.8999,4.9788,5.0238,5.0435,5.0787,5.0945,5.0891,5.0891,5.0891,5.0891,5.0891,5.0801,5.0585,5.0492,5.0341,5.0189,5.0092,4.9976,4.9801,4.9547,4.9632,4.9767,4.952,4.9426,4.9421,4.9421,4.8879,4.8217,4.7626,4.7357,4.7084,4.6734,4.6347,4.5893,4.5141,4.4756,4.4369,4.394,4.3566,4.317,4.285,4.2281,4.1702,4.1353,4.0674,4.0069,3.9631,3.8908,3.8291,3.7743,3.7095,3.6452,3.5978,3.5295,3.4605,3.3819,3.3522,3.2823,3.1801,3.1607,3.1094,3.0068,2.9764,2.9237,2.8388,2.9036,2.915,2.8816,2.8474,2.8095,3.8382,3.8382,3.8382,3.8382,3.8446,0.0,3.9447,3.9827,4.0394,4.1816,4.2371,4.2865,4.3602,4.3849,4.3984,4.4169,4.4772,4.5776,4.7328,4.7623,4.7853,4.8314,4.8314,4.8163,4.7919,4.7801,4.7717,4.7717,4.7554,4.7381,4.7196,4.7043,4.6998,4.6998,4.6998,4.7033,4.7122,4.7818,4.8211,4.8318,4.9085,4.9768,5.0346,5.0385,5.0677,5.1158,5.1105,5.1052,5.0945,5.0945,5.0891,5.0891,5.0891,5.0801,5.0657,5.0585,5.0488,5.0367,5.031,5.0282,5.0194,4.9864,5.0188,5.0673,5.0345,5.0435,5.0643,5.0577,5.0085,4.9442,4.8869,4.8519,4.8313,4.783,4.7294,4.6655,4.574,4.4845,4.4056,4.3394,4.323,4.293,4.2034,4.1702,4.1353,4.0688,3.9968,3.9339,3.8819,3.82,3.7572,3.7015,3.625,3.5584,3.5126,3.4335,3.3522,3.2711,3.2409,3.1699,3.0681,3.0578,3.0068,2.892,2.8814,2.8165,2.7098,2.7755,2.7828,2.7419,2.6915,2.6646,3.8289,3.8322,3.8322,3.8401,3.8415,0.0,3.8634,3.9264,3.9946,4.0225,4.1574,4.2736,4.2908,4.3602,4.4146,4.4188,4.4195,4.4579,4.5703,4.6822,4.7559,4.7605,4.7864,4.8051,4.7974,4.7824,4.7717,4.7717,4.7468,4.7232,4.7043,4.698,4.6998,4.6998,4.6998,4.7301,4.7943,4.8104,4.8496,4.9103,4.9906,5.0352,5.0481,5.1022,5.1312,5.142,5.1298,5.1193,5.1052,5.1052,5.0998,5.0891,5.0891,5.0891,5.0819,5.0657,5.0875,5.1245,5.113,5.1371,5.1727,5.1405,5.1384,5.1441,5.1061,5.0856,5.0577,5.0017,4.9599,4.9261,4.8682,4.8222,4.7754,4.7216,4.6825,4.6398,4.558,4.4706,4.3879,4.3167,4.2631,4.2131,4.1633,4.1015,4.0388,3.9867,3.9189,3.8589,3.7861,3.7281,3.6722,3.5953,3.5187,3.4628,3.4237,3.3323,3.242,3.1823,3.1403,3.0578,2.9438,2.9438,2.891,2.7745,2.6871,2.5999,2.5331,2.5889,2.6163,2.6024,2.5283,2.5007,3.8054,3.8106,3.8122,3.8186,3.8219,0.0,0.0,3.8983,3.95,4.0005,4.0868,4.1817,4.2645,4.3216,4.3682,4.413,4.4132,4.4195,4.4607,4.5525,4.6439,4.7165,4.733,4.7554,4.7955,4.7824,4.7657,4.7511,4.7338,4.716,4.6998,4.6998,4.6998,4.6998,4.7372,4.7765,4.8175,4.8942,4.9531,4.9924,5.0709,5.1101,5.1119,5.1479,5.1556,5.1523,5.1454,5.1316,5.1105,5.1105,5.0998,5.0891,5.0891,5.1119,5.1452,5.1307,5.1629,5.2062,5.2004,5.2087,5.2157,5.1788,5.1965,5.2209,5.1775,5.1581,5.1386,5.0824,5.048,5.0098,4.9485,4.9104,4.8639,4.7926,4.7507,4.6924,4.5858,4.4773,4.3708,4.2696,4.1767,4.1085,4.0845,4.0243,3.9631,3.9189,3.8395,3.7664,3.7002,3.6427,3.5763,3.4896,3.4213,3.3621,3.3024,3.2106,3.1289,3.0578,3.0162,2.9428,2.8281,2.8165,2.7413,2.61,2.5221,2.4556,2.388,2.3888,2.4008,2.4334,2.3634,2.326,3.7969,3.8031,3.8054,3.8173,3.8264,3.8372,0.0,0.0,0.0,3.9987,4.0324,4.0873,4.2226,4.2747,4.3169,4.3859,4.4102,4.4123,4.3947,4.4321,4.5164,4.6728,4.6832,4.7135,4.7919,4.7806,4.7554,4.7302,4.7267,4.7133,4.6998,4.6998,4.6998,4.6998,4.7765,4.8247,4.8389,4.9799,5.0584,5.0744,5.1387,5.169,5.169,5.169,5.1658,5.1505,5.1505,5.1368,5.1105,5.1105,5.1086,5.1101,5.1101,5.1487,5.2032,5.2172,5.2507,5.2938,5.2938,5.2787,5.2544,5.2215,5.2499,5.2782,5.2287,5.221,5.2236,5.1762,5.1408,5.0924,5.0292,4.99,4.9437,4.8604,4.8088,4.7342,4.6117,4.4719,4.343,4.2117,4.089,4.0041,4.0041,3.9441,3.8845,3.8408,3.7479,3.6628,3.6036,3.5559,3.4787,3.3831,3.3212,3.2499,3.171,3.0991,3.0057,2.9207,2.891,2.8165,2.7107,2.6654,2.5771,2.4326,2.3768,2.3087,2.2531,2.1866,2.1979,2.2644,2.1979,2.1524,3.8296,3.8441,3.8527,3.8955,3.9024,3.8996,3.9049,0.0,3.9208,3.9316,0.0,4.0722,4.0917,0.0,0.0,4.3144,4.3735,4.4123,4.3947,4.3892,4.4475,4.6027,4.6579,4.7135,4.7919,4.7705,4.7468,4.7302,4.7267,4.7133,4.6998,4.6998,4.6998,4.6998,4.7765,4.8496,4.9192,5.0066,5.0869,5.1547,5.1654,5.169,5.169,5.169,5.1658,5.1505,5.1505,5.1368,5.1105,5.1105,5.1403,5.1891,5.1891,5.1944,5.2102,5.2786,5.3294,5.3644,5.3644,5.3791,5.3982,5.3789,5.3447,5.3044,5.2474,5.2312,5.2181,5.1466,5.094,5.0448,4.9836,4.9178,4.8604,4.7834,4.7336,4.6711,4.5764,4.4246,4.2739,4.1966,4.0308,3.9073,3.9073,3.8445,3.7821,3.7387,3.6427,3.5571,3.5066,3.4288,3.3499,3.2711,3.1891,3.1187,3.0599,2.9754,2.891,2.8038,2.752,2.6871,2.5907,2.4889,2.376,2.2749,2.2184,2.1395,2.0608,1.991,2.0249,2.1402,2.0838,2.0148,3.8735,3.8763,3.8788,3.9062,3.9112,3.9156,3.9394,3.9447,3.9478,3.9577,0.0,0.0,0.0,0.0,0.0,0.0,4.3762,4.4195,4.4073,4.3934,4.4177,4.5217,4.5847,4.6663,4.7838,4.7597,4.7363,4.7302,4.716,4.7043,4.698,4.6998,4.6998,4.6998,4.8193,4.8996,4.9317,5.0566,5.1369,5.169,5.1607,5.1607,5.1607,5.1487,5.1454,5.1402,5.1402,5.1264,5.1105,5.1105,5.1456,5.2049,5.2393,5.2831,5.3383,5.362,5.4039,5.4444,5.426,5.4218,5.4158,5.3766,5.3298,5.28,5.2378,5.202,5.1598,5.1059,5.0525,4.9821,4.934,4.8687,4.8003,4.7336,4.6726,4.5914,4.4652,4.3132,4.1771,4.0686,3.9186,3.7887,3.7428,3.715,3.6696,3.6048,3.5283,3.4409,3.3697,3.3101,3.2308,3.13,3.0671,2.9828,2.8996,2.8271,2.752,2.6654,2.5533,2.4531,2.3871,2.2862,2.1964,2.1281,2.0594,1.9903,1.9229,1.8512,1.8273,1.8512,1.8622,1.8396,3.9156,3.9148,3.918,3.9385,3.9412,3.9489,3.9777,3.98,3.9767,3.9907,3.987,0.0,0.0,0.0,4.2258,4.2808,0.0,4.4304,4.4214,4.3979,4.4081,4.4773,4.559,4.6462,4.7466,4.7428,4.7302,4.7302,4.7116,4.6998,4.6998,4.6998,4.6998,4.6998,4.8449,4.9269,4.9269,5.0788,5.1589,5.1589,5.1505,5.1454,5.1454,5.135,5.1298,5.1246,5.1246,5.1158,5.107,5.1227,5.1645,5.2288,5.2927,5.3637,5.4378,5.4353,5.4582,5.4807,5.4557,5.4239,5.3898,5.3281,5.28,5.2362,5.2092,5.1524,5.0924,5.0586,4.9884,4.9178,4.8589,4.7988,4.7321,4.655,4.5796,4.48,4.3356,4.1911,4.0491,3.9217,3.7816,3.6658,3.5833,3.5833,3.5642,3.4872,3.4005,3.3124,3.2409,3.1699,3.0877,2.9953,2.9217,2.8359,2.7394,2.6754,2.5881,2.4778,2.3536,2.2402,2.1608,2.1052,2.0371,1.9564,1.8978,1.8279,1.759,1.6985,1.6397,1.5698,1.6632,1.675,3.957,3.968,3.9772,4.0149,4.0211,4.0177,4.0196,4.0139,4.008,4.0017,3.9933,3.9889,3.9841,4.1065,4.2096,4.2055,4.3306,0.0,0.0,4.4011,4.4179,4.4912,4.603,4.6767,4.6739,4.7102,4.7302,4.7302,4.7116,4.6998,4.6998,4.6998,4.6998,4.6998,4.8354,4.9106,4.9106,5.0586,5.1281,5.1281,5.1298,5.1298,5.1298,5.1298,5.1246,5.1105,5.1105,5.1052,5.0943,5.1549,5.2228,5.2944,5.3554,5.414,5.4738,5.4878,5.479,5.4512,5.4512,5.4028,5.3298,5.259,5.2219,5.1915,5.1376,5.0924,5.037,4.9836,4.9178,4.8438,4.7463,4.6989,4.6403,4.5398,4.4379,4.3286,4.2234,4.0562,3.8897,3.7833,3.6493,3.5234,3.4276,3.4483,3.4581,3.3796,3.2711,3.1812,3.0991,3.0151,2.9313,2.8465,2.7628,2.6871,2.62,2.5331,2.4103,2.2305,2.1623,2.0709,1.9435,1.9325,1.8855,1.7572,1.7226,1.6638,1.5688,1.4981,1.4386,1.3784,1.5095,1.5337,4.0339,4.021,4.0177,4.0281,4.0289,4.0272,4.0272,4.0196,4.0157,4.0157,4.0038,3.9954,3.9889,4.1161,4.2197,4.2077,4.3398,4.4401,0.0,4.4011,4.3878,4.4036,4.5224,4.6202,4.6691,4.7066,4.7302,4.7302,4.7116,4.6998,4.6998,4.6934,4.6888,4.6888,4.824,4.8958,4.8958,5.0553,5.1298,5.1298,5.1193,5.1158,5.1158,5.1105,5.0909,5.0784,5.0784,5.0675,5.0599,5.0805,5.1529,5.256,5.2675,5.3373,5.4286,5.4557,5.4477,5.4222,5.3766,5.3298,5.2784,5.2076,5.1712,5.1327,5.0908,5.0292,4.9582,4.9097,4.8339,4.7478,4.6711,4.5898,4.5058,4.3807,4.2706,4.1491,3.977,3.8255,3.6998,3.5987,3.4786,3.3784,3.3101,3.2499,3.2083,3.1982,3.1165,3.0349,2.9523,2.8668,2.7697,2.6608,2.5972,2.5101,2.4086,2.3087,2.1843,2.0357,1.9666,1.8964,1.815,1.7331,1.6626,1.6279,1.5327,1.4619,1.4381,1.3186,1.259,1.235,1.1972,1.2097,4.1094,4.0696,4.0432,4.0379,4.0342,4.0344,4.0309,4.0272,4.0215,4.0215,4.0118,4.0152,4.0371,4.1461,4.2389,4.2567,4.3668,4.4458,0.0,4.3998,4.3771,4.3667,4.4821,4.5783,4.6294,4.6946,4.7302,4.7302,4.7116,4.698,4.6934,4.6842,4.6795,4.6731,4.8094,4.8809,4.8809,5.0399,5.1141,5.1141,5.0981,5.0909,5.0909,5.0764,5.0637,5.0547,5.0492,5.0397,5.032,5.0466,5.1025,5.1821,5.2207,5.2699,5.3277,5.3943,5.4028,5.3617,5.2939,5.2433,5.2059,5.1475,5.0951,5.0509,5.0026,4.9309,4.8604,4.7988,4.7204,4.6256,4.5248,4.4266,4.3263,4.1908,4.0735,3.9425,3.7744,3.6465,3.5258,3.415,3.3089,3.2095,3.137,3.0338,2.9828,3.0349,2.9608,2.8658,2.7697,2.6952,2.5963,2.4855,2.4197,2.3199,2.1836,2.0694,1.9543,1.8383,1.7683,1.6979,1.6149,1.5327,1.4738,1.4257,1.3301,1.2697,1.2337,1.1253,1.0536,1.0297,0.9441,0.9195]},{"header":{"parameterUnit":"m.s-1","parameterCategory":1,"la1":30.6,"la2":29.2853,"lo1":-89.7004,"lo2":-87.6739,"dy":0.0162,"dx":0.0183,"nx":112,"ny":82,"refTime":"2024-05-06T12:00:00:Z","depth":0,"parameterNumber":3,"parameterNumberName":"V-component_of_WINDS"},"data":[0.0,0.0,0.0,0.0,0.0,0.0,0.0,0.0,0.0,0.0,0.0,0.0,0.0,0.0,0.0,0.0,0.0,0.0,0.0,0.0,0.0,0.0,0.0,0.0,0.0,0.0,0.0,0.0,0.0,0.0,0.0,0.0,0.0,0.0,0.0,0.0,0.0,0.0,0.0,0.0,0.0,0.0,0.0,0.0,0.0,0.0,0.0,0.0,0.0,0.0,0.0,0.0,0.0,0.0,0.0,0.0,0.0,0.0,0.0,0.0,0.0,0.0,0.0,0.0,0.0,0.0,0.0,0.0,0.0,0.0,0.0,0.0,0.0,0.0,0.0,0.0,0.0,0.0,0.0,0.0,0.0,0.0,0.0,0.0,0.0,0.0,0.0,0.0,0.0,0.0,-1.3646,-1.3822,-1.423,-1.4734,-1.5082,-1.5042,-1.4961,-1.4869,0.0,0.0,0.0,0.0,0.0,0.0,0.0,0.0,0.0,0.0,0.0,0.0,0.0,0.0,0.0,0.0,0.0,0.0,0.0,0.0,0.0,0.0,0.0,0.0,0.0,0.0,0.0,0.0,0.0,0.0,0.0,0.0,0.0,0.0,0.0,0.0,0.0,0.0,0.0,0.0,0.0,0.0,0.0,0.0,0.0,0.0,0.0,0.0,0.0,0.0,0.0,0.0,0.0,0.0,0.0,0.0,0.0,0.0,0.0,0.0,0.0,0.0,0.0,0.0,0.0,0.0,0.0,0.0,0.0,0.0,0.0,0.0,0.0,0.0,0.0,0.0,0.0,0.0,0.0,0.0,0.0,0.0,0.0,0.0,0.0,0.0,0.0,0.0,0.0,0.0,0.0,0.0,0.0,0.0,0.0,0.0,0.0,0.0,0.0,0.0,0.0,0.0,0.0,0.0,-1.4314,-1.4566,-1.4977,-1.5311,-1.5318,-1.5442,-1.5518,-1.549,0.0,0.0,0.0,0.0,0.0,0.0,0.0,0.0,0.0,0.0,0.0,0.0,0.0,0.0,0.0,0.0,0.0,0.0,0.0,0.0,0.0,0.0,0.0,0.0,0.0,0.0,0.0,0.0,0.0,0.0,0.0,0.0,0.0,0.0,0.0,0.0,0.0,0.0,0.0,0.0,0.0,0.0,0.0,0.0,0.0,0.0,0.0,0.0,0.0,0.0,0.0,0.0,0.0,0.0,0.0,0.0,0.0,0.0,0.0,0.0,0.0,0.0,0.0,0.0,0.0,0.0,0.0,0.0,0.0,0.0,0.0,0.0,0.0,0.0,0.0,0.0,0.0,0.0,0.0,0.0,0.0,0.0,0.0,0.0,0.0,0.0,0.0,0.0,0.0,0.0,0.0,0.0,0.0,0.0,0.0,0.0,0.0,0.0,0.0,0.0,0.0,0.0,0.0,-1.4398,-1.4734,-1.5061,-1.5311,-1.5484,-1.5741,-1.6016,-1.603,-1.5652,-1.5926,0.0,0.0,0.0,0.0,0.0,0.0,0.0,0.0,0.0,0.0,0.0,0.0,0.0,0.0,0.0,0.0,0.0,0.0,0.0,0.0,0.0,0.0,0.0,0.0,0.0,0.0,0.0,0.0,0.0,0.0,0.0,0.0,0.0,0.0,0.0,0.0,0.0,0.0,0.0,0.0,0.0,0.0,0.0,0.0,0.0,0.0,0.0,0.0,0.0,0.0,0.0,0.0,0.0,0.0,0.0,0.0,0.0,0.0,0.0,0.0,0.0,0.0,0.0,0.0,0.0,0.0,0.0,0.0,0.0,0.0,0.0,0.0,0.0,0.0,0.0,0.0,0.0,0.0,0.0,0.0,0.0,0.0,0.0,0.0,0.0,0.0,0.0,0.0,0.0,0.0,0.0,0.0,0.0,0.0,0.0,0.0,0.0,0.0,0.0,0.0,0.0,0.0,-1.4817,-1.4977,-1.5394,-1.556,-1.5816,-1.6252,-1.6574,-1.6549,-1.6089,-1.6589,0.0,0.0,0.0,0.0,0.0,0.0,0.0,0.0,0.0,0.0,0.0,0.0,0.0,0.0,0.0,0.0,0.0,0.0,0.0,0.0,0.0,0.0,0.0,0.0,0.0,0.0,0.0,0.0,0.0,0.0,0.0,0.0,0.0,0.0,0.0,0.0,0.0,0.0,0.0,0.0,0.0,0.0,0.0,0.0,0.0,0.0,0.0,0.0,0.0,0.0,0.0,0.0,0.0,0.0,0.0,0.0,0.0,0.0,0.0,0.0,0.0,0.0,0.0,0.0,0.0,0.0,0.0,0.0,0.0,0.0,0.0,0.0,0.0,0.0,0.0,0.0,0.0,0.0,0.0,0.0,0.0,0.0,0.0,0.0,0.0,0.0,0.0,0.0,0.0,0.0,0.0,0.0,0.0,0.0,0.0,0.0,0.0,0.0,0.0,0.0,0.0,0.0,-1.5242,-1.5477,-1.565,-1.6064,-1.6394,-1.6656,-1.6894,-1.713,-1.7371,-1.7107,0.0,0.0,0.0,0.0,0.0,0.0,0.0,0.0,0.0,0.0,0.0,0.0,0.0,0.0,0.0,0.0,0.0,0.0,0.0,0.0,0.0,0.0,0.0,0.0,0.0,0.0,0.0,0.0,0.0,0.0,0.0,0.0,0.0,0.0,0.0,0.0,0.0,0.0,0.0,0.0,0.0,0.0,0.0,0.0,0.0,0.0,0.0,0.0,0.0,0.0,0.0,0.0,0.0,0.0,0.0,0.0,0.0,0.0,0.0,0.0,0.0,0.0,0.0,0.0,0.0,0.0,0.0,0.0,0.0,0.0,0.0,0.0,0.0,0.0,0.0,0.0,0.0,0.0,0.0,0.0,0.0,0.0,0.0,0.0,0.0,0.0,0.0,0.0,0.0,0.0,0.0,0.0,0.0,0.0,0.0,0.0,0.0,0.0,0.0,0.0,0.0,0.0,-1.5658,-1.5906,-1.6147,-1.6402,-1.673,-1.6894,-1.7383,-1.7629,-1.7492,0.0,0.0,0.0,0.0,0.0,0.0,0.0,0.0,0.0,0.0,0.0,0.0,0.0,0.0,0.0,0.0,0.0,0.0,0.0,0.0,0.0,0.0,0.0,0.0,0.0,0.0,0.0,0.0,0.0,0.0,0.0,0.0,0.0,0.0,0.0,0.0,0.0,0.0,0.0,0.0,0.0,0.0,0.0,0.0,0.0,0.0,0.0,0.0,0.0,0.0,0.0,0.0,0.0,0.0,0.0,0.0,0.0,0.0,0.0,0.0,0.0,0.0,0.0,0.0,0.0,0.0,0.0,0.0,0.0,0.0,0.0,0.0,0.0,0.0,0.0,0.0,0.0,0.0,0.0,0.0,0.0,0.0,0.0,0.0,0.0,0.0,0.0,0.0,0.0,0.0,0.0,0.0,0.0,0.0,0.0,0.0,0.0,0.0,0.0,0.0,0.0,0.0,-1.5824,-1.6079,-1.6327,-1.6484,-1.673,-1.7057,-1.7383,-1.7789,-1.8009,-1.7979,0.0,0.0,0.0,0.0,0.0,0.0,0.0,0.0,0.0,0.0,0.0,0.0,0.0,0.0,0.0,0.0,0.0,0.0,0.0,0.0,0.0,0.0,0.0,0.0,0.0,0.0,0.0,0.0,0.0,0.0,0.0,0.0,0.0,0.0,0.0,0.0,0.0,0.0,0.0,0.0,0.0,0.0,0.0,0.0,0.0,0.0,0.0,0.0,0.0,0.0,0.0,0.0,0.0,0.0,0.0,0.0,0.0,0.0,0.0,0.0,0.0,0.0,0.0,0.0,0.0,0.0,0.0,0.0,0.0,0.0,0.0,0.0,0.0,0.0,0.0,0.0,0.0,0.0,0.0,0.0,0.0,0.0,0.0,0.0,0.0,0.0,0.0,0.0,0.0,0.0,0.0,0.0,0.0,0.0,0.0,0.0,0.0,0.0,0.0,0.0,0.0,0.0,-1.6087,-1.6492,-1.6738,-1.6738,-1.7147,-1.7554,-1.7959,-1.804,-1.8282,0.0,0.0,0.0,0.0,0.0,0.0,0.0,0.0,0.0,0.0,0.0,0.0,0.0,0.0,0.0,0.0,0.0,0.0,0.0,0.0,0.0,0.0,0.0,0.0,0.0,0.0,0.0,0.0,0.0,0.0,0.0,0.0,0.0,0.0,0.0,0.0,0.0,0.0,0.0,0.0,0.0,0.0,0.0,0.0,0.0,0.0,0.0,0.0,0.0,0.0,0.0,0.0,0.0,0.0,0.0,0.0,0.0,0.0,0.0,0.0,0.0,0.0,0.0,0.0,0.0,0.0,0.0,0.0,0.0,0.0,0.0,0.0,0.0,0.0,0.0,0.0,0.0,0.0,0.0,0.0,0.0,0.0,0.0,0.0,0.0,0.0,0.0,0.0,0.0,0.0,0.0,0.0,0.0,0.0,0.0,0.0,0.0,0.0,0.0,0.0,0.0,0.0,0.0,-1.6492,-1.6812,-1.7057,-1.7147,-1.7554,-1.7878,-1.7959,-1.8434,-1.8834,-1.9222,0.0,0.0,0.0,0.0,0.0,0.0,0.0,0.0,0.0,0.0,0.0,0.0,0.0,0.0,0.0,0.0,0.0,0.0,0.0,0.0,0.0,0.0,0.0,0.0,0.0,0.0,0.0,0.0,0.0,0.0,0.0,0.0,0.0,0.0,0.0,0.0,0.0,0.0,0.0,0.0,0.0,0.0,0.0,0.0,0.0,0.0,0.0,0.0,0.0,0.0,0.0,0.0,0.0,0.0,0.0,0.0,0.0,0.0,0.0,0.0,0.0,0.0,0.0,0.0,0.0,0.0,0.0,0.0,0.0,0.0,0.0,0.0,0.0,0.0,0.0,0.0,0.0,0.0,0.0,0.0,0.0,0.0,0.0,0.0,0.0,0.0,0.0,0.0,0.0,0.0,0.0,0.0,0.0,0.0,0.0,0.0,0.0,0.0,0.0,0.0,0.0,0.0,-1.6812,-1.7131,-1.7456,-1.7635,-1.7951,-1.8201,-1.8362,-1.8834,-1.9231,-1.939,0.0,0.0,0.0,0.0,0.0,0.0,0.0,0.0,0.0,0.0,0.0,0.0,0.0,0.0,0.0,0.0,0.0,0.0,0.0,0.0,0.0,0.0,0.0,0.0,0.0,0.0,0.0,0.0,0.0,0.0,0.0,0.0,0.0,0.0,0.0,0.0,0.0,0.0,0.0,0.0,0.0,0.0,0.0,0.0,0.0,0.0,0.0,0.0,0.0,0.0,0.0,0.0,0.0,0.0,0.0,0.0,0.0,0.0,0.0,0.0,0.0,0.0,0.0,0.0,0.0,0.0,0.0,0.0,0.0,0.0,0.0,0.0,0.0,0.0,0.0,0.0,0.0,0.0,0.0,0.0,0.0,0.0,0.0,0.0,0.0,0.0,0.0,0.0,0.0,0.0,0.0,0.0,0.0,0.0,0.0,0.0,0.0,0.0,0.0,0.0,0.0,0.0,-1.7139,-1.7456,-1.7781,-1.8031,-1.8282,-1.8594,-1.9002,-1.9222,-1.9469,-1.9715,0.0,0.0,0.0,0.0,0.0,0.0,0.0,0.0,0.0,0.0,0.0,0.0,0.0,0.0,0.0,0.0,0.0,0.0,0.0,0.0,0.0,0.0,0.0,0.0,0.0,0.0,0.0,0.0,0.0,0.0,0.0,0.0,0.0,0.0,0.0,0.0,0.0,0.0,0.0,0.0,0.0,0.0,0.0,0.0,0.0,0.0,0.0,0.0,0.0,0.0,0.0,0.0,0.0,0.0,0.0,0.0,0.0,0.0,0.0,0.0,-0.6643,-0.6747,0.0,0.0,0.0,0.0,0.0,0.0,0.0,0.0,0.0,0.0,0.0,0.0,0.0,0.0,0.0,0.0,0.0,0.0,0.0,0.0,0.0,0.0,0.0,0.0,0.0,0.0,0.0,0.0,0.0,0.0,0.0,0.0,0.0,0.0,0.0,0.0,0.0,0.0,0.0,0.0,-1.7538,-1.7789,-1.8031,-1.8282,-1.8683,-1.8993,-1.9231,-1.939,-1.9794,-2.0333,-2.0489,0.0,0.0,0.0,0.0,0.0,0.0,0.0,0.0,0.0,0.0,0.0,0.0,0.0,0.0,0.0,0.0,0.0,0.0,0.0,0.0,0.0,0.0,0.0,0.0,0.0,0.0,0.0,0.0,0.0,0.0,0.0,0.0,0.0,0.0,0.0,0.0,0.0,0.0,0.0,0.0,0.0,0.0,0.0,0.0,0.0,0.0,0.0,0.0,0.0,0.0,0.0,0.0,0.0,0.0,0.0,0.0,0.0,0.0,0.0,-0.6896,-0.703,0.0,0.0,0.0,0.0,0.0,0.0,0.0,0.0,0.0,0.0,0.0,0.0,0.0,0.0,0.0,0.0,0.0,0.0,0.0,0.0,0.0,0.0,0.0,0.0,0.0,0.0,0.0,0.0,0.0,0.0,0.0,0.0,0.0,0.0,0.0,0.0,0.0,0.0,0.0,0.0,-1.7781,-1.8031,-1.8362,-1.8834,-1.8993,-1.9231,-1.9539,-1.9863,-2.0255,-2.0566,-2.0954,0.0,0.0,0.0,0.0,0.0,0.0,0.0,0.0,0.0,0.0,0.0,0.0,0.0,0.0,0.0,0.0,0.0,0.0,0.0,0.0,0.0,0.0,0.0,0.0,0.0,0.0,0.0,0.0,0.0,0.0,0.0,0.0,0.0,0.0,0.0,0.0,0.0,0.0,0.0,0.0,0.0,0.0,0.0,0.0,0.0,0.0,0.0,0.0,0.0,0.0,0.0,0.0,0.0,-0.6499,-0.6499,-0.6499,-0.6499,-0.6592,-0.6877,-0.7074,-0.726,-0.7329,-0.7707,0.0,0.0,0.0,0.0,0.0,0.0,0.0,0.0,0.0,0.0,0.0,0.0,0.0,0.0,0.0,0.0,0.0,0.0,0.0,0.0,0.0,0.0,-1.4854,-1.5294,-1.5569,-1.5708,-1.5447,0.0,0.0,0.0,0.0,0.0,0.0,0.0,0.0,0.0,0.0,0.0,-1.8237,-1.8562,-1.8959,-1.9432,-1.9528,-1.9729,-2.0125,-2.0449,-2.0644,-2.0799,-2.1415,-2.1883,0.0,0.0,0.0,0.0,0.0,0.0,0.0,0.0,0.0,0.0,0.0,0.0,0.0,0.0,0.0,0.0,0.0,0.0,0.0,0.0,0.0,0.0,0.0,0.0,0.0,0.0,0.0,0.0,0.0,0.0,0.0,0.0,-0.2988,-0.3102,0.0,0.0,0.0,0.0,0.0,0.0,0.0,0.0,0.0,0.0,0.0,0.0,0.0,-0.5484,-0.6087,-0.619,-0.6342,-0.6755,-0.6755,-0.6755,-0.6755,-0.6755,-0.6802,-0.7012,-0.7214,0.0,-0.7543,-0.7819,0.0,0.0,0.0,0.0,0.0,0.0,0.0,0.0,0.0,0.0,0.0,0.0,0.0,0.0,0.0,0.0,0.0,0.0,0.0,0.0,0.0,0.0,-1.5294,-1.5575,-1.5842,-1.6094,-1.6455,-1.6615,-1.6783,-1.7218,-1.7313,-1.7486,0.0,0.0,0.0,0.0,0.0,0.0,-1.9262,-1.9862,-2.0383,-2.0458,-2.0464,-2.0562,-2.1033,-2.0781,-2.0876,-2.1578,-2.1731,-2.2025,-2.2553,-2.2852,0.0,0.0,0.0,0.0,0.0,0.0,0.0,0.0,0.0,0.0,0.0,0.0,0.0,0.0,0.0,0.0,0.0,0.0,0.0,0.0,0.0,0.0,0.0,0.0,0.0,0.0,0.0,0.0,0.0,-0.272,-0.3079,-0.3134,-0.3169,-0.3302,0.0,0.0,0.0,0.0,0.0,0.0,0.0,0.0,0.0,-0.5401,-0.5611,-0.5841,-0.6302,-0.6513,-0.6645,-0.6801,-0.6801,-0.6801,-0.6801,-0.6801,-0.6984,-0.7354,-0.7455,-0.7733,-0.8071,-0.8009,-0.8038,-0.8038,0.0,0.0,0.0,0.0,-0.9575,-0.9608,-1.0095,-1.0233,-1.0254,-1.0733,0.0,0.0,0.0,0.0,0.0,0.0,0.0,-1.4795,-1.5067,-1.5438,-1.5906,-1.6281,-1.655,-1.6916,-1.7379,-1.7742,-1.7897,-1.7683,-1.7795,-1.7969,-1.8308,-1.849,0.0,0.0,0.0,-1.9589,-2.0014,-2.0361,-2.0698,-2.1108,-2.1269,-2.1491,-2.1745,-2.1739,-2.1802,-2.219,-2.2248,-2.2478,-2.2852,-2.315,-2.353,0.0,0.0,0.0,0.0,0.0,0.0,0.0,0.0,0.0,0.0,0.0,0.0,0.0,0.0,0.0,0.0,0.0,0.0,0.0,0.0,0.0,0.0,0.0,0.0,0.0,0.0,0.0,0.0,-0.2698,-0.3046,-0.3161,-0.3203,-0.343,0.0,0.0,0.0,0.0,0.0,0.0,-0.5006,-0.5071,-0.5318,-0.5739,-0.5847,-0.6179,-0.6523,-0.6741,-0.6864,-0.6893,-0.6893,-0.6893,-0.6893,-0.6893,-0.7194,-0.7696,-0.7696,-0.7992,-0.8465,-0.8241,-0.8153,-0.8153,-0.8754,-0.8955,-0.8948,-0.951,-0.9693,-0.9784,-1.0233,-1.0413,-1.0511,-1.0998,-1.1585,-1.2078,-1.2273,0.0,0.0,0.0,0.0,-1.5178,-1.5642,-1.6021,-1.6407,-1.6972,-1.7246,-1.752,-1.8172,-1.855,-1.8669,-1.8233,-1.841,-1.8682,-1.8929,-1.9104,0.0,-1.9627,-1.9887,-2.0232,-2.0842,-2.1022,-2.1344,-2.1832,-2.208,-2.2271,-2.2611,-2.2685,-2.2735,-2.2903,-2.2926,-2.3037,-2.3262,-2.3597,-2.3897,-2.4189,0.0,0.0,0.0,0.0,0.0,0.0,0.0,0.0,0.0,0.0,0.0,0.0,0.0,0.0,0.0,0.0,0.0,0.0,0.0,0.0,0.0,0.0,0.0,0.0,0.0,0.0,0.0,0.0,0.0,-0.3119,-0.3229,0.0,0.0,0.0,0.0,-0.4965,-0.5049,-0.51,-0.51,-0.5106,-0.532,-0.5955,-0.5955,-0.6325,-0.6975,-0.6975,-0.7029,-0.7135,-0.7135,-0.7135,-0.7135,-0.7135,-0.7405,-0.7831,-0.7831,-0.8078,-0.8479,-0.8465,-0.8459,-0.8567,-0.9093,-0.9306,-0.9283,-0.9733,-0.9872,-0.9948,-1.0276,-1.0413,-1.0511,-1.0998,-1.1585,-1.2175,-1.3152,-1.3443,0.0,0.0,-1.4885,-1.5178,-1.5642,-1.6211,-1.6676,-1.7145,-1.7527,-1.7908,-1.8643,-1.8735,-1.8912,-1.9055,-1.9338,-1.9712,-2.0141,0.0,-2.0413,-2.0845,-2.1311,-2.1587,-2.1676,-2.2296,-2.2736,-2.2989,-2.2896,-2.3072,-2.3649,-2.3381,-2.3433,-2.4083,-2.3807,-2.3766,-2.3919,-2.4073,-2.4189,-2.42,-2.4897,0.0,0.0,0.0,0.0,0.0,0.0,0.0,0.0,0.0,0.0,0.0,0.0,0.0,0.0,0.0,0.0,0.0,0.0,0.0,0.0,0.0,0.0,0.0,0.0,0.0,0.0,0.0,0.0,-0.3127,-0.3266,0.0,-0.4106,-0.4176,-0.4535,-0.5059,-0.5143,-0.5196,-0.5196,-0.5253,-0.5612,-0.6162,-0.616,-0.6506,-0.7095,-0.7095,-0.7114,-0.7154,-0.7154,-0.7154,-0.7154,-0.7154,-0.7462,-0.7971,-0.7971,-0.8275,-0.8774,-0.8774,-0.8659,-0.8587,-0.9119,-0.9328,-0.9321,-0.988,-1.0063,-1.0158,-1.0604,-1.0786,-1.0884,-1.1798,-1.2511,-1.3089,-1.3633,-1.397,-1.432,-1.484,-1.5267,-1.5642,-1.6211,-1.6676,-1.7145,-1.7527,-1.7994,-1.8458,-1.8735,-1.9196,-1.9563,-1.9828,-2.0019,-2.0119,-2.0473,-2.0645,-2.0916,-2.1365,-2.1553,-2.183,-2.2362,-2.2794,-2.3057,-2.3319,-2.371,-2.4047,-2.4206,-2.4365,-2.4578,-2.4832,-2.469,-2.4725,-2.5099,-2.5158,-2.5443,-2.5965,-2.6187,-2.6542,0.0,0.0,0.0,0.0,0.0,0.0,0.0,0.0,0.0,0.0,0.0,0.0,0.0,0.0,0.0,0.0,0.0,0.0,0.0,0.0,0.0,0.0,0.0,0.0,0.0,-0.2603,-0.2832,-0.3156,-0.3297,-0.3536,-0.4184,-0.4256,-0.4513,-0.5046,-0.5239,-0.529,-0.529,-0.5349,-0.5717,-0.6274,-0.6274,-0.6606,-0.7154,-0.7154,-0.7154,-0.7154,-0.7154,-0.7154,-0.7154,-0.7268,-0.7601,-0.8045,-0.8156,-0.8491,-0.894,-0.894,-0.8818,-0.8849,-0.9279,-0.9492,-0.9485,-1.0067,-1.0359,-1.0456,-1.101,-1.1304,-1.1615,-1.2334,-1.3059,-1.355,-1.3886,-1.443,-1.4892,-1.531,-1.5745,-1.6319,-1.6889,-1.7368,-1.7728,-1.8097,-1.8637,-1.9063,-1.922,-1.9654,-2.011,-2.0464,-2.0464,-2.0564,-2.0925,-2.1186,-2.1365,-2.1909,-2.2087,-2.2353,-2.2794,-2.3144,-2.3493,-2.3764,-2.4196,-2.4625,-2.4967,-2.5268,-2.5497,-2.5661,-2.5598,-2.5711,-2.5934,-2.607,-2.6358,-2.6887,-2.7186,-2.757,-2.8084,0.0,0.0,0.0,0.0,0.0,0.0,0.0,0.0,0.0,0.0,0.0,0.0,0.0,0.0,0.0,0.0,0.0,0.0,0.0,0.0,0.0,0.0,0.0,-0.2321,-0.2423,-0.2643,-0.3211,-0.3324,-0.3558,-0.4257,-0.4334,-0.4595,-0.514,-0.5331,-0.5382,-0.5382,-0.5382,-0.5717,-0.6274,-0.6274,-0.6606,-0.7154,-0.7154,-0.7154,-0.7154,-0.7154,-0.7154,-0.7154,-0.7493,-0.7715,-0.8045,-0.8374,-0.8598,-0.894,-0.894,-0.9047,-0.9379,-0.9706,-0.9816,-0.9908,-1.0289,-1.0659,-1.095,-1.1281,-1.1841,-1.2358,-1.256,-1.308,-1.3599,-1.4197,-1.4706,-1.522,-1.5809,-1.6312,-1.7014,-1.769,-1.8094,-1.852,-1.9161,-1.9368,-1.9555,-2.022,-2.0326,-2.0499,-2.0925,-2.0843,-2.0942,-2.1562,-2.1731,-2.1909,-2.2353,-2.2794,0.0,-2.3135,-2.3484,-2.4013,-2.4454,-2.454,-2.4882,-2.5812,-2.5906,-2.6146,-2.6561,-2.6599,-2.6564,-2.6564,-2.6842,-2.6935,-2.701,-2.7767,-2.8379,-2.8741,0.0,0.0,0.0,0.0,0.0,0.0,0.0,0.0,0.0,0.0,0.0,0.0,0.0,0.0,0.0,0.0,0.0,0.0,0.0,0.0,0.0,-0.1611,-0.1818,-0.2321,-0.2449,-0.2682,-0.3215,-0.3397,-0.3671,-0.4341,-0.4409,-0.4673,-0.5343,-0.5367,-0.5382,-0.5382,-0.5382,-0.5717,-0.6274,-0.6274,-0.6606,-0.7154,-0.7154,-0.7154,-0.7154,-0.7154,-0.7154,-0.7154,-0.7493,-0.7715,-0.8045,-0.8374,-0.8598,-0.894,-0.894,-0.9047,-0.9379,-0.9706,-0.9926,-1.0249,-1.053,-1.095,-1.1485,-1.1967,-1.2486,-1.3133,-1.355,-1.4188,-1.4696,-1.5029,-1.5488,-1.6061,-1.6472,-1.6914,-1.7406,-1.8002,-1.8693,-1.9259,-1.9652,-2.0311,-2.0957,-2.1139,-2.1482,-2.1768,-2.1943,-2.1889,-2.1798,-2.1697,-2.1998,-2.2353,-2.2872,-2.3057,-2.3222,-2.357,-2.4013,-2.4368,-2.4454,-2.5137,-2.5644,-2.5895,-2.6313,-2.6715,-2.7033,-2.7151,-2.7485,-2.7897,-2.7992,-2.8378,-2.9009,-2.9391,-2.9845,0.0,0.0,0.0,0.0,0.0,0.0,0.0,0.0,0.0,0.0,0.0,0.0,0.0,0.0,0.0,0.0,0.0,0.0,0.0,0.0,0.0,0.0,-0.1628,-0.184,-0.2245,-0.237,-0.2713,-0.3178,-0.3347,-0.3726,-0.4197,-0.4345,-0.4704,-0.5156,-0.527,-0.5382,-0.5382,-0.5382,-0.5717,-0.6274,-0.6274,-0.6606,-0.7154,-0.7154,-0.7154,-0.7154,-0.7154,-0.7265,-0.7379,-0.7604,-0.7934,-0.8266,-0.8488,-0.8712,-0.894,-0.9047,-0.9268,-0.9596,0.0,0.0,0.0,0.0,-1.135,-1.1896,-1.2441,-1.2881,-1.3423,-1.3954,-1.46,-1.512,-1.5499,-1.6187,-1.6782,-1.7025,-1.7694,-1.8304,-1.8809,-1.9506,-2.0174,-2.0524,-2.1176,-2.1812,-2.203,-2.2366,-2.2577,-2.2806,-2.3037,0.0,-2.2919,-2.2758,-2.2872,-2.3309,-2.358,-2.3754,-2.41,-2.4529,-2.4871,-2.5052,-2.5559,-2.5979,-2.6313,-2.6715,0.0,0.0,0.0,-2.8247,-2.8816,-2.8986,0.0,0.0,0.0,-3.0685,-3.0986,-3.1286,0.0,0.0,-3.1861,-3.2464,0.0,0.0,0.0,0.0,0.0,0.0,0.0,0.0,0.0,0.0,0.0,0.0,0.0,0.0,0.0,0.0,-0.1642,-0.1766,-0.1976,-0.2293,-0.2641,-0.3054,-0.3395,-0.3639,-0.3918,-0.4258,-0.4592,-0.4929,-0.5156,-0.5382,-0.5382,-0.5382,0.0,0.0,0.0,-0.6606,-0.7154,-0.7154,-0.7154,-0.7154,-0.7154,-0.7379,-0.7607,-0.7826,-0.8152,-0.8484,-0.8826,-0.894,-0.8937,-0.9268,-0.9599,-0.9816,-0.9926,-1.0147,-1.0472,-1.135,-1.1787,-1.2114,-1.2772,0.0,0.0,-1.4062,-1.4708,-1.525,-1.5785,-1.653,-1.7279,-1.7687,-1.8534,-1.9376,-1.9783,-2.0403,-2.1151,-2.1537,-2.1957,-2.2353,-2.2962,-2.3165,-2.3344,-2.3758,-2.4316,-2.4594,-2.4628,-2.3849,-2.3388,-2.3911,-2.4313,-2.454,-2.4625,-2.5041,-2.5464,-2.5895,-2.5979,0.0,-2.6891,-2.7115,-2.7348,-2.7603,-2.8247,-2.8895,-2.9431,-2.9689,-2.9934,-3.0228,-3.0761,-3.1061,-3.1136,-3.1736,-3.2131,-3.235,-3.235,-3.2855,0.0,0.0,0.0,0.0,0.0,0.0,0.0,0.0,0.0,0.0,0.0,0.0,0.0,0.0,0.0,-0.0808,-0.1334,-0.167,-0.1798,-0.2039,-0.2497,-0.3062,-0.3432,-0.3687,-0.3923,-0.4258,-0.4592,-0.4929,-0.5156,-0.5382,-0.5382,-0.5382,-0.5603,-0.5935,-0.6161,-0.6495,-0.6824,-0.7046,-0.7154,-0.7154,-0.7154,0.0,-0.7607,-0.7826,-0.8152,-0.8484,-0.8826,-0.894,-0.8937,-0.9268,-0.971,-1.0257,-1.0472,-1.0692,-1.1021,-1.1459,-1.1896,-1.2441,-1.2989,-1.3527,-1.4169,-1.4713,-1.525,-1.5785,-1.6418,-1.7054,0.0,-1.8408,-1.8945,-1.948,-2.0403,-2.1121,-2.1709,-2.224,-2.3024,-2.37,-2.3815,-2.4393,-2.489,-2.482,-2.5045,-2.5405,-2.5584,-2.4816,-2.4374,-2.4882,-2.4681,-2.4711,-2.52,-2.5549,-2.5884,-2.6113,-2.661,-2.7021,-2.7115,-2.7534,-2.795,-2.8259,-2.8882,-2.9365,-2.9702,-2.9934,-3.0305,-3.0836,-3.0911,-3.1211,-3.1743,-3.2509,-3.2962,-3.3184,-3.3331,-3.3692,0.0,0.0,0.0,0.0,0.0,0.0,0.0,0.0,0.0,0.0,0.0,0.0,0.0,0.0,-0.0101,-0.0307,-0.1144,-0.1695,-0.1723,-0.1972,-0.2327,-0.2881,-0.3124,-0.3475,-0.3813,-0.4035,-0.437,-0.4704,-0.4931,-0.5268,-0.5382,-0.5382,-0.5491,-0.5822,-0.6161,-0.6383,-0.6715,-0.7043,-0.7154,-0.7154,-0.7379,-0.7493,-0.7826,-0.8156,-0.8377,-0.8712,-0.8826,-0.9047,-0.9158,-0.9706,-1.0147,-1.0692,-1.0802,-1.1131,-1.135,-1.1678,-1.2114,-1.2659,-1.3098,-1.3743,-1.4277,-1.4821,-1.5464,-1.5998,-1.6743,-1.7378,-1.801,-1.884,-1.9472,-1.9998,-2.0719,-2.1522,-2.2224,-2.2728,-2.3529,-2.4233,-2.4815,-2.5216,-2.5644,-2.5909,-2.6249,-2.6472,-2.6703,-2.6378,-2.6083,-2.5952,-2.5985,-2.6001,-2.6,-2.6414,-2.6663,-2.6715,-2.7021,-2.7278,-2.7534,-2.795,-2.8443,-2.9077,-2.9456,-2.9767,-3.0075,-3.0381,-3.0685,-3.0986,-3.1286,-3.1803,-3.2469,-3.2989,-3.3586,-3.4173,-3.4641,-3.5004,0.0,0.0,0.0,0.0,0.0,0.0,0.0,0.1554,0.1573,0.1579,0.09,0.0202,0.0,0.0,0.0,0.0,-0.074,-0.1401,-0.1637,-0.1997,-0.2244,-0.2581,-0.2915,-0.325,-0.3475,-0.3813,-0.4148,-0.4369,-0.4706,-0.5043,-0.5268,-0.5382,-0.5491,-0.5712,-0.6049,-0.6383,-0.6604,-0.7046,-0.7154,-0.7154,-0.7493,-0.7715,-0.8045,-0.8374,-0.8598,-0.894,-0.894,-0.9268,-0.9599,-1.0147,-1.0692,-1.1126,-1.1236,-1.1455,-1.1787,-1.2005,-1.2441,-1.2989,-1.331,-1.3851,-1.4493,-1.5035,-1.5571,-1.6318,-1.7067,-1.7701,-1.8436,-1.9272,-1.9998,-2.0719,-2.1121,-2.1928,-2.2828,-2.3329,-2.3926,-2.4618,-2.5499,-2.5887,-2.6177,-2.686,-2.7251,-2.7536,-2.782,-2.7886,-2.7651,-2.7018,-2.7225,-2.736,-2.7039,-2.735,-2.7583,-2.7474,-2.758,-2.7708,-2.8122,-2.851,-2.9077,-2.9792,-2.9869,-3.0088,-3.052,-3.0823,-3.1061,-3.1136,-3.1776,-3.2442,-3.3139,-3.3669,-3.4325,-3.5125,-3.5967,-3.6254,0.2243,0.182,0.1483,0.1513,0.1521,0.1529,0.0,0.1569,0.1579,0.1606,0.1513,0.1111,0.0202,0.0,0.0,0.0,-0.0107,-0.0546,-0.1531,-0.1776,-0.1908,-0.2244,-0.2802,-0.3137,-0.3138,-0.3699,-0.4038,-0.4036,-0.4594,-0.4929,-0.4931,-0.5268,-0.5382,-0.5493,-0.6051,-0.6274,-0.6386,-0.6935,-0.7154,-0.7154,-0.7493,-0.7715,-0.8045,-0.8374,-0.8598,-0.894,-0.9268,-0.971,-1.0257,-1.0582,-1.0802,-1.1126,-1.1678,-1.2114,-1.2327,-1.2327,-1.2767,-1.3315,-1.3846,-1.4493,-1.5035,-1.5571,-1.6318,-1.7067,-1.7483,-1.8325,-1.9272,-1.9879,-2.0403,-2.1121,-2.203,-2.2728,-2.3329,-2.3827,-2.4815,-2.5596,-2.5693,-2.6476,-2.7167,-2.7251,-2.7631,-2.8092,-2.856,-2.8713,-2.8517,-2.7945,-2.7766,-2.7897,-2.8471,-2.8557,-2.863,-2.8538,-2.888,-2.9015,-2.8931,-2.939,-2.9714,-2.9792,-3.0152,-3.052,-3.0911,-3.0986,-3.1211,-3.1817,-3.255,-3.3071,-3.3362,-3.4796,-3.5669,-3.5981,-3.6753,-3.6982,0.1861,0.1685,0.1515,0.1545,0.1553,0.156,0.1591,0.1598,0.1601,0.1614,0.1617,0.152,0.1025,0.0413,0.0,0.0,0.0,-0.022,-0.0665,-0.134,-0.1795,-0.1908,-0.2355,-0.269,-0.3025,-0.3362,-0.3587,-0.3924,-0.426,-0.4484,-0.4929,-0.5043,-0.5156,-0.5382,-0.5826,-0.6049,-0.6274,-0.6715,-0.7046,-0.7382,-0.7715,-0.8045,-0.8263,-0.8819,-0.9154,-0.9485,-0.9816,-1.0147,-1.0582,-1.0802,-1.124,-1.1678,-1.1896,-1.2332,-1.2659,-1.2659,-1.3098,-1.364,-1.4062,-1.4708,-1.5351,-1.5785,-1.6636,-1.7483,-1.7898,-1.8639,-1.948,-2.03,-2.0909,-2.1522,-2.2325,-2.3129,-2.3926,-2.443,-2.5118,-2.5887,-2.6476,-2.6965,-2.7441,-2.8102,-2.8373,-2.8653,-2.9117,-2.9393,-2.951,-2.9296,-2.9184,-2.9215,-2.9217,-2.9433,-2.9453,-2.9071,-2.9467,-2.9665,-2.9506,-2.9714,-2.9946,-3.0318,-3.0609,-3.0898,-3.1123,-3.1434,-3.189,-3.261,-3.3003,-3.3779,-3.4782,-3.5585,-3.6248,-3.6844,-3.742,-3.7634,0.1728,0.1538,0.1546,0.1577,0.1584,0.159,0.1612,0.1617,0.1617,0.1617,0.1617,0.1626,0.1656,0.1043,0.0317,0.0,0.0,0.0,0.0,-0.1009,-0.1795,-0.1795,-0.202,-0.2243,-0.2802,-0.3026,-0.325,-0.3699,-0.3924,-0.4148,-0.4596,-0.4817,-0.5043,-0.5268,-0.5601,-0.5935,-0.6274,-0.6604,-0.7049,-0.7607,-0.7826,-0.8266,-0.8595,-0.9265,-0.971,-0.9926,-1.0257,-1.0582,-1.0802,-1.1236,-1.1678,-1.2114,-1.2223,-1.2659,-1.3098,-1.3202,-1.3527,-1.3856,-1.4277,-1.4922,-1.5672,-1.6105,-1.6955,-1.7799,-1.8429,-1.9056,-1.9791,-2.0814,-2.1522,-2.2123,-2.2728,-2.3628,-2.443,-2.502,-2.5606,-2.638,-2.7156,-2.7536,-2.7914,-2.8664,-2.8943,-2.9117,-2.9577,-2.9943,-3.0216,-3.0408,-3.0487,-3.045,-3.0178,-3.0355,-3.0408,-3.007,-3.0138,-3.0127,-3.0133,-3.0112,-3.0241,-3.0773,-3.0986,-3.1211,-3.1421,-3.1964,-3.2556,-3.3199,-3.3751,-3.4657,-3.5913,-3.6234,-3.6787,-3.7457,-3.7839,-3.8066,0.2051,0.1767,0.1577,0.1608,0.1615,0.1615,0.1616,0.1617,0.1617,0.1617,0.1617,0.1626,0.1656,0.1686,0.1287,0.0218,0.0,0.0,0.0,-0.1009,-0.1795,-0.1795,-0.1795,-0.1908,-0.2244,-0.2802,-0.3137,-0.3137,-0.3699,-0.4038,-0.4038,-0.4596,-0.4929,-0.4929,-0.5487,-0.5935,-0.6274,-0.6604,-0.7049,-0.7607,-0.7826,-0.8263,-0.8923,-0.9482,-0.9926,-1.0257,-1.0582,-1.0798,-1.1126,-1.1782,-1.2114,-1.2441,-1.2767,-1.3207,-1.3748,-1.4062,-1.4169,-1.4277,-1.4821,-1.5357,-1.5998,-1.6855,-1.749,-1.8122,-1.8959,-1.9791,-2.0617,-2.1428,-2.2021,-2.2728,-2.3728,-2.443,-2.503,-2.5596,-2.6476,-2.7262,-2.7262,-2.8102,-2.8746,-2.8757,-2.9209,-2.9669,-3.0125,-3.0216,-3.0408,-3.0883,-3.1318,-3.1661,-3.1649,-3.1551,-3.1662,-3.1769,-3.106,-3.0649,-3.0887,-3.0778,-3.0773,-3.0986,-3.1198,-3.1508,-3.189,-3.2651,-3.3199,-3.3362,-3.4954,-3.5885,-3.6065,-3.69,-3.7443,-3.7853,-3.8066,-3.8277,0.2296,0.22,0.2103,0.2116,0.2119,0.2119,0.2119,0.2119,0.212,0.192,0.1938,0.1861,0.1684,0.1715,0.1636,0.122,0.0894,0.0449,0.0112,-0.0336,-0.0897,-0.1683,-0.1795,-0.1795,-0.1908,-0.2243,-0.2579,-0.2805,-0.3139,-0.3475,-0.3699,-0.4148,-0.4484,-0.4929,-0.5041,-0.5601,-0.6274,-0.6604,-0.7046,-0.7826,-0.8602,-0.9265,-0.9812,-1.0253,-1.0582,-1.0802,-1.1131,-1.1459,-1.1782,-1.2114,-1.2441,-1.2772,-1.3098,-1.3527,-1.4067,-1.4169,-1.4708,-1.5351,-1.5571,-1.5891,-1.6318,-1.7166,-1.7898,-1.8729,-1.9569,-2.03,-2.1019,-2.192,-2.2627,-2.3229,-2.3926,-2.4726,-2.5606,-2.61,-2.6774,-2.7452,-2.8196,-2.8571,-2.8943,-2.9416,-2.9772,-3.0034,-3.0397,-3.0758,-3.1128,-3.1596,-3.1673,-3.1849,-3.2125,-3.2228,-3.2301,-3.2097,-3.1971,-3.1779,-3.1344,-3.1345,-3.1392,-3.1224,-3.1508,-3.1991,-3.2678,-3.3104,-3.3806,-3.4982,-3.5551,-3.6185,-3.6915,-3.7281,-3.7625,-3.7929,-3.8217,-3.8516,0.2623,0.2522,0.2422,0.2422,0.2422,0.2422,0.2422,0.2422,0.2326,0.2241,0.2264,0.2194,0.2035,0.1954,0.187,0.179,0.1458,0.1121,0.0673,0.0224,-0.0336,-0.1009,-0.157,-0.1683,-0.1458,-0.1795,-0.2132,-0.2469,-0.2805,-0.3027,-0.3253,-0.3701,-0.4036,-0.437,-0.4706,-0.5266,-0.6161,-0.6492,-0.7268,-0.8374,-0.9372,-1.0036,-1.0472,-1.0802,-1.1131,-1.135,-1.1678,-1.2001,-1.2223,-1.255,-1.2881,-1.3207,-1.3532,-1.3959,-1.4385,-1.4606,-1.5143,-1.5891,-1.5891,-1.6318,-1.6849,-1.7687,-1.8422,-1.9146,-2.0086,-2.0814,-2.1428,-2.2526,-2.3129,-2.3728,-2.452,-2.5304,-2.6091,-2.6688,-2.7347,-2.8008,-2.8664,-2.9035,-2.9324,-2.9874,-3.0227,-3.0487,-3.0937,-3.1395,-3.1849,-3.2201,-3.2201,-3.2288,-3.2649,-3.281,-3.2918,-3.271,-3.2759,-3.2692,-3.2278,-3.2254,-3.2132,-3.1854,-3.2238,-3.2739,-3.3199,-3.3833,-3.4665,-3.5746,-3.6123,-3.6676,-3.738,-3.7625,-3.7853,-3.8156,-3.8441,-3.8723,0.2826,0.2623,0.2422,0.2422,0.2422,0.2422,0.2422,0.2422,0.2435,0.248,0.2491,0.2521,0.261,0.2408,0.2092,0.1903,0.1795,0.1795,0.1795,0.0785,0.0112,0.0,-0.1009,-0.1458,-0.0897,-0.1346,-0.1795,-0.2132,-0.2469,-0.2693,-0.2693,-0.3253,-0.3587,-0.3587,-0.437,-0.5152,-0.5822,-0.649,-0.7598,-0.903,-1.0139,-1.0692,-1.0802,-1.135,-1.1678,-1.1678,-1.2223,-1.2441,-1.2441,-1.3098,-1.3532,-1.3748,-1.4062,-1.4385,-1.4713,-1.5261,-1.5684,-1.5998,-1.5998,-1.6736,-1.7687,-1.8213,-1.8848,-1.9583,-2.0609,-2.1326,-2.1928,-2.3029,-2.3728,-2.4421,-2.5401,-2.61,-2.6688,-2.7167,-2.8102,-2.885,-2.885,-2.9416,-2.9977,-3.0216,-3.0487,-3.0847,-3.1572,-3.2113,-3.2475,-3.2711,-3.2982,-3.3167,-3.3167,-3.3326,-3.3471,-3.3725,-3.3418,-3.3355,-3.3587,-3.3291,-3.3037,-3.2845,-3.3405,-3.3625,-3.3545,-3.4768,-3.562,-3.5878,-3.6838,-3.738,-3.7625,-3.7853,-3.8081,-3.8516,-3.8723,-3.8943,0.313,0.3029,0.3027,0.3027,0.3027,0.3027,0.3027,0.3027,0.2943,0.2791,0.2832,0.2772,0.2615,0.2543,0.2456,0.213,0.2132,0.202,0.1795,0.157,0.1121,0.0673,0.0449,0.0112,-0.0224,-0.0336,-0.0673,-0.1234,-0.1683,-0.202,-0.202,-0.2468,-0.3029,-0.3587,-0.4036,-0.4817,-0.6154,-0.7814,-0.9251,-1.0249,-1.0798,-1.1236,-1.1673,-1.2005,-1.2332,-1.255,-1.2881,-1.3098,-1.3098,-1.3738,-1.3954,-1.4175,-1.4606,-1.5041,-1.5261,-1.5684,-1.6099,-1.6524,-1.7047,-1.7371,-1.7793,-1.8743,-1.9472,-2.0086,-2.0909,-2.1725,-2.2526,-2.3329,-2.4134,-2.4824,-2.5499,-2.638,-2.7167,-2.7452,-2.8196,-2.8943,-2.9209,-2.976,-3.0227,-3.0487,-3.1026,-3.1484,-3.1849,-3.2288,-3.2723,-3.2982,-3.3154,-3.3313,-3.3313,-3.3471,-3.3725,-3.3992,-3.403,-3.4018,-3.3857,-3.3993,-3.3963,-3.354,-3.3865,-3.4375,-3.4906,-3.544,-3.6123,-3.6894,-3.7141,-3.7457,-3.7853,-3.7991,-3.8292,-3.8516,-3.8885,-3.9031,0.323,0.323,0.323,0.323,0.323,0.323,0.323,0.3252,0.3185,0.3139,0.3195,0.3142,0.3087,0.2898,0.2805,0.2579,0.2468,0.2356,0.202,0.1907,0.1683,0.1346,0.1346,0.1121,0.0785,0.0561,0.0224,-0.0112,-0.0897,-0.1458,-0.1458,-0.1907,-0.2355,-0.2803,-0.3477,-0.4815,-0.6816,-0.892,-1.0355,-1.1131,-1.1673,-1.2114,-1.2441,-1.2659,-1.2989,-1.3315,-1.3527,-1.3743,-1.3959,-1.4385,-1.46,-1.4606,-1.5143,-1.547,-1.5684,-1.6105,-1.663,-1.716,-1.7589,-1.801,-1.8429,-1.9264,-1.9887,-2.0601,-2.142,-2.2224,-2.3029,-2.3827,-2.4618,-2.5411,-2.6091,-2.686,-2.7536,-2.8008,-2.8664,-2.9209,-2.9669,-3.0125,-3.0487,-3.1026,-3.1572,-3.2025,-3.2288,-3.2711,-3.3056,-3.324,-3.3484,-3.3738,-3.3738,-3.3823,-3.3979,-3.434,-3.4494,-3.4528,-3.4538,-3.4754,-3.4739,-3.4394,-3.4831,-3.5228,-3.5606,-3.6025,-3.6564,-3.7303,-3.738,-3.7625,-3.7929,-3.8217,-3.8441,-3.8664,-3.8943,-3.9177,0.323,0.323,0.323,0.323,0.323,0.323,0.323,0.338,0.3442,0.3505,0.3564,0.3625,0.3688,0.3474,0.325,0.3138,0.2915,0.2693,0.2356,0.202,0.1908,0.1908,0.1908,0.1907,0.1795,0.1346,0.1121,0.1121,0.0224,-0.0449,-0.0673,-0.1234,-0.1458,-0.157,-0.3246,-0.525,-0.747,-0.9904,-1.1455,-1.1891,-1.2659,-1.3093,-1.3093,-1.3423,-1.364,-1.3856,-1.4169,-1.4493,-1.4713,-1.5035,-1.5143,-1.5143,-1.5785,-1.5998,-1.6099,-1.6624,-1.7153,-1.7687,-1.8016,-1.8646,-1.9376,-1.9687,-2.03,-2.1121,-2.1928,-2.2728,-2.3529,-2.4332,-2.5118,-2.5907,-2.6835,-2.7388,-2.7935,-2.874,-2.9254,-2.9669,-3.0125,-3.0487,-3.0937,-3.1572,-3.2125,-3.2475,-3.2636,-3.3056,-3.3398,-3.3484,-3.3823,-3.4076,-3.416,-3.416,-3.4327,-3.4756,-3.4839,-3.5003,-3.5399,-3.5399,-3.5439,-3.5333,-3.5878,-3.6077,-3.5913,-3.6493,-3.6943,-3.7303,-3.7534,-3.7777,-3.7929,-3.8366,-3.8649,-3.8782,-3.9017,-3.9322,0.323,0.323,0.323,0.323,0.3332,0.3534,0.3534,0.3789,0.4065,0.414,0.4213,0.4286,0.4355,0.4035,0.3813,0.3587,0.325,0.2915,0.2693,0.2581,0.2581,0.2581,0.2581,0.2356,0.1795,0.202,0.2244,0.2356,0.2244,0.157,0.0449,0.0224,0.0,-0.0336,-0.4554,-0.6756,-0.6756,-1.1272,-1.3496,-1.3295,-1.3732,-1.4062,-1.4283,-1.4385,-1.4498,-1.4826,-1.4821,-1.4928,-1.4928,-1.5571,-1.5785,-1.5785,-1.6311,-1.6518,-1.6624,-1.7265,-1.7477,-1.7687,-1.875,-1.9272,-1.968,-2.0205,-2.0917,-2.1623,-2.2224,-2.3129,-2.4035,-2.4637,-2.5421,-2.6277,-2.7534,-2.802,-2.8492,-2.9165,-2.9695,-3.0125,-3.0216,-3.0847,-3.1572,-3.1849,-3.2288,-3.2636,-3.2711,-3.3056,-3.3484,-3.3641,-3.3907,-3.416,-3.4314,-3.4314,-3.4494,-3.4769,-3.4921,-3.5154,-3.5399,-3.5562,-3.5763,-3.5935,-3.6191,-3.6429,-3.6554,-3.695,-3.7303,-3.7534,-3.7777,-3.7929,-3.8127,-3.8575,-3.8797,-3.8782,-3.9177,-3.9481,0.3332,0.3433,0.3432,0.3531,0.3734,0.3835,0.3835,0.4022,0.4216,0.4254,0.4351,0.4439,0.4474,0.4369,0.4258,0.4033,0.3811,0.3475,0.3253,0.3029,0.2805,0.2693,0.2693,0.2581,0.2244,0.2469,0.2581,0.2693,0.2693,0.2357,0.1683,0.2018,0.1905,0.1231,-0.4867,-0.7719,-0.6829,-1.221,-1.4894,-1.4809,-1.503,-1.5137,-1.5244,-1.5244,-1.5464,-1.5684,-1.5684,-1.5785,-1.5885,-1.6205,-1.6311,-1.6311,-1.6743,-1.706,-1.7265,-1.7694,-1.8115,-1.8534,-1.9063,-1.9791,-2.0403,-2.0917,-2.1522,-2.2021,-2.2728,-2.3529,-2.4477,-2.5385,-2.6232,-2.7124,-2.8261,-2.8902,-2.9458,-3.0179,-3.06,-3.0973,-3.1167,-3.1496,-3.195,-3.2125,-3.2463,-3.2723,-3.2896,-3.3313,-3.3556,-3.3713,-3.3979,-3.4314,-3.4397,-3.4494,-3.4673,-3.4921,-3.5154,-3.5318,-3.5562,-3.5804,-3.5992,-3.6246,-3.6484,-3.6628,-3.685,-3.7148,-3.738,-3.7625,-3.7777,-3.8081,-3.8366,-3.8649,-3.887,-3.8943,-3.9394,-3.9877,0.3635,0.3736,0.3736,0.3932,0.4033,0.4135,0.4135,0.4255,0.4473,0.4473,0.4597,0.4704,0.4704,0.4592,0.4592,0.4592,0.437,0.4036,0.3811,0.3586,0.3362,0.3141,0.3141,0.3029,0.303,0.303,0.3029,0.303,0.303,0.3029,0.2806,0.3363,0.3473,0.3023,-0.4515,-0.7898,-0.6676,-1.3291,-1.6449,-1.6311,-1.6267,-1.6267,-1.6211,-1.6099,-1.6211,-1.643,-1.643,-1.653,-1.673,-1.673,-1.6842,-1.6942,-1.7279,-1.7589,-1.7793,-1.8122,-1.875,-1.9383,-1.9583,-2.0205,-2.1027,-2.1623,-2.2021,-2.2426,-2.3229,-2.4089,-2.5022,-2.6151,-2.7112,-2.8084,-2.9027,-2.9762,-3.0469,-3.1145,-3.161,-3.2062,-3.2349,-3.2304,-3.2296,-3.256,-3.2723,-3.2896,-3.3154,-3.3484,-3.3725,-3.381,-3.4147,-3.4397,-3.4397,-3.466,-3.4921,-3.5086,-3.5318,-3.548,-3.571,-3.5992,-3.6166,-3.6405,-3.6563,-3.6786,-3.6978,-3.7226,-3.7457,-3.7625,-3.7853,-3.8142,-3.8516,-3.8723,-3.887,-3.9104,-3.9538,-4.0202,0.3934,0.3934,0.3934,0.4033,0.4135,0.4338,0.4338,0.4669,0.5002,0.5002,0.5144,0.527,0.527,0.5043,0.4817,0.4817,0.4594,0.448,0.4369,0.4369,0.4367,0.4369,0.4369,0.4257,0.3924,0.4147,0.4257,0.3924,0.4147,0.392,0.3138,0.3585,0.4365,0.5146,-0.3386,-0.7161,-0.5744,-1.4556,-1.8575,-1.7779,-1.7534,-1.732,-1.7067,-1.6736,-1.6624,-1.6624,-1.6624,-1.673,-1.673,-1.706,-1.7279,-1.7582,-1.7799,-1.8122,-1.8422,-1.8959,-1.9279,-1.948,-2.0411,-2.0822,-2.1019,-2.2123,-2.2627,-2.3029,-2.3728,-2.488,-2.599,-2.6636,-2.7651,-2.888,-3.0024,-3.0427,-3.0879,-3.2111,-3.2547,-3.2885,-3.3361,-3.3235,-3.3125,-3.3368,-3.3233,-3.3154,-3.3313,-3.3556,-3.381,-3.3992,-3.4243,-3.4397,-3.4397,-3.4825,-3.5086,-3.5086,-3.5318,-3.548,-3.571,-3.5992,-3.6166,-3.6405,-3.6563,-3.6786,-3.6978,-3.738,-3.7625,-3.7625,-3.7991,-3.8292,-3.8516,-3.8723,-3.887,-3.9104,-3.9538,-4.0202,0.4236,0.4236,0.4236,0.4435,0.4535,0.4649,0.4702,0.4912,0.5122,0.539,0.5509,0.5714,0.594,0.5712,0.5487,0.5487,0.5041,0.4706,0.4706,0.4592,0.448,0.448,0.448,0.448,0.437,0.4369,0.448,0.4258,0.4815,0.4925,0.4479,0.47,0.526,0.6154,0.0219,-0.4025,-0.6132,-1.2243,-1.6744,-1.9413,-1.8704,-1.8292,-1.817,-1.7874,-1.7681,-1.7681,-1.7681,-1.7681,-1.7681,-1.7898,-1.801,-1.8108,-1.822,-1.8534,-1.8959,-1.9168,-1.9583,-2.0101,-2.0719,-2.1224,-2.1725,-2.2526,-2.3287,-2.4088,-2.4601,-2.5415,-2.6545,-2.7683,-2.8674,-2.9642,-3.0809,-3.1706,-3.2465,-3.3247,-3.3397,-3.3552,-3.4011,-3.3876,-3.367,-3.3504,-3.3533,-3.3458,-3.329,-3.3471,-3.3713,-3.381,-3.4147,-3.4397,-3.4397,-3.4825,-3.5086,-3.5086,-3.5399,-3.5642,-3.571,-3.6058,-3.6325,-3.6405,-3.6693,-3.6915,-3.6978,-3.738,-3.7625,-3.7625,-3.7991,-3.8352,-3.8649,-3.8782,-3.8943,-3.9265,-3.9696,-4.0501,0.4437,0.4537,0.4537,0.4734,0.4834,0.4962,0.5056,0.5252,0.5452,0.5764,0.5865,0.6047,0.6274,0.6161,0.5935,0.5935,0.5601,0.5266,0.5152,0.5039,0.4815,0.4817,0.4817,0.4817,0.4817,0.4815,0.4927,0.5041,0.5375,0.5708,0.5817,0.5929,0.6265,0.6937,0.2634,-0.1965,-0.6498,-1.0853,-1.5614,-2.0565,-1.9679,-1.9198,-1.8985,-1.8569,-1.8422,-1.8422,-1.8422,-1.8422,-1.8422,-1.8422,-1.8429,-1.8534,-1.8639,-1.8952,-1.948,-1.9583,-2.0101,-2.0617,-2.1019,-2.1623,-2.2325,-2.2929,-2.3898,-2.5071,-2.5588,-2.6319,-2.7159,-2.8594,-2.9691,-3.0574,-3.1633,-3.2656,-3.3679,-3.3977,-3.4086,-3.4198,-3.4664,-3.4438,-3.4225,-3.409,-3.4034,-3.3771,-3.3469,-3.3585,-3.3725,-3.381,-3.4147,-3.4397,-3.4397,-3.4743,-3.5003,-3.5086,-3.5399,-3.5642,-3.571,-3.6138,-3.6405,-3.6405,-3.6772,-3.7056,-3.707,-3.738,-3.7625,-3.7701,-3.8066,-3.8427,-3.8782,-3.8782,-3.9017,-3.9496,-4.0051,-4.1085,0.4834,0.4834,0.4834,0.4834,0.5037,0.5267,0.5366,0.5673,0.5986,0.6093,0.6201,0.6274,0.6274,0.6274,0.6274,0.6274,0.6274,0.6161,0.5822,0.5822,0.5712,0.5382,0.5382,0.5382,0.5382,0.5601,0.5935,0.6274,0.6274,0.6383,0.6712,0.7046,0.7268,0.7607,0.3074,-0.1635,-0.6471,-1.1507,-1.6442,-2.1101,-2.0565,-1.9968,-1.9327,-1.8675,-1.8422,-1.8422,-1.8422,-1.8422,-1.8422,-1.8422,-1.8646,-1.8869,-1.9175,-1.948,-1.9783,-2.0308,-2.0617,-2.1019,-2.1522,-2.2021,-2.2627,-2.3429,-2.4409,-2.543,-2.6643,-2.7481,-2.8251,-2.9096,-3.0638,-3.2015,-3.2443,-3.3258,-3.4075,-3.4075,-3.4445,-3.492,-3.5512,-3.5178,-3.4891,-3.5344,-3.465,-3.3972,-3.4135,-3.3926,-3.381,-3.4076,-3.4243,-3.4397,-3.4397,-3.466,-3.4839,-3.5086,-3.5318,-3.548,-3.571,-3.6138,-3.6405,-3.6405,-3.6772,-3.707,-3.7303,-3.7457,-3.7701,-3.7853,-3.8066,-3.8427,-3.8782,-3.8782,-3.909,-3.9696,-4.0607,-4.2004,0.5037,0.5037,0.5138,0.5336,0.5436,0.5464,0.567,0.5879,0.609,0.6305,0.6526,0.6604,0.6824,0.6715,0.6604,0.6604,0.6383,0.6274,0.6161,0.6161,0.6161,0.6051,0.6051,0.6051,0.6051,0.6049,0.6161,0.6274,0.6495,0.6715,0.7046,0.7268,0.7604,0.7823,0.6659,0.1976,-0.6471,-0.8149,-1.3197,-2.1418,-2.0992,-2.0502,-1.9847,-1.9515,-1.916,-1.9063,-1.9063,-1.9063,-1.9063,-1.9063,-1.9168,-1.948,-1.9583,-1.9887,-2.0308,-2.0617,-2.0917,-2.1326,-2.203,-2.2526,-2.2972,-2.4052,-2.5126,-2.6161,-2.7398,-2.8048,-2.8642,-3.019,-3.1407,-3.2443,-3.2667,-3.3469,-3.4075,-3.4075,-3.4445,-3.4932,-3.5524,-3.5485,-3.5347,-3.5431,-3.5265,-3.4788,-3.4111,-3.4183,-3.4187,-3.3874,-3.4147,-3.4397,-3.4397,-3.466,-3.4839,-3.5086,-3.5318,-3.548,-3.571,-3.6138,-3.6405,-3.6405,-3.6772,-3.7056,-3.707,-3.738,-3.7625,-3.7701,-3.8066,-3.8427,-3.8782,-3.8782,-3.94,-4.0622,-4.1507,-4.2594,0.5338,0.5338,0.5438,0.5536,0.5636,0.5766,0.5875,0.6088,0.6412,0.6632,0.6743,0.6935,0.7154,0.7043,0.6935,0.6935,0.6715,0.6604,0.6495,0.6495,0.6383,0.6274,0.6274,0.6386,0.6495,0.6495,0.6495,0.672,0.694,0.7157,0.749,0.7823,0.8048,0.8152,0.8374,0.364,-0.6362,-0.6546,-1.1634,-2.1518,-2.1179,-2.0796,-2.037,-2.003,-1.968,-1.948,-1.9576,-1.9583,0.0,-1.9576,-1.968,-1.9879,-1.999,-2.0205,-2.0522,-2.0917,-2.1224,-2.1522,-2.2224,-2.2728,-2.33,-2.4509,-2.5935,-2.7314,-2.8485,-2.9042,-2.9622,-3.0938,-3.1936,-3.2555,-3.288,-3.3481,-3.4075,-3.4075,-3.4445,-3.4932,-3.532,-3.5524,-3.5618,-3.565,-3.5599,-3.5253,-3.4361,-3.43,-3.4305,-3.3802,-3.4063,-3.4314,-3.4397,-3.4577,-3.4743,-3.5086,-3.5236,-3.5399,-3.571,-3.6058,-3.6325,-3.6405,-3.6693,-3.6915,-3.7148,-3.7457,-3.7625,-3.7701,-3.8052,-3.8427,-3.8782,-3.9342,-4.0259,-4.1392,-4.234,-4.3399,0.0,0.5636,0.5636,0.5634,0.5839,0.607,0.6177,0.65,0.0,0.6948,0.707,0.7154,0.7154,0.7154,0.7154,0.7154,0.7154,0.7043,0.6824,0.6712,0.6604,0.6386,0.6386,0.6495,0.6715,0.6826,0.7049,0.7607,0.7607,0.7715,0.8045,0.8374,0.8484,0.8484,0.8598,0.3749,-0.6352,-0.6468,-1.1494,-2.1441,-2.1145,-2.0891,-2.0544,-2.0223,-1.9983,-1.9783,-1.9983,-1.9983,-1.9783,-1.9983,-2.0086,-2.0189,-2.0411,-2.0522,-2.0617,-2.1121,-2.1522,-2.1818,-2.2426,-2.2955,-2.3763,-2.4996,-2.6807,-2.8712,-2.9766,-3.0412,-3.0931,-3.1424,-3.2037,-3.2555,-3.288,-3.3481,-3.4075,-3.4075,-3.4445,-3.4823,-3.5126,-3.5416,-3.5716,-3.592,-3.5781,-3.5429,-3.4876,-3.4489,-3.4183,-3.3781,-3.392,-3.416,-3.4314,-3.4397,-3.4564,-3.499,-3.5086,-3.5236,-3.5642,-3.5898,-3.6166,-3.6405,-3.6563,-3.6864,-3.7226,-3.7457,-3.7701,-3.7853,-3.8142,-3.8441,-3.8856,-4.0302,-4.1377,-4.209,-4.3131,-4.4164,0.6234,0.0,0.5939,0.6137,0.6237,0.6345,0.0,0.6546,0.6812,0.6839,0.701,0.7154,0.7154,0.7154,0.7154,0.7154,0.7154,0.7154,0.7043,0.7043,0.7046,0.7046,0.716,0.7274,0.7385,0.7604,0.7712,0.7934,0.7934,0.8045,0.8374,0.8484,0.8598,0.8826,0.9044,0.4276,-0.6027,-0.6322,-1.1357,-2.1059,-2.1249,-2.0992,-2.0527,-2.0449,-2.03,-1.9983,-2.0078,-2.0078,-1.9975,-2.0078,-2.0189,-2.0411,-2.0522,-2.0719,-2.1121,-2.1522,-2.1928,-2.2434,-2.2937,-2.3743,-2.4721,-2.6586,-2.7914,-2.9106,-3.0047,-3.0505,-3.0931,-3.1721,-3.2229,-3.2656,-3.3081,-3.3679,-3.4075,-3.4075,-3.4445,-3.4823,-3.5126,-3.5416,-3.5716,-3.592,-3.6081,-3.5994,-3.5441,-3.5082,-3.4705,-3.4196,-3.4093,-3.416,-3.416,-3.4314,-3.4481,-3.4839,-3.5003,-3.5236,-3.548,-3.5817,-3.6166,-3.6405,-3.6563,-3.6786,-3.707,-3.738,-3.7625,-3.7701,-3.8352,-3.8973,-3.9563,-4.0543,-4.1605,-4.2758,-4.3346,-4.4164,0.6437,0.6339,0.6239,0.6337,0.6437,0.6437,0.6437,0.6627,0.6801,0.6801,0.6989,0.7265,0.7379,0.7379,0.7379,0.7601,0.7598,0.7598,0.7598,0.7598,0.7598,0.7598,0.7712,0.7826,0.7826,0.7934,0.8045,0.8266,0.8263,0.8377,0.8709,0.8712,0.8823,0.9158,0.9268,0.5604,-0.2257,-0.4859,-0.9804,-1.7351,-1.994,-2.1004,-2.0719,-2.0719,-2.0514,-2.03,-2.0395,-2.0403,-2.03,-2.0403,-2.0506,-2.0719,-2.0822,-2.1019,-2.1326,-2.1725,-2.2131,-2.2627,-2.3147,-2.4326,-2.574,-2.7328,-2.8466,-2.9237,-3.0297,-3.0724,-3.1034,-3.1936,-3.2342,-3.2645,-3.3181,-3.3679,-3.4075,-3.4075,-3.4445,-3.4823,-3.503,-3.5223,-3.5524,-3.5716,-3.6003,-3.61,-3.5549,-3.5395,-3.5007,-3.435,-3.4142,-3.4118,-3.4115,-3.4243,-3.441,-3.4756,-3.4921,-3.5086,-3.5399,-3.5656,-3.5992,-3.6391,-3.6484,-3.6707,-3.6978,-3.738,-3.7687,-3.7839,-3.8793,-3.9431,-3.9799,-4.1235,-4.2288,-4.3001,-4.3745,-4.4474,0.6537,0.6537,0.6537,0.6437,0.6437,0.6437,0.6437,0.6611,0.6779,0.6798,0.7083,0.7357,0.7601,0.7715,0.7715,0.7934,0.8045,0.8045,0.8045,0.8045,0.8045,0.8045,0.8045,0.8045,0.8045,0.8156,0.8266,0.8484,0.8598,0.8709,0.8937,0.8937,0.9158,0.9379,0.9489,0.752,0.3265,-0.2679,-0.8098,-1.3033,-1.8377,-2.0925,-2.0925,-2.0925,-2.0822,-2.0617,-2.0822,-2.0822,-2.0617,-2.0822,-2.0925,-2.1019,-2.1224,-2.1318,-2.1522,-2.203,-2.2325,-2.2745,-2.358,-2.4868,-2.6454,-2.7776,-2.861,-2.9343,-3.0401,-3.0838,-3.1034,-3.215,-3.2544,-3.2645,-3.3181,-3.3679,-3.4075,-3.4075,-3.4445,-3.4823,-3.4823,-3.503,-3.5223,-3.5512,-3.5812,-3.5866,-3.5674,-3.5512,-3.5228,-3.454,-3.4249,-3.4232,-3.4185,-3.4127,-3.4243,-3.4673,-3.4756,-3.4921,-3.5318,-3.5399,-3.5656,-3.6312,-3.6405,-3.6628,-3.707,-3.738,-3.7806,-3.8347,-3.9293,-3.9902,-4.0094,-4.2047,-4.3047,-4.3153,-4.4174,-4.4814,0.7039,0.7039,0.6936,0.6537,0.6437,0.6437,0.6437,0.6545,0.6676,0.7092,0.7231,0.7474,0.7913,0.7937,0.7934,0.8045,0.8045,0.8045,0.8045,0.8045,0.8045,0.8045,0.8266,0.8374,0.8374,0.8602,0.8826,0.8826,0.8826,0.8826,0.894,0.9158,0.9379,0.9379,0.9926,0.9794,0.8982,-0.0752,-0.8098,-1.3033,-1.8377,-2.0925,-2.0925,-2.0925,-2.0925,-2.0822,-2.0925,-2.0925,-2.0822,-2.0925,-2.1019,-2.1224,-2.1326,-2.1623,-2.2021,-2.2325,-2.2837,-2.3536,-2.5229,-2.5965,-2.6502,-2.8341,-2.8966,-2.9343,-3.0401,-3.0838,-3.1034,-3.215,-3.2544,-3.2645,-3.3181,-3.3679,-3.4075,-3.4075,-3.4445,-3.4823,-3.4823,-3.503,-3.5223,-3.5223,-3.562,-3.5991,-3.5891,-3.5681,-3.5491,-3.5316,-3.4666,-3.4285,-3.4481,-3.4301,-3.416,-3.441,-3.466,-3.4921,-3.5168,-3.5318,-3.5575,-3.6072,-3.6325,-3.6707,-3.7471,-3.7548,-3.8036,-3.9044,-3.9528,-4.033,-4.1435,-4.2498,-4.3274,-4.3836,-4.4373,-4.4814,0.7238,0.7238,0.7138,0.6936,0.6836,0.6836,0.6836,0.6937,0.7067,0.7407,0.7535,0.7774,0.8238,0.8266,0.8266,0.8491,0.8491,0.8491,0.8491,0.8491,0.8491,0.8491,0.8602,0.8712,0.8712,0.8826,0.894,0.894,0.9051,0.9158,0.9158,0.9489,0.9706,0.9926,1.0147,1.0366,1.0472,-0.0,-0.65,-0.8839,-1.7021,-2.0925,-2.0925,-2.0925,-2.0925,-2.0925,-2.0925,-2.0925,-2.0917,-2.1019,-2.1224,-2.1326,-2.1623,-2.1928,-2.2131,-2.2736,-2.3338,-2.4054,-2.5675,-2.6275,-2.6727,-2.8525,-2.9132,-2.9343,-3.0401,-3.0838,-3.1034,-3.1936,-3.2342,-3.2645,-3.3181,-3.358,-3.3878,-3.4075,-3.4359,-3.4628,-3.4726,-3.4932,-3.503,-3.5126,-3.5416,-3.562,-3.592,-3.5899,-3.5706,-3.5499,-3.5206,-3.4742,-3.4399,-3.4366,-3.434,-3.4269,-3.441,-3.4743,-3.5086,-3.5154,-3.5494,-3.6246,-3.6484,-3.6864,-3.7548,-3.7939,-3.85,-3.9204,-4.0261,-4.1126,-4.173,-4.295,-4.3684,-4.3988,-4.4435,-4.4814,0.7338,0.7338,0.7338,0.7338,0.7338,0.7238,0.7238,0.7321,0.7443,0.7719,0.7833,0.8059,0.8455,0.8598,0.8709,0.8826,0.894,0.894,0.894,0.894,0.894,0.894,0.894,0.8937,0.9047,0.9051,0.9047,0.9158,0.9379,0.9489,0.9489,0.9816,1.0036,1.0257,1.0363,0.9889,0.8835,-0.0429,-0.5118,-0.5224,-1.5799,-2.0925,-2.0925,-2.0925,-2.0925,-2.0925,-2.0925,-2.0925,-2.0925,-2.1224,-2.1326,-2.142,-2.1928,-2.2224,-2.2535,-2.3147,-2.38,-2.4572,-2.5814,-2.6454,-2.7069,-2.8565,-2.9132,-2.9343,-3.0401,-3.0838,-3.0931,-3.1823,-3.2229,-3.2656,-3.3081,-3.3481,-3.3779,-3.3977,-3.4249,-3.4433,-3.4628,-3.4726,-3.4823,-3.503,-3.5126,-3.532,-3.5716,-3.592,-3.5866,-3.5619,-3.5537,-3.524,-3.4654,-3.4703,-3.4584,-3.4335,-3.4438,-3.4721,-3.5086,-3.5288,-3.5696,-3.6532,-3.6771,-3.7074,-3.7685,-3.8439,-3.9089,-3.9576,-4.0993,-4.1804,-4.1951,-4.3326,-4.3988,-4.3988,-4.4435,-4.4814,0.7939,0.7939,0.7939,0.7939,0.7537,0.7238,0.7238,0.7244,0.7327,0.7903,0.8075,0.8272,0.8773,0.8826,0.8826,0.894,0.894,0.894,0.894,0.894,0.894,0.894,0.894,0.9051,0.9379,0.9379,0.9489,0.9706,0.9706,0.9816,0.9816,1.0036,1.0257,1.0257,1.0582,0.8269,0.3465,-0.2246,-0.5118,-0.5224,-1.5799,-2.0925,-2.0925,-2.0925,-2.0925,-2.0925,-2.0925,-2.0925,-2.0925,-2.1224,-2.1428,-2.1725,-2.203,-2.2636,-2.3347,-2.3347,-2.4181,-2.5172,-2.5918,-2.6645,-2.7466,-2.8665,-2.9132,-2.9343,-3.0401,-3.0838,-3.0931,-3.1823,-3.2229,-3.2555,-3.288,-3.3281,-3.3679,-3.3679,-3.4052,-3.4433,-3.4433,-3.4628,-3.4835,-3.4835,-3.503,-3.5223,-3.5223,-3.5716,-3.6003,-3.5966,-3.5694,-3.5609,-3.5729,-3.5364,-3.4997,-3.4844,-3.4865,-3.4914,-3.5125,-3.5814,-3.6468,-3.7234,-3.7234,-3.7543,-3.8153,-3.9002,-3.9791,-4.0651,-4.1368,-4.2025,-4.2614,-4.3551,-4.3988,-4.3988,-4.4435,-4.4814,0.8014,0.8038,0.8038,0.8038,0.7839,0.7739,0.7739,0.7739,0.7795,0.8104,0.8317,0.8471,0.8882,0.894,0.894,0.894,0.9051,0.9158,0.9158,0.9379,0.9489,0.9489,0.9489,0.9489,0.9596,0.9596,0.9706,0.9816,1.0036,1.0147,1.0147,1.0363,1.0582,1.0582,1.0692,0.815,0.2811,-0.2459,-0.6711,-1.012,-1.7365,-2.0925,-2.0925,-2.0925,-2.0925,-2.0925,-2.0925,-2.1019,-2.1121,-2.142,-2.1725,-2.203,-2.2434,-2.2946,-2.3447,-2.3555,-2.44,-2.5513,-2.603,-2.6768,-2.7725,-2.878,-2.9132,-2.9343,-3.0401,-3.0838,-3.0931,-3.1516,-3.1924,-3.2342,-3.2779,-3.3181,-3.3481,-3.3679,-3.3866,-3.4052,-3.4335,-3.4433,-3.4628,-3.4726,-3.4932,-3.503,-3.5126,-3.532,-3.562,-3.592,-3.5924,-3.5756,-3.5697,-3.5654,-3.5493,-3.5262,-3.5635,-3.5976,-3.6178,-3.6632,-3.7189,-3.7855,-3.7855,-3.8184,-3.8833,-3.9672,-4.0373,-4.0795,-4.1807,-4.2452,-4.2688,-4.3581,-4.3988,-4.3988,-4.4511,-4.4964,0.814,0.8199,0.8233,0.8137,0.8137,0.8137,0.8137,0.8038,0.8082,0.8238,0.8421,0.8632,0.8999,0.9047,0.9047,0.9158,0.9379,0.9489,0.9489,0.9706,0.9816,0.9816,0.9816,0.9816,0.9926,0.9926,1.0036,1.0036,1.0253,1.0476,1.0476,1.0582,1.0692,1.0692,0.9067,0.5673,0.0322,-0.4904,-1.0229,-1.5561,-1.9177,-2.0925,-2.0925,-2.0925,-2.0925,-2.0925,-2.1027,-2.1121,-2.1326,-2.1725,-2.203,-2.2333,-2.2846,-2.3147,-2.3464,-2.3799,-2.4803,-2.5822,-2.6238,-2.7074,-2.8015,-2.882,-2.9132,-2.9343,-3.0401,-3.0724,-3.0931,-3.1322,-3.1721,-3.2128,-3.2667,-3.298,-3.3281,-3.3481,-3.3679,-3.3767,-3.415,-3.4347,-3.4433,-3.4628,-3.4726,-3.4835,-3.503,-3.5126,-3.532,-3.5824,-3.592,-3.5961,-3.5762,-3.5898,-3.5973,-3.5673,-3.6064,-3.6471,-3.6817,-3.7176,-3.7714,-3.8406,-3.8656,-3.8936,-3.9335,-4.0259,-4.085,-4.1015,-4.2158,-4.2688,-4.2688,-4.3581,-4.3988,-4.3988,-4.4648,-4.5148,0.859,0.8706,0.8726,0.8432,0.8432,0.8432,0.8432,0.8237,0.8085,0.8241,0.8506,0.8865,0.935,0.9379,0.9489,0.9706,0.9816,0.9816,0.9816,0.9816,0.9816,0.9816,0.9816,0.9926,1.0257,1.0257,1.0363,1.0692,1.0692,1.0692,1.0692,1.0692,1.0692,1.0692,0.5563,0.0215,-0.5012,-1.0334,-1.567,-2.0925,-2.0925,-2.0925,-2.0925,-2.0925,-2.0925,-2.0917,-2.1224,-2.1326,-2.1326,-2.1928,-2.2333,-2.2653,-2.2946,-2.3147,-2.35,-2.4113,-2.5117,-2.6238,-2.6674,-2.741,-2.8398,-2.892,-2.9132,-2.9237,-3.0183,-3.0609,-3.0827,-3.1127,-3.1618,-3.2026,-3.2443,-3.2667,-3.298,-3.3292,-3.3481,-3.3679,-3.3679,-3.4064,-3.4433,-3.4433,-3.4628,-3.4823,-3.4823,-3.503,-3.532,-3.5524,-3.5812,-3.6098,-3.6358,-3.6358,-3.6344,-3.6339,-3.6209,-3.6297,-3.6744,-3.7363,-3.8135,-3.9026,-3.9664,-3.9906,-3.9816,-4.0801,-4.1396,-4.1396,-4.2281,-4.2688,-4.2688,-4.3581,-4.3988,-4.3988,-4.4663,-4.5397,0.856,0.8706,0.8825,0.8726,0.8726,0.8726,0.8726,0.8432,0.841,0.8888,0.9021,0.9272,0.9654,0.9706,0.9706,0.9816,1.0036,1.0147,1.0147,1.0363,1.0472,1.0472,1.0472,1.0472,1.0582,1.0582,1.0582,1.0692,1.0692,1.0692,1.0692,1.0692,1.0692,1.0692,0.5563,0.0215,-0.5012,-1.0334,-1.567,-2.0925,-2.0925,-2.0925,-2.0925,-2.0925,-2.0925,-2.0917,-2.1224,-2.1428,-2.1623,-2.2232,-2.2544,-2.2644,-2.3147,-2.3524,-2.3892,-2.4434,-2.5516,-2.6646,-2.6778,-2.741,-2.8398,-2.892,-2.9132,-2.9237,-3.0183,-3.0609,-3.0827,-3.1127,-3.1424,-3.1823,-3.2026,-3.2342,-3.2768,-3.3181,-3.3381,-3.3481,-3.3679,-3.3977,-3.4261,-3.4335,-3.4628,-3.4823,-3.4823,-3.4835,-3.503,-3.532,-3.5524,-3.5895,-3.6358,-3.6734,-3.6858,-3.6878,-3.7182,-3.7545,-3.8069,-3.8229,-3.8768,-3.9646,-3.9899,-4.01,-4.0435,-4.1043,-4.1396,-4.1396,-4.2281,-4.2688,-4.2688,-4.3581,-4.3988,-4.4003,-4.5217,-4.5924,0.8733,0.8898,0.9037,0.9011,0.8928,0.8928,0.8928,0.873,0.8703,0.9171,0.9283,0.941,0.9776,0.9991,1.0036,1.0143,1.0366,1.0472,1.0472,1.0582,1.0692,1.0692,1.0692,1.0692,1.0692,1.0692,1.0692,1.0692,1.0692,1.0692,1.0692,1.0692,0.9757,0.7583,0.2375,-0.2885,-0.82,-1.3471,-1.7695,-2.0925,-2.0925,-2.0925,-2.0925,-2.0925,-2.0917,-2.1121,-2.142,-2.1827,-2.2139,-2.2443,-2.2644,-2.2846,-2.3247,-2.3696,-2.4181,-2.4856,-2.5843,-2.6844,-2.7005,-2.7544,-2.8398,-2.892,-2.9132,-2.9237,-2.9984,-3.0516,-3.0827,-3.1034,-3.1333,-3.1618,-3.1913,-3.2229,-3.2656,-3.3081,-3.3181,-3.3381,-3.3481,-3.3779,-3.3977,-3.4261,-3.4445,-3.4628,-3.4823,-3.4823,-3.492,-3.5126,-3.5524,-3.5908,-3.6358,-3.6828,-3.7108,-3.7108,-3.7611,-3.8083,-3.8602,-3.8602,-3.9038,-3.9908,-3.9996,-4.0257,-4.0759,-4.1213,-4.148,-4.1647,-4.2377,-4.2769,-4.2835,-4.3581,-4.4124,-4.4397,-4.5619,-4.6499,0.914,0.9317,0.9401,0.9288,0.9331,0.9331,0.9331,0.9126,0.8973,0.9142,0.9316,0.9482,0.9961,1.0244,1.0476,1.0692,1.0692,1.0802,1.0802,1.0802,1.0802,1.0802,1.0802,1.0802,1.0692,1.0692,1.0692,1.0692,1.0692,1.0692,1.0692,1.0225,0.7807,0.2921,-0.2778,-0.8091,-1.2924,-1.8259,-2.0925,-2.0925,-2.0925,-2.0925,-2.0925,-2.0925,-2.1019,-2.1326,-2.1928,-2.2333,-2.2644,-2.2644,-2.2745,-2.3046,-2.3391,-2.3859,-2.457,-2.5176,-2.6104,-2.693,-2.7299,-2.7755,-2.8398,-2.892,-2.9132,-2.9237,-2.9784,-3.0412,-3.0734,-3.0827,-3.1127,-3.1618,-3.1913,-3.2229,-3.2544,-3.2779,-3.3092,-3.3281,-3.3281,-3.3481,-3.3779,-3.4075,-3.4249,-3.4531,-3.4726,-3.4823,-3.4932,-3.5223,-3.562,-3.6098,-3.6358,-3.6828,-3.7108,-3.7108,-3.7598,-3.807,-3.8602,-3.8602,-3.9038,-3.9908,-3.9996,-4.0343,-4.1001,-4.1297,-4.1564,-4.1951,-4.2444,-4.285,-4.2996,-4.3645,-4.4322,-4.5054,-4.5882,-4.7013,0.9599,0.9789,0.9983,1.007,1.0117,1.0117,1.0117,1.0113,0.997,0.9746,0.9828,1.0112,1.0289,1.0466,1.0692,1.1017,1.1017,1.1126,1.135,1.1459,1.1459,1.1459,1.1459,1.135,1.1021,1.1017,1.0907,1.0692,1.0692,1.0692,1.0692,0.679,0.4014,0.2811,-0.6389,-1.184,-1.3028,-1.8259,-2.0925,-2.0925,-2.0925,-2.0925,-2.0925,-2.0925,-2.1121,-2.1623,-2.1928,-2.2333,-2.2644,-2.2644,-2.2745,-2.3081,-2.36,-2.4271,-2.4977,-2.5578,-2.6514,-2.7308,-2.7394,-2.7755,-2.8398,-2.892,-2.9132,-2.9237,-2.9784,-3.0193,-3.0505,-3.0724,-3.1023,-3.1322,-3.1629,-3.1924,-3.2229,-3.2555,-3.2969,-3.3281,-3.3281,-3.3481,-3.3779,-3.4075,-3.4249,-3.4531,-3.4726,-3.4823,-3.4932,-3.5416,-3.562,-3.5895,-3.6358,-3.6828,-3.7108,-3.7108,-3.7756,-3.8226,-3.8602,-3.8948,-3.9394,-3.9996,-4.0343,-4.0787,-4.1297,-4.1396,-4.1564,-4.1951,-4.2444,-4.285,-4.325,-4.3738,-4.4478,-4.5525,-4.6548,-4.7714,0.9648,0.9842,1.0057,1.0338,1.0413,1.0413,1.0413,1.0413,1.034,1.0141,1.0382,1.0606,1.0708,1.0945,1.1131,1.135,1.135,1.135,1.1568,1.1568,1.1568,1.1568,1.1568,1.1568,1.135,1.135,1.124,1.1131,1.1021,0.9749,0.7233,0.4342,0.043,-0.4583,-1.0116,-1.4233,-1.6788,-1.9523,-2.0925,-2.0925,-2.0925,-2.0925,-2.1121,-2.1224,-2.1522,-2.1928,-2.2232,-2.2434,-2.2644,-2.2644,-2.2958,-2.3556,-2.387,-2.4616,-2.5569,-2.5885,-2.6644,-2.7431,-2.7431,-2.7755,-2.8398,-2.8824,-2.9036,-2.9237,-2.9669,-3.0088,-3.0495,-3.0724,-3.1034,-3.1219,-3.1527,-3.1823,-3.2128,-3.2443,-3.2768,-3.3181,-3.3281,-3.3381,-3.358,-3.3977,-3.4162,-3.4347,-3.4738,-3.4932,-3.5126,-3.5524,-3.5716,-3.6003,-3.6452,-3.6828,-3.7108,-3.7307,-3.7848,-3.8304,-3.8602,-3.9038,-3.9482,-3.9996,-4.043,-4.0873,-4.1396,-4.1549,-4.1883,-4.2363,-4.2769,-4.317,-4.3503,-4.4213,-4.5107,-4.6095,-4.7278,-4.8357,0.9678,0.9898,1.0157,1.0613,1.0703,1.0703,1.0703,1.0703,1.0703,1.0703,1.0795,1.0953,1.0984,1.1283,1.1529,1.1673,1.1678,1.1678,1.1678,1.1787,1.1787,1.1787,1.1787,1.1678,1.1678,1.1678,1.1678,1.1568,1.0534,0.7901,0.3455,0.1291,-0.3948,-1.2705,-1.3904,-1.6458,-2.0814,-2.0925,-2.0925,-2.0925,-2.0925,-2.1019,-2.142,-2.1623,-2.1827,-2.2123,-2.2443,-2.2644,-2.2552,-2.2621,-2.3242,-2.3976,-2.41,-2.4963,-2.5968,-2.6041,-2.6593,-2.7323,-2.7431,-2.7755,-2.8291,-2.8621,-2.893,-2.9132,-2.9448,-2.9973,-3.0401,-3.062,-3.0931,-3.123,-3.1424,-3.1721,-3.2026,-3.2443,-3.2667,-3.288,-3.3181,-3.3281,-3.3481,-3.3977,-3.4174,-3.4359,-3.4738,-3.503,-3.532,-3.5524,-3.5908,-3.6181,-3.6628,-3.7002,-3.7307,-3.7505,-3.7952,-3.8395,-3.8692,-3.9127,-3.9645,-4.0083,-4.053,-4.1043,-4.148,-4.1883,-4.2377,-4.2769,-4.309,-4.3423,-4.3769,-4.4813,-4.5784,-4.6777,-4.7886,-4.8969,1.0746,1.1104,1.1477,1.1721,1.178,1.178,1.178,1.178,1.178,1.178,1.1188,1.0799,1.0962,1.1173,1.1487,1.1869,1.2005,1.2005,1.2219,1.2332,1.2332,1.2332,1.2332,1.2223,1.2005,1.2005,1.1896,1.1568,0.7228,0.4231,0.3238,-0.5541,-1.1321,-1.2924,-1.7468,-2.0215,-2.0917,-2.0925,-2.0925,-2.0925,-2.0925,-2.1121,-2.1623,-2.1725,-2.1827,-2.2123,-2.2443,-2.2644,-2.2569,-2.2903,-2.3384,-2.4021,-2.4695,-2.5335,-2.6004,-2.6371,-2.6744,-2.7098,-2.7323,-2.7638,-2.8067,-2.8514,-2.893,-2.9132,-2.9448,-2.9774,-3.0099,-3.0401,-3.0609,-3.0931,-3.123,-3.1424,-3.1834,-3.2342,-3.2555,-3.2656,-3.3181,-3.3281,-3.3481,-3.3977,-3.4457,-3.4738,-3.4823,-3.503,-3.532,-3.5524,-3.5991,-3.6452,-3.6628,-3.7108,-3.7598,-3.7861,-3.8239,-3.8769,-3.9127,-3.9645,-4.0083,-4.0616,-4.1043,-4.1465,-4.1868,-4.2363,-4.2769,-4.317,-4.325,-4.3503,-4.3988,-4.5032,-4.6113,-4.7216,-4.8341,-4.9423,1.0924,1.1217,1.151,1.1738,1.1889,1.198,1.198,1.198,1.198,1.198,1.1668,1.1535,1.1863,1.1887,1.2103,1.2408,1.2332,1.2219,1.2327,1.2441,1.2441,1.2441,1.2441,1.2327,1.2223,1.2219,1.0946,0.7874,0.5322,0.1182,-0.5106,-1.0023,-1.4047,-1.7351,-1.9648,-2.0925,-2.0925,-2.0925,-2.0925,-2.0925,-2.0925,-2.1224,-2.1725,-2.1725,-2.1928,-2.2434,-2.2544,-2.2672,-2.2877,-2.304,-2.3583,-2.443,-2.4871,-2.546,-2.6109,-2.6518,-2.6791,-2.6989,-2.7323,-2.7638,-2.796,-2.8398,-2.8621,-2.893,-2.9237,-2.9554,-2.9879,-3.0287,-3.0609,-3.0827,-3.1127,-3.1424,-3.1732,-3.2342,-3.2544,-3.2656,-3.3181,-3.3281,-3.3481,-3.3977,-3.4457,-3.4823,-3.503,-3.5223,-3.5524,-3.5812,-3.6263,-3.6628,-3.6909,-3.7387,-3.7769,-3.8031,-3.8589,-3.9038,-3.9305,-3.9996,-4.0443,-4.0702,-4.1381,-4.1883,-4.2213,-4.2769,-4.325,-4.363,-4.3645,-4.3895,-4.4358,-4.5711,-4.6781,-4.7664,-4.889,-5.0022,1.1279,1.1467,1.166,1.1953,1.2151,1.2292,1.2355,1.237,1.237,1.2273,1.2268,1.2392,1.2689,1.264,1.2654,1.2866,1.2733,1.2659,1.2659,1.255,1.255,1.255,1.2441,1.2441,1.2441,1.1159,0.8757,0.4759,0.1828,-0.3414,-1.1736,-1.3717,-1.649,-2.0806,-2.0925,-2.0925,-2.0925,-2.0925,-2.0925,-2.0925,-2.0925,-2.1224,-2.1725,-2.1725,-2.2088,-2.2689,-2.2689,-2.2852,-2.3126,-2.3323,-2.3946,-2.4698,-2.5118,-2.5648,-2.6127,-2.6473,-2.6691,-2.689,-2.7215,-2.753,-2.7853,-2.8077,-2.8408,-2.8727,-2.9026,-2.9343,-2.9659,-3.0193,-3.0505,-3.0838,-3.1034,-3.1322,-3.1732,-3.2342,-3.2544,-3.2656,-3.3181,-3.3381,-3.358,-3.3977,-3.4543,-3.4932,-3.5126,-3.5524,-3.5812,-3.6098,-3.6546,-3.6909,-3.7294,-3.7664,-3.8122,-3.8485,-3.8935,-3.9394,-3.9645,-4.0343,-4.0859,-4.1029,-4.1785,-4.2281,-4.2622,-4.317,-4.363,-4.4097,-4.4266,-4.4435,-4.4739,-4.6392,-4.7464,-4.8044,-4.9517,-5.0557,1.2258,1.2331,1.2456,1.2932,1.3057,1.3131,1.3386,1.3443,1.3346,1.3147,1.305,1.303,1.3077,1.2811,1.263,1.2951,1.3173,1.3207,1.3207,1.2989,1.2881,1.2881,1.255,1.2441,1.2441,0.7858,0.4759,0.4539,-0.4803,-1.1024,-1.2168,-1.6951,-2.0055,-2.0917,-2.0925,-2.0925,-2.0925,-2.0925,-2.0925,-2.0925,-2.0925,-2.1224,-2.1725,-2.1725,-2.2222,-2.3083,-2.3083,-2.3091,-2.3169,-2.3879,-2.4313,-2.4724,-2.5401,-2.5889,-2.6127,-2.6473,-2.6591,-2.6691,-2.689,-2.7206,-2.7431,-2.7853,-2.8291,-2.8727,-2.9026,-2.9343,-2.9659,-2.9994,-3.0412,-3.0838,-3.0838,-3.123,-3.1732,-3.2342,-3.2544,-3.2656,-3.3181,-3.3679,-3.4075,-3.4075,-3.464,-3.5223,-3.5223,-3.562,-3.6098,-3.637,-3.6734,-3.7294,-3.7756,-3.8031,-3.8485,-3.9216,-3.9305,-3.9645,-4.053,-4.0845,-4.1269,-4.1868,-4.2363,-4.285,-4.3265,-4.363,-4.4097,-4.4572,-4.4949,-4.5173,-4.5173,-4.6941,-4.7921,-4.8195,-5.0204,-5.1183,1.2152,1.2289,1.2454,1.2631,1.2911,1.3168,1.3259,1.3419,1.3443,1.3346,1.3346,1.3368,1.3361,1.3105,1.2925,1.3252,1.327,1.3315,1.3315,1.3207,1.3098,1.2881,1.2772,1.1263,0.7636,0.5636,0.1718,-0.5122,-0.9199,-1.31,-1.7067,-1.9029,-2.0395,-2.0925,-2.0925,-2.0925,-2.0925,-2.0925,-2.0925,-2.0925,-2.0925,-2.1224,-2.1733,-2.1973,-2.2473,-2.3143,-2.3622,-2.3836,-2.3853,-2.4119,-2.4384,-2.4853,-2.5186,-2.5569,-2.5907,-2.6136,-2.6473,-2.6691,-2.689,-2.7206,-2.7431,-2.7745,-2.8184,-2.8514,-2.8727,-2.9036,-2.9343,-2.9669,-3.0297,-3.0838,-3.0838,-3.123,-3.1732,-3.2342,-3.2757,-3.3069,-3.3481,-3.3878,-3.4174,-3.4249,-3.4738,-3.5223,-3.5428,-3.5895,-3.637,-3.6534,-3.7201,-3.7664,-3.7861,-3.8485,-3.9024,-3.9441,-3.9908,-4.0443,-4.1128,-4.1451,-4.1854,-4.2444,-4.285,-4.3329,-4.3895,-4.4328,-4.4799,-4.5352,-4.5744,-4.5817,-4.5573,-4.6961,-4.8013,-4.8771,-5.0148,-5.1214,1.2466,1.259,1.2738,1.2827,1.3099,1.3395,1.3578,1.3661,1.3724,1.3806,1.3732,1.3636,1.3539,1.338,1.3324,1.3559,1.3482,1.3552,1.3635,1.3537,1.2719,1.065,1.0309,0.8059,0.2364,0.0214,-0.3735,-1.0721,-1.3016,-1.578,-1.9849,-2.0078,-2.0395,-2.0925,-2.0925,-2.0925,-2.0925,-2.0925,-2.0925,-2.0925,-2.0925,-2.1288,-2.1923,-2.2179,-2.2733,-2.352,-2.4016,-2.423,-2.4239,-2.4376,-2.4581,-2.4821,-2.5128,-2.545,-2.5679,-2.6017,-2.6354,-2.6591,-2.6791,-2.6999,-2.7323,-2.7638,-2.796,-2.8184,-2.8621,-2.893,-2.9132,-2.9554,-3.0193,-3.0838,-3.0838,-3.1333,-3.2037,-3.2443,-3.2969,-3.3481,-3.3779,-3.3977,-3.4162,-3.4433,-3.4932,-3.5416,-3.58,-3.6263,-3.664,-3.7002,-3.7664,-3.8122,-3.8304,-3.9024,-3.9645,-3.9968,-4.0516,-4.1128,-4.1731,-4.2117,-4.2592,-4.3076,-4.3472,-4.4035,-4.4587,-4.4964,-4.541,-4.5992,-4.6317,-4.6458,-4.6349,-4.7323,-4.8333,-4.942,-5.0391,-5.1525,0.0,0.0,0.0,1.3729,1.3798,1.3951,1.4419,1.4366,1.4259,1.4327,1.4112,1.3835,1.3539,1.3739,1.3885,1.3942,1.3877,1.3906,1.4148,1.3738,1.1423,0.6034,0.4951,0.2466,-0.3092,-0.8332,-1.1375,-1.148,-1.6384,-1.9583,-2.0078,-2.0078,-2.0395,-2.0925,-2.0925,-2.0925,-2.0925,-2.0925,-2.0925,-2.0925,-2.0933,-2.1433,-2.2295,-2.2311,-2.3017,-2.4239,-2.4247,-2.4256,-2.4282,-2.4667,-2.4821,-2.4821,-2.5128,-2.534,-2.5688,-2.6017,-2.6354,-2.6591,-2.6591,-2.6791,-2.6989,-2.7314,-2.7638,-2.796,-2.8514,-2.893,-2.9132,-2.9448,-3.0193,-3.0838,-3.0827,-3.164,-3.2544,-3.2544,-3.3158,-3.3779,-3.4075,-3.4075,-3.4272,-3.4738,-3.5223,-3.58,-3.6263,-3.6628,-3.7002,-3.7756,-3.8122,-3.8485,-3.9203,-3.9733,-4.017,-4.0702,-4.1128,-4.1731,-4.2392,-4.2769,-4.3299,-4.3927,-4.4328,-4.4799,-4.5247,-4.5646,-4.5992,-4.6356,-4.6738,-4.7082,-4.7404,-4.8125,-4.9,-4.9895,-5.1038,-5.2235,1.3646,0.0,0.0,0.0,0.0,0.0,1.4008,1.4267,1.4496,1.4478,1.4463,1.4502,1.4406,1.4081,1.3924,1.4184,1.4179,1.4057,1.3916,1.0638,0.7588,0.5938,0.2036,-0.2667,-0.8233,-1.0286,-1.2911,-1.6834,-1.8658,-1.9783,-2.0078,-2.0498,-2.0712,-2.0925,-2.0925,-2.0925,-2.0925,-2.0925,-2.0925,-2.0925,-2.1179,-2.1563,-2.1998,-2.2724,-2.3395,-2.3921,-2.4429,-2.4658,-2.4667,-2.4778,-2.4821,-2.4821,-2.4923,-2.5136,-2.534,-2.5679,-2.6017,-2.6245,-2.6473,-2.6791,-2.6989,-2.7314,-2.7638,-2.796,-2.8291,-2.8717,-2.9132,-2.9237,-2.9984,-3.0931,-3.1527,-3.2037,-3.2555,-3.2969,-3.3381,-3.3878,-3.4445,-3.464,-3.4738,-3.503,-3.5692,-3.6275,-3.6358,-3.7015,-3.7651,-3.8031,-3.8666,-3.9203,-3.9733,-4.0329,-4.0916,-4.1353,-4.1951,-4.2526,-4.3025,-4.3394,-4.3927,-4.4556,-4.4874,-4.5305,-4.5945,-4.6246,-4.6598,-4.7066,-4.7504,-4.7836,-4.8211,-4.8183,-4.8663,-4.9742,-5.1577,-5.281,1.4153,1.4153,1.4068,1.3984,0.0,0.0,1.4222,1.4339,1.4462,1.4699,1.469,1.4652,1.4669,1.2822,1.124,1.1175,0.9581,0.8859,1.041,0.6258,0.2125,-0.0534,-0.3839,-0.812,-1.3709,-1.4477,-1.5928,-1.9042,-1.9583,-1.9887,-2.03,-2.0712,-2.0925,-2.0925,-2.0925,-2.0925,-2.0925,-2.1068,-2.1139,-2.1147,-2.1497,-2.1841,-2.233,-2.2953,-2.356,-2.4056,-2.4497,-2.471,-2.4821,-2.4821,-2.4821,-2.4821,-2.4821,-2.4915,-2.5221,-2.545,-2.5789,-2.6127,-2.6354,-2.6573,-2.6899,-2.7323,-2.7653,-2.8013,-2.8447,-2.9114,-2.9695,-2.9695,-3.0543,-3.1612,-3.2427,-3.2853,-3.3276,-3.3799,-3.4295,-3.474,-3.511,-3.5442,-3.577,-3.5741,-3.6073,-3.6546,-3.6922,-3.7572,-3.8213,-3.8562,-3.9278,-3.9895,-4.0329,-4.1001,-4.1604,-4.2102,-4.2673,-4.325,-4.3645,-4.4174,-4.4692,-4.529,-4.551,-4.6017,-4.6705,-4.686,-4.7202,-4.7886,-4.8098,-4.842,-4.8923,-4.8564,-4.8996,-5.0164,-5.1901,-5.2839,1.4734,1.4734,1.4734,1.4734,1.4566,0.0,1.4847,1.4496,1.4304,1.491,1.4383,1.3824,1.3957,1.0023,0.6573,0.6109,0.2151,0.0699,0.487,0.1143,-0.4081,-0.9391,-1.0822,-1.3357,-1.8394,-1.9071,-1.9279,-1.9279,-1.9576,-1.999,-2.0522,-2.0822,-2.0925,-2.0925,-2.0925,-2.0941,-2.098,-2.129,-2.1465,-2.1513,-2.1854,-2.2288,-2.2812,-2.2962,-2.3497,-2.4264,-2.4376,-2.4487,-2.471,-2.471,-2.4821,-2.4821,-2.4821,-2.4915,-2.5119,-2.5221,-2.5586,-2.608,-2.619,-2.6454,-2.6829,-2.7356,-2.782,-2.8233,-2.8775,-2.9709,-3.058,-3.0691,-3.1449,-3.2416,-3.3274,-3.3816,-3.4144,-3.475,-3.5477,-3.5962,-3.5897,-3.664,-3.7132,-3.6736,-3.6597,-3.6828,-3.7848,-3.8213,-3.8562,-3.9292,-3.9968,-4.056,-4.1085,-4.1688,-4.2281,-4.2769,-4.3394,-4.3942,-4.4358,-4.4949,-4.551,-4.6072,-4.6285,-4.6775,-4.7471,-4.7538,-4.7886,-4.861,-4.8673,-4.9029,-4.9649,-4.9307,-4.9691,-5.0763,-5.198,-5.2579,1.5082,1.4999,1.4999,1.4741,1.465,0.0,1.4733,1.4778,1.4737,1.494,1.1823,0.9181,0.9218,0.5161,0.1734,0.164,-0.2703,-0.4489,-0.0,-0.3993,-0.7852,-0.9253,-1.3838,-1.7252,-1.8415,-1.8959,-1.9279,-1.9279,-1.9783,-2.0292,-2.0822,-2.0917,-2.0925,-2.0925,-2.0925,-2.106,-2.1346,-2.1417,-2.1592,-2.1862,-2.222,-2.2418,-2.2608,-2.3118,-2.3519,-2.3705,-2.3921,-2.4144,-2.4487,-2.4487,-2.4599,-2.4821,-2.4821,-2.4821,-2.4923,-2.5119,-2.5643,-2.6252,-2.6475,-2.7027,-2.7648,-2.8202,-2.8482,-2.8661,-2.9332,-2.9957,-3.0691,-3.1558,-3.221,-3.276,-3.3615,-3.4238,-3.4855,-3.558,-3.6093,-3.6577,-3.7407,-3.7513,-3.7642,-3.8191,-3.7883,-3.7769,-3.8317,-3.8922,-3.9516,-4.0041,-4.0759,-4.1381,-4.2049,-4.2511,-4.2996,-4.3615,-4.4236,-4.4723,-4.5024,-4.5656,-4.6301,-4.6738,-4.6997,-4.7538,-4.8275,-4.8275,-4.8593,-4.929,-4.975,-5.0211,-5.053,-5.0268,-5.0258,-5.0528,-5.1839,-5.2427,1.5665,1.559,1.5499,1.5235,1.5151,0.0,0.0,1.164,1.1047,0.896,0.6656,0.4949,0.4765,0.0754,-0.2767,-0.3086,-0.7385,-1.0,-0.7966,-1.0406,-1.2552,-1.308,-1.6182,-1.8254,-1.8408,-1.8959,-1.9376,-1.968,-2.0094,-2.0506,-2.0925,-2.0925,-2.0925,-2.0925,-2.1091,-2.1266,-2.1449,-2.1791,-2.2053,-2.2227,-2.2577,-2.2752,-2.276,-2.3055,-2.336,-2.348,-2.3585,-2.3929,-2.4376,-2.4376,-2.4599,-2.4821,-2.4821,-2.4932,-2.5095,-2.5302,-2.5882,-2.667,-2.6784,-2.7259,-2.7879,-2.8559,-2.8804,-2.9089,-2.9893,-3.084,-3.1799,-3.2691,-3.3254,-3.3792,-3.465,-3.5187,-3.5827,-3.6775,-3.7284,-3.7829,-3.8479,-3.8579,-3.867,-3.9123,-3.8948,-3.8819,-3.91,-3.9719,-4.0329,-4.0759,-4.1535,-4.2199,-4.2754,-4.322,-4.3771,-4.4465,-4.4993,-4.5437,-4.5873,-4.6496,-4.705,-4.7538,-4.7803,-4.8258,-4.8984,-4.9029,-4.9453,-5.0137,-5.0585,-5.091,-5.121,-5.1228,-5.1193,-5.1017,-5.1861,-5.2243,1.5148,1.4885,1.4608,1.3612,1.3175,1.2099,0.0,0.0,0.0,0.2972,0.1496,0.0713,0.0276,-0.374,-0.7224,-0.7931,-1.1303,-1.4124,-1.4598,-1.5261,-1.6104,-1.6892,-1.7626,-1.8093,-1.8394,-1.8952,-1.9576,-2.0078,-2.0308,-2.0617,-2.0925,-2.0925,-2.0925,-2.0925,-2.1266,-2.1481,-2.1544,-2.2172,-2.2521,-2.2593,-2.2879,-2.3014,-2.3014,-2.3014,-2.3135,-2.3472,-2.3472,-2.3817,-2.4376,-2.4376,-2.4641,-2.4924,-2.4924,-2.5112,-2.5378,-2.5446,-2.6179,-2.6973,-2.6973,-2.7479,-2.8233,-2.8795,-2.925,-2.9863,-3.0799,-3.1838,-3.2799,-3.3614,-3.4188,-3.4836,-3.5708,-3.6254,-3.6916,-3.7974,-3.8594,-3.92,-3.9562,-3.9738,-3.9796,-4.0143,-4.0008,-3.9867,-3.9867,-4.0488,-4.1114,-4.1549,-4.2363,-4.3076,-4.3521,-4.3912,-4.4526,-4.5305,-4.5713,-4.6198,-4.6791,-4.727,-4.7869,-4.837,-4.8593,-4.9029,-4.9666,-4.9866,-5.0307,-5.0999,-5.1262,-5.1551,-5.1817,-5.2144,-5.2096,-5.1768,-5.2096,-5.2286,1.1617,1.048,0.9606,0.5735,0.4619,0.4357,0.3846,0.0,0.2914,0.2491,0.0,-0.419,-0.421,0.0,0.0,-1.2371,-1.3267,-1.4124,-1.4598,-1.5006,-1.5531,-1.6299,-1.7299,-1.8093,-1.8394,-1.9153,-1.9783,-2.0078,-2.0308,-2.0617,-2.0925,-2.0925,-2.0925,-2.0925,-2.1266,-2.1592,-2.1902,-2.2291,-2.2649,-2.295,-2.2998,-2.3014,-2.3014,-2.3014,-2.3135,-2.3472,-2.3472,-2.3817,-2.4376,-2.4376,-2.4794,-2.5309,-2.5309,-2.5335,-2.5412,-2.5746,-2.6571,-2.7481,-2.7481,-2.8301,-2.931,-2.9662,-3.0393,-3.1245,-3.2156,-3.253,-3.2924,-3.4065,-3.4847,-3.5488,-3.6375,-3.7227,-3.7974,-3.8908,-3.9544,-4.0249,-4.1206,-4.09,-4.0736,-4.1421,-4.1197,-4.0816,-4.0816,-4.1408,-4.2005,-4.2444,-4.322,-4.3927,-4.4282,-4.4887,-4.5478,-4.6072,-4.662,-4.7118,-4.7571,-4.8081,-4.8593,-4.9057,-4.9394,-4.975,-5.0302,-5.0749,-5.1244,-5.1701,-5.1946,-5.2297,-5.2654,-5.29,-5.2751,-5.2315,-5.2563,-5.2831,0.7179,0.6574,0.6057,0.4106,0.3594,0.2824,0.0172,-0.0689,-0.1637,-0.4247,0.0,0.0,0.0,0.0,0.0,0.0,-1.3379,-1.3829,-1.4214,-1.47,-1.5319,-1.6012,-1.6914,-1.7796,-1.8603,-1.9472,-1.9983,-2.0078,-2.0506,-2.0822,-2.0917,-2.0925,-2.0925,-2.0925,-2.1457,-2.1814,-2.1957,-2.2513,-2.2871,-2.3014,-2.3247,-2.3247,-2.3247,-2.3464,-2.3585,-2.3697,-2.3697,-2.4041,-2.4376,-2.4376,-2.4819,-2.5386,-2.5838,-2.6054,-2.6037,-2.6442,-2.709,-2.789,-2.8246,-2.8828,-2.9558,-3.0265,-3.1082,-3.1883,-3.2571,-3.314,-3.3829,-3.4602,-3.5378,-3.6363,-3.7012,-3.7868,-3.8699,-3.9544,-4.0262,-4.098,-4.1639,-4.1652,-4.159,-4.1948,-4.1839,-4.1893,-4.2304,-4.2548,-4.2966,-4.3536,-4.4159,-4.4843,-4.5332,-4.5769,-4.6356,-4.7066,-4.7455,-4.7967,-4.8497,-4.8968,-4.9394,-4.9866,-5.0384,-5.0858,-5.1192,-5.1651,-5.206,-5.2343,-5.2617,-5.2882,-5.3193,-5.3385,-5.3447,-5.3385,-5.3326,-5.3425,0.3082,0.2652,0.2139,0.0859,0.043,-0.0517,-0.383,-0.4711,-0.5854,-0.9213,-1.0033,0.0,0.0,0.0,-1.1918,-1.2478,0.0,-1.3545,-1.3835,-1.4502,-1.5178,-1.5745,-1.6706,-1.7719,-1.8697,-1.9524,-2.0078,-2.0078,-2.0609,-2.0925,-2.0925,-2.0925,-2.0925,-2.0925,-2.1698,-2.2065,-2.2065,-2.2878,-2.3239,-2.3239,-2.3472,-2.3585,-2.3585,-2.3809,-2.3921,-2.4033,-2.4033,-2.4264,-2.4496,-2.4709,-2.5189,-2.5786,-2.6388,-2.6889,-2.7112,-2.7248,-2.7661,-2.8379,-2.8856,-2.945,-3.003,-3.1073,-3.1883,-3.2561,-3.3027,-3.3942,-3.4836,-3.5256,-3.6243,-3.7227,-3.7962,-3.8687,-3.9531,-4.0465,-4.1054,-4.1595,-4.2235,-4.2278,-4.2298,-4.261,-4.2743,-4.2921,-4.3663,-4.3663,-4.3819,-4.4434,-4.5126,-4.5801,-4.6285,-4.6775,-4.7321,-4.7934,-4.8386,-4.8872,-4.9419,-4.9791,-5.025,-5.0803,-5.1347,-5.1831,-5.2167,-5.2435,-5.2725,-5.303,-5.3222,-5.3465,-5.3737,-5.387,-5.4052,-5.43,-5.398,-5.3944,-0.0173,-0.1472,-0.2694,-0.6809,-0.8181,-0.854,-0.8636,-0.8899,-0.9161,-0.9515,-0.9864,-1.0038,-1.0304,-1.11,-1.1773,-1.2059,-1.2931,0.0,0.0,-1.4406,-1.4889,-1.5464,-1.6981,-1.8069,-1.8411,-1.939,-2.0078,-2.0078,-2.0609,-2.0925,-2.0925,-2.0925,-2.0925,-2.0925,-2.1909,-2.2379,-2.2379,-2.3321,-2.3913,-2.3913,-2.3921,-2.3921,-2.3921,-2.3921,-2.4033,-2.4376,-2.4376,-2.4487,-2.4847,-2.5561,-2.604,-2.6397,-2.714,-2.7884,-2.8343,-2.8113,-2.837,-2.8984,-2.8984,-2.9795,-3.1082,-3.2227,-3.2789,-3.3233,-3.4166,-3.4836,-3.5598,-3.6375,-3.7227,-3.8185,-3.9299,-3.9955,-4.0694,-4.1782,-4.193,-4.2167,-4.3166,-4.2931,-4.2823,-4.3714,-4.3878,-4.4098,-4.4871,-4.4737,-4.4662,-4.5258,-4.6072,-4.6722,-4.727,-4.7787,-4.8306,-4.881,-4.9333,-4.975,-5.0062,-5.053,-5.1105,-5.1915,-5.2203,-5.2572,-5.3036,-5.3096,-5.3244,-5.3682,-5.3814,-5.3999,-5.4262,-5.4482,-5.4642,-5.4776,-5.443,-5.4382,-0.5132,-0.5651,-0.6274,-0.783,-0.8288,-0.8468,-0.8652,-0.8911,-0.9087,-0.9087,-0.9428,-0.9777,-1.0038,-1.0741,-1.1405,-1.1768,-1.2547,-1.3152,0.0,-1.4406,-1.5108,-1.5486,-1.6796,-1.7851,-1.8157,-1.9375,-2.0078,-2.0078,-2.0609,-2.0925,-2.0925,-2.1019,-2.1121,-2.1121,-2.2112,-2.27,-2.27,-2.3439,-2.3921,-2.3921,-2.4144,-2.4264,-2.4264,-2.4376,-2.4693,-2.4906,-2.4906,-2.5128,-2.5366,-2.5608,-2.6255,-2.707,-2.7567,-2.8379,-2.9322,-2.8856,-2.8966,-2.944,-3.0265,-3.1082,-3.1872,-3.3016,-3.3582,-3.4134,-3.4825,-3.5708,-3.6688,-3.7334,-3.8279,-3.9312,-4.0249,-4.1145,-4.1834,-4.2304,-4.2892,-4.3342,-4.3401,-4.3814,-4.4092,-4.4243,-4.4725,-4.5243,-4.5769,-4.6198,-4.6464,-4.6534,-4.7085,-4.7638,-4.8177,-4.8668,-4.9205,-4.978,-5.0159,-5.0622,-5.107,-5.1551,-5.209,-5.2688,-5.295,-5.3185,-5.3468,-5.3739,-5.3961,-5.4088,-5.4345,-5.456,-5.4623,-5.4924,-5.5083,-5.5138,-5.5141,-5.5134,-0.7524,-0.7634,-0.7768,-0.794,-0.8025,-0.8116,-0.8384,-0.856,-0.8732,-0.8823,-0.917,-0.9454,-0.9879,-1.0434,-1.1061,-1.1605,-1.2316,-1.2958,0.0,-1.4508,-1.5178,-1.5356,-1.6647,-1.7689,-1.7886,-1.9206,-2.0078,-2.0078,-2.0609,-2.0917,-2.1019,-2.1224,-2.1326,-2.142,-2.2427,-2.302,-2.302,-2.3769,-2.4256,-2.4256,-2.459,-2.4693,-2.4693,-2.5034,-2.5247,-2.534,-2.545,-2.5679,-2.5916,-2.6271,-2.6846,-2.7554,-2.8199,-2.9212,-3.0296,-2.9747,-2.9795,-3.049,-3.1652,-3.2446,-3.3006,-3.3909,-3.4692,-3.5367,-3.6013,-3.6989,-3.7974,-3.8687,-3.9609,-4.0565,-4.1281,-4.2191,-4.2887,-4.302,-4.3492,-4.3978,-4.3997,-4.4433,-4.4926,-4.5114,-4.5753,-4.648,-4.6949,-4.7622,-4.7967,-4.7638,-4.808,-4.8652,-4.9205,-4.9639,-5.0142,-5.0678,-5.1017,-5.15,-5.2072,-5.2536,-5.2975,-5.3388,-5.3624,-5.3851,-5.4086,-5.4345,-5.4528,-5.4635,-5.4876,-5.4998,-5.508,-5.5312,-5.5493,-5.5558,-5.567,-5.5691]}]]